Date StartTime U_cm/s V_cm/s W_cm/s Ustd_cm/s Vstd_cm/s Wstd_cm/s Uvar_(cm/s)^2 Vvar_(cm/s)^2 Wvar_(cm/s)^2 KE_(m/s)^2 TurbulentKE_(m/s)^2 HorizWindSpeed_cm/s FrictionSpeec_cm/s DragCoef SpeedOfSound_m/s SonicTemperature_C Pressure_mb 
08/17/2013  00:00:00      -81.533      -21.199      -12.240        8.052        8.364        8.617       64.839       69.961       74.255        0.373        0.010       84.244        2.687        0.001      343.873       20.290      864.025
08/17/2013  00:01:00     -114.238      -32.348      -14.414       14.046        9.242       10.282      197.301       85.410      105.727        0.735        0.019      118.730        5.373        0.002      343.804       20.174      864.038
08/17/2013  00:02:00     -115.557      -26.037       -6.602       30.379       19.371       18.745      922.903      375.229      351.362        0.786        0.082      118.454       14.787        0.016      343.580       19.792      864.033
08/17/2013  00:03:00     -140.550      -34.530      -13.317       22.723       15.071       11.616      516.324      227.149      134.938        1.100        0.044      144.729        8.027        0.003      343.609       19.841      864.025
08/17/2013  00:04:00     -108.887      -47.362        0.160       21.538       19.389       14.248      463.869      375.946      202.994        0.757        0.052      118.741       12.625        0.011      343.746       20.074      864.018
08/17/2013  00:05:00      -99.405      -53.411        3.467       39.540       29.461       21.093     1563.441      867.959      444.921        0.781        0.144      112.845       19.663        0.030      343.885       20.312      864.008
08/17/2013  00:06:00      -98.720      -43.641       -7.598       23.912       20.528       13.843      571.771      421.407      191.623        0.645        0.059      107.935       12.276        0.013      343.849       20.251      864.004
08/17/2013  00:07:00      -67.074       -2.053       -3.520        9.666       14.194        9.665       93.437      201.477       93.420        0.245        0.019       67.105        6.569        0.010      343.817       20.197      864.009
08/17/2013  00:08:00      -43.463       13.641       -4.277       15.366       14.253        8.300      236.113      203.158       68.885        0.130        0.025       45.554        4.339        0.009      343.640       19.893      864.001
08/17/2013  00:09:00      -33.752      -12.509        0.671       14.078       13.646       12.040      198.204      186.202      144.973        0.091        0.026       35.996        9.498        0.070      343.788       20.148      864.003
08/17/2013  00:10:00       -4.717        7.667       13.599       25.007       14.308       15.617      625.347      204.714      243.904        0.067        0.054        9.002       17.108        3.612      343.386       19.459      864.010
08/17/2013  00:11:00       -4.453       -4.183        3.205        6.488       12.389        5.269       42.098      153.484       27.757        0.014        0.011        6.109        4.494        0.541      343.418       19.517      864.019
08/17/2013  00:12:00       -3.415        4.871       13.256       13.239       14.689       13.112      175.279      215.772      171.926        0.039        0.028        5.949       13.079        4.834      343.318       19.345      864.033
08/17/2013  00:13:00        4.097       -3.833        0.539       14.565       12.567       14.338      212.129      157.927      205.575        0.030        0.029        5.610        8.832        2.478      343.582       19.795      864.043
08/17/2013  00:14:00       29.836       -4.528       20.365       25.109       12.790       14.032      630.450      163.584      196.884        0.116        0.050       30.178        9.667        0.103      343.609       19.842      864.046
08/17/2013  00:15:00       45.543      -21.331       14.877       25.171       21.080       22.497      633.573      444.365      506.104        0.217        0.079       50.291       16.424        0.107      343.977       20.468      864.060
08/17/2013  00:16:00       29.163       -3.957       -2.678       13.907       24.618       19.514      193.406      606.065      380.787        0.103        0.059       29.431        8.115        0.076      343.702       20.000      864.050
08/17/2013  00:17:00       -1.594       22.820        7.122       14.158       15.426        9.041      200.463      237.957       81.738        0.055        0.026       22.876        6.807        0.089      344.152       20.768      864.049
08/17/2013  00:18:00       -7.282      -16.048      -13.264       16.313       16.602       11.705      266.101      275.616      137.011        0.058        0.034       17.623       10.411        0.349      343.808       20.179      864.047
08/17/2013  00:19:00        1.025      -38.654        0.664       17.175       20.102       10.903      294.983      404.080      118.870        0.116        0.041       38.668        8.320        0.046      343.738       20.062      864.038
08/17/2013  00:20:00       -5.337      -10.037        3.151       20.519       12.602       12.796      421.025      158.812      163.750        0.044        0.037       11.368        8.251        0.527      343.375       19.442      864.046
08/17/2013  00:21:00      -73.320      -42.730       -7.688       10.735       13.944        9.169      115.246      194.429       84.064        0.383        0.020       84.862        5.621        0.004      343.374       19.442      864.048
08/17/2013  00:22:00      -75.793      -35.975      -11.009       11.940       11.153        9.432      142.560      124.384       88.962        0.376        0.018       83.897        8.407        0.010      343.379       19.448      864.040
08/17/2013  00:23:00      -82.366      -13.339      -11.130       15.362       13.999       10.110      236.001      195.985      102.206        0.381        0.027       83.439        4.940        0.004      343.352       19.403      864.037
08/17/2013  00:24:00     -101.663       -9.580       -6.606       29.390       24.877       16.608      863.764      618.851      275.832        0.611        0.088      102.114       14.013        0.019      343.329       19.364      864.034
08/17/2013  00:25:00     -106.716      -30.199      -11.422       26.507       24.751       17.669      702.606      612.598      312.184        0.703        0.081      110.907       15.924        0.021      343.167       19.089      864.023
08/17/2013  00:26:00     -101.541      -34.612      -11.269       37.533       27.682       20.311     1408.751      766.272      412.556        0.711        0.129      107.278       17.991        0.028      343.190       19.126      864.015
08/17/2013  00:27:00     -107.968        2.319      -16.431       37.799       37.791       19.132     1428.737     1428.155      366.040        0.758        0.161      107.993       16.843        0.024      343.149       19.058      864.021
08/17/2013  00:28:00     -105.812        6.132      -19.931       42.000       27.150       17.959     1764.012      737.129      322.532        0.723        0.141      105.989       12.656        0.014      343.135       19.034      864.023
08/17/2013  00:29:00      -60.828        0.932        2.387       37.838       38.753       29.776     1431.704     1501.785      886.613        0.376        0.191       60.835       17.565        0.083      343.118       19.005      864.017
08/17/2013  00:30:00     -106.858       26.226       -2.112       64.448       39.234       25.767     4153.563     1539.297      663.920        0.923        0.318      110.030       28.876        0.069      343.122       19.010      864.020
08/17/2013  00:31:00     -156.061      -35.263      -22.655       32.225       54.694       23.511     1038.422     2991.455      552.785        1.535        0.229      159.995       11.164        0.005      343.095       18.966      864.025
08/17/2013  00:32:00     -175.430      -19.832      -14.885       45.963       32.975       26.531     2112.560     1087.366      703.901        1.765        0.195      176.547       19.918        0.013      343.046       18.883      864.009
08/17/2013  00:33:00     -199.246      -18.262      -15.851       55.797       35.216       26.297     3113.294     1240.156      691.517        2.266        0.252      200.081       25.633        0.016      343.053       18.890      864.008
08/17/2013  00:34:00     -216.697       25.705      -31.518       29.946       29.887       16.803      896.770      893.218      282.338        2.534        0.104      218.217        7.331        0.001      343.066       18.914      863.991
08/17/2013  00:35:00     -199.070       28.480      -24.271       32.763       23.167       15.600     1073.397      536.717      243.360        2.144        0.093      201.097       14.822        0.005      343.134       19.031      863.982
08/17/2013  00:36:00     -232.934       17.688      -27.275       45.000       28.081       21.696     2025.000      788.546      470.699        2.930        0.164      233.605       18.258        0.006      343.363       19.419      863.979
08/17/2013  00:37:00     -141.684       -2.137      -18.253       44.359       43.600       22.221     1967.723     1900.994      493.757        1.239        0.218      141.700       16.740        0.014      343.323       19.353      863.976
08/17/2013  00:38:00     -165.548       -0.048      -17.472       44.187       46.479       23.886     1952.515     2160.298      570.549        1.620        0.234      165.548       18.309        0.012      343.253       19.234      863.983
08/17/2013  00:39:00     -113.653       10.568      -12.757       37.674       43.497       26.825     1419.334     1891.966      719.600        0.861        0.202      114.143       22.884        0.040      343.267       19.258      863.980
08/17/2013  00:40:00     -201.342       59.381      -15.584       45.051       37.792       27.171     2029.610     1428.219      738.258        2.425        0.210      209.916        6.851        0.001      343.607       19.834      863.979
08/17/2013  00:41:00     -178.887       45.445       -8.888       62.702       53.495       36.364     3931.553     2861.723     1322.312        2.113        0.406      184.569       36.255        0.039      343.537       19.717      863.979
08/17/2013  00:42:00     -146.203       44.909       -5.315       46.979       37.236       28.469     2207.021     1386.515      810.488        1.391        0.220      152.944       25.150        0.027      343.569       19.771      863.979
08/17/2013  00:43:00      -79.610       19.628      -17.211       39.037       31.522       21.807     1523.856      993.659      475.565        0.501        0.150       81.994       13.241        0.026      343.397       19.480      863.981
08/17/2013  00:44:00     -106.306      -12.382      -14.944       32.829       41.367       23.031     1077.765     1711.240      530.411        0.750        0.166      107.024       19.075        0.032      343.144       19.049      863.961
08/17/2013  00:45:00     -110.232      -34.268        1.071       38.710       45.388       22.865     1498.503     2060.046      522.827        0.870        0.204      115.436       23.885        0.043      342.978       18.767      863.963
08/17/2013  00:46:00      -52.653      -21.035        7.238       34.782       35.460       24.248     1209.773     1257.405      587.987        0.316        0.153       56.700       22.369        0.156      342.973       18.756      863.953
08/17/2013  00:47:00      -61.190      -38.039       -4.830       17.185       18.824       10.963      295.330      354.341      120.190        0.299        0.038       72.049        8.737        0.015      343.130       19.025      863.957
08/17/2013  00:48:00     -105.594      -64.774      -15.367       27.597       20.052       13.115      761.593      402.070      171.992        0.846        0.067      123.878       11.297        0.008      343.167       19.088      863.972
08/17/2013  00:49:00     -104.402      -43.989       -9.872       25.365       25.662       13.685      643.401      658.521      187.272        0.721        0.074      113.291       10.847        0.009      343.279       19.278      863.991
08/17/2013  00:50:00      -70.109      -17.486       -7.747       14.006       19.384       10.715      196.162      375.740      114.804        0.298        0.034       72.256        5.369        0.006      343.413       19.508      864.007
08/17/2013  00:51:00      -57.669      -43.232        2.823       64.263       38.083       25.600     4129.697     1450.283      655.378        0.572        0.312       72.075       18.092        0.063      343.154       19.066      864.007
08/17/2013  00:52:00     -112.013      -53.857       -3.105       27.175       29.210       17.702      738.502      853.198      313.361        0.868        0.095      124.288       12.836        0.011      343.477       19.615      864.006
08/17/2013  00:53:00      -72.721        3.492       -7.104       25.761       17.113       12.459      663.633      292.839      155.238        0.323        0.056       72.805       11.089        0.023      343.572       19.777      863.974
08/17/2013  00:54:00      -36.622      -29.186        2.626       27.942       17.862       11.369      780.773      319.039      129.247        0.171        0.061       46.830       11.777        0.063      343.492       19.642      863.966
08/17/2013  00:55:00      -35.003      -24.840       -2.420       33.208       23.995       10.163     1102.768      575.757      103.292        0.181        0.089       42.921        8.516        0.039      343.602       19.828      863.971
08/17/2013  00:56:00     -119.312      -89.845        0.298       51.796       50.178       31.225     2682.853     2517.882      974.999        1.424        0.309      149.356       30.388        0.041      343.328       19.363      863.976
08/17/2013  00:57:00      -70.272      -50.172       11.053       61.095       47.599       25.859     3732.619     2265.693      668.680        0.712        0.333       86.344       28.488        0.109      343.359       19.417      863.982
08/17/2013  00:58:00      -30.124      -27.627        4.583       16.872       16.964       11.735      284.673      287.776      137.719        0.120        0.036       40.875        8.947        0.048      343.538       19.720      863.972
08/17/2013  00:59:00      -95.939      -40.787      -10.988       35.733       15.286       10.073     1276.872      233.659      101.460        0.630        0.081      104.248       12.963        0.015      343.645       19.902      863.950
08/17/2013  01:00:00      -95.973      -27.771       -7.973       19.060       23.348       11.172      363.267      545.122      124.820        0.554        0.052       99.910       10.823        0.012      343.548       19.736      863.950
08/17/2013  01:01:00     -122.162      -23.363      -15.440       16.327       17.317        8.771      266.586      299.886       76.924        0.818        0.032      124.376        7.482        0.004      343.438       19.549      863.957
08/17/2013  01:02:00     -108.860      -14.277       -6.648       21.897       16.757       15.408      479.468      280.810      237.414        0.655        0.050      109.792        9.933        0.008      343.373       19.439      863.950
08/17/2013  01:03:00      -99.531       -8.752       -6.370       26.692       17.958       13.478      712.439      322.472      181.656        0.562        0.061       99.915       14.975        0.022      343.448       19.564      863.940
08/17/2013  01:04:00      -90.969      -20.244       -3.825       32.057       28.236       18.699     1027.654      797.257      349.652        0.544        0.109       93.194       17.473        0.035      343.298       19.312      863.928
08/17/2013  01:05:00     -121.784       30.358      -15.545       35.426       30.932       16.647     1254.999      956.768      277.115        0.924        0.124      125.511        9.652        0.006      343.212       19.165      863.926
08/17/2013  01:06:00     -159.349       43.010      -12.461       34.266       24.886       18.894     1174.148      619.334      357.001        1.477        0.108      165.051       12.059        0.005      343.446       19.564      863.920
08/17/2013  01:07:00     -119.193       24.693      -13.173       34.177       23.167       17.584     1168.072      536.696      309.194        0.850        0.101      121.724       16.301        0.018      343.296       19.307      863.912
08/17/2013  01:08:00      -98.818       13.472       -3.234       42.223       28.843       22.843     1782.778      831.918      521.798        0.655        0.157       99.732       20.474        0.042      343.380       19.450      863.914
08/17/2013  01:09:00      -86.660       14.037       -3.925       43.129       29.771       21.449     1860.092      886.300      460.056        0.546        0.160       87.790       23.398        0.071      343.241       19.213      863.933
08/17/2013  01:10:00      -21.785      -30.963       16.202       27.247       27.436       18.608      742.411      752.717      346.259        0.177        0.092       37.859       13.977        0.136      343.081       18.940      863.954
08/17/2013  01:11:00      -51.850      -31.529        2.222       34.400       19.956       16.959     1183.356      398.259      287.601        0.278        0.093       60.684       16.916        0.078      343.133       19.031      863.957
08/17/2013  01:12:00      -18.012      -22.203        4.362       22.400       27.897       16.326      501.739      778.254      266.551        0.119        0.077       28.590       13.708        0.230      343.161       19.078      863.951
08/17/2013  01:13:00      -81.341      -23.881      -10.966       16.020       14.173        8.852      256.653      200.868       78.350        0.392        0.027       84.774       10.114        0.014      343.256       19.240      863.943
08/17/2013  01:14:00      -96.875      -19.738      -17.022       16.269       14.744       12.392      264.666      217.386      153.556        0.535        0.032       98.865        9.832        0.010      343.189       19.125      863.936
08/17/2013  01:15:00      -85.625      -33.466       -2.601       34.499       21.309       14.096     1190.164      454.055      198.688        0.515        0.092       91.933       16.607        0.033      343.179       19.108      863.937
08/17/2013  01:16:00      -70.225      -39.109       -3.033       28.029       21.039       15.314      785.626      442.621      234.518        0.397        0.073       80.380       13.354        0.028      343.077       18.934      863.940
08/17/2013  01:17:00      -83.157      -42.974       -6.204       20.363       14.829       13.055      414.636      219.888      170.440        0.480        0.040       93.605        7.381        0.006      343.085       18.949      863.946
08/17/2013  01:18:00      -32.144      -25.641        6.678       25.430       18.089       17.446      646.675      327.223      304.363        0.151        0.064       41.118       16.416        0.159      343.065       18.914      863.956
08/17/2013  01:19:00      -42.137      -23.489       -0.529       11.748       12.051       10.442      138.004      145.223      109.026        0.136        0.020       48.242        5.598        0.013      343.111       18.993      863.964
08/17/2013  01:20:00      -45.637       -5.381       -2.583       12.909       12.629       10.163      166.647      159.486      103.295        0.127        0.021       45.953        7.130        0.024      343.161       19.077      863.961
08/17/2013  01:21:00      -41.647      -19.993       -5.793       13.700       13.212        8.843      187.684      174.552       78.195        0.130        0.022       46.197        3.870        0.007      343.161       19.079      863.956
08/17/2013  01:22:00      -55.132      -16.279        0.742       10.313        9.869        8.111      106.359       97.400       65.783        0.179        0.013       57.485        5.081        0.008      343.132       19.029      863.957
08/17/2013  01:23:00      -59.449      -34.449       -8.140       12.500       13.750        7.622      156.254      189.051       58.099        0.260        0.020       68.708        2.683        0.002      343.187       19.122      863.974
08/17/2013  01:24:00      -47.381      -22.643       -9.542       18.244       15.861       12.190      332.831      251.571      148.591        0.179        0.037       52.513        9.610        0.033      343.101       18.975      863.992
08/17/2013  01:25:00      -49.525      -33.331       -1.650       25.652       19.774       14.470      658.026      391.006      209.379        0.241        0.063       59.697       13.987        0.055      343.045       18.880      863.999
08/17/2013  01:26:00      -66.657      -16.810       -9.217       13.330       13.644        7.897      177.702      186.159       62.368        0.262        0.021       68.744        4.413        0.004      342.995       18.796      864.002
08/17/2013  01:27:00      -47.143      -22.295      -11.531       10.840        6.631        8.288      117.510       43.975       68.686        0.154        0.012       52.149        5.578        0.011      343.002       18.808      864.014
08/17/2013  01:28:00      -29.813       -1.838       -6.013       12.275       12.990        8.070      150.668      168.728       65.121        0.066        0.019       29.870        7.815        0.068      343.060       18.905      863.999
08/17/2013  01:29:00      -23.481       28.876       -6.074       11.515       19.746        7.521      132.594      389.906       56.571        0.100        0.029       37.218        3.672        0.010      343.191       19.130      863.978
08/17/2013  01:30:00        5.311       59.670       -0.685       20.453       22.874       11.222      418.316      523.238      125.934        0.233        0.053       59.906        9.937        0.028      343.572       19.778      863.959
08/17/2013  01:31:00       10.924       30.500        6.864       23.742       19.752       20.411      563.679      390.152      416.620        0.123        0.069       32.397       11.726        0.131      343.595       19.818      863.942
08/17/2013  01:32:00       13.916       72.201       -1.439       18.131       28.131       18.442      328.745      791.327      340.090        0.343        0.073       73.530       17.255        0.055      343.647       19.907      863.935
08/17/2013  01:33:00       27.252       29.483        2.582       28.693       32.555       19.165      823.299     1059.804      367.295        0.193        0.113       40.149       10.546        0.069      343.184       19.118      863.935
08/17/2013  01:34:00       29.849      -10.071        6.019       16.806       16.671       15.533      282.456      277.932      241.263        0.092        0.040       31.502       12.384        0.155      342.599       18.121      863.939
08/17/2013  01:35:00      -21.928      -14.921       -3.287       24.678       14.563        9.396      609.009      212.078       88.293        0.081        0.045       26.523        6.790        0.066      342.714       18.316      863.944
08/17/2013  01:36:00      -46.947      -24.141       -4.117       24.254       25.470       15.367      588.251      648.733      236.156        0.214        0.074       52.790       11.380        0.046      342.842       18.533      863.946
08/17/2013  01:37:00      -56.131      -14.079       -4.749       28.400       24.306       18.224      806.584      590.772      332.104        0.255        0.086       57.870       16.355        0.080      342.794       18.453      863.940
08/17/2013  01:38:00      -54.258       -7.645      -10.899       18.018       12.925       11.326      324.654      167.064      128.286        0.187        0.031       54.794        9.990        0.033      342.876       18.594      863.943
08/17/2013  01:39:00      -83.569      -32.149      -10.927        8.345        8.513        7.492       69.646       72.473       56.131        0.417        0.010       89.539        4.428        0.002      343.140       19.044      863.934
08/17/2013  01:40:00      -75.030      -10.486      -13.897        7.333        7.026        4.920       53.767       49.363       24.211        0.303        0.006       75.759        2.616        0.001      343.214       19.168      863.927
08/17/2013  01:41:00      -63.149       -4.923       -9.013        9.372        6.786        6.914       87.832       46.056       47.807        0.214        0.009       63.341        5.563        0.008      343.322       19.350      863.916
08/17/2013  01:42:00      -55.393      -10.519       -7.957        8.855       10.908        6.547       78.410      118.995       42.866        0.174        0.012       56.383        3.965        0.005      343.252       19.233      863.908
08/17/2013  01:43:00      -62.759      -28.284       -2.267       10.938        8.657        6.779      119.633       74.935       45.954        0.249        0.012       68.838        4.596        0.004      343.269       19.263      863.909
08/17/2013  01:44:00      -80.665      -17.754      -12.263        8.970       10.947        7.360       80.469      119.827       54.168        0.361        0.013       82.596        5.902        0.005      343.267       19.259      863.900
08/17/2013  01:45:00     -110.866      -34.029      -15.037       15.945       12.043        9.378      254.235      145.032       87.942        0.708        0.024      115.971        8.462        0.005      343.108       18.988      863.900
08/17/2013  01:46:00     -150.312      -36.464      -11.681       21.620       20.312        9.924      467.426      412.596       98.489        1.252        0.049      154.672        3.660        0.001      343.052       18.893      863.902
08/17/2013  01:47:00     -157.027      -58.152        0.070       34.477       28.603       17.544     1188.639      818.153      307.807        1.518        0.116      167.449       18.240        0.012      342.941       18.703      863.914
08/17/2013  01:48:00     -104.088      -50.993        2.583       51.421       44.289       25.782     2644.093     1961.559      664.726        0.935        0.264      115.907       23.468        0.041      342.993       18.792      863.914
08/17/2013  01:49:00     -107.855      -39.749       -6.415       31.848       27.933       18.724     1014.273      780.238      350.593        0.770        0.107      114.946       16.051        0.019      342.931       18.688      863.911
08/17/2013  01:50:00      -99.925      -20.426       -3.391       33.459       22.726       18.323     1119.504      516.485      335.733        0.619        0.099      101.991       18.371        0.032      342.865       18.572      863.907
08/17/2013  01:51:00     -100.977      -35.162       -7.771       25.767       20.125       14.401      663.937      405.017      207.375        0.638        0.064      106.924        6.367        0.004      342.862       18.570      863.901
08/17/2013  01:52:00     -110.631      -43.449       -5.568       19.297       25.872       13.985      372.367      669.374      195.594        0.770        0.062      118.857       11.558        0.009      342.812       18.482      863.884
08/17/2013  01:53:00      -96.991       -4.908       -2.268       29.333       38.126       17.860      860.434     1453.581      318.980        0.603        0.132       97.115       12.726        0.017      342.842       18.534      863.865
08/17/2013  01:54:00     -110.341       34.081      -11.426       45.121       34.008       25.061     2035.867     1156.537      628.049        0.864        0.191      115.484       17.871        0.024      343.114       18.998      863.852
08/17/2013  01:55:00     -144.683       47.246      -14.972       48.543       32.905       24.924     2356.439     1082.770      621.200        1.372        0.203      152.202       18.874        0.015      343.069       18.922      863.841
08/17/2013  01:56:00     -130.067       45.057      -18.217       48.354       33.406       23.666     2338.076     1115.962      560.064        1.165        0.201      137.650       19.700        0.020      343.057       18.902      863.847
08/17/2013  01:57:00      -64.091       41.390       -3.876       42.617       31.006       27.455     1816.203      961.390      753.766        0.468        0.177       76.294       23.000        0.091      343.042       18.876      863.840
08/17/2013  01:58:00      -74.897       32.786       -7.219       29.608       24.481       20.505      876.619      599.312      420.474        0.432        0.095       81.759       15.096        0.034      343.133       19.028      863.827
08/17/2013  01:59:00      -47.354       12.510       -8.984       14.472       24.845       10.843      209.433      617.265      117.578        0.171        0.047       48.978        9.134        0.035      343.126       19.019      863.812
08/17/2013  02:00:00      -43.897      -22.091      -14.641       22.237       24.281       15.814      494.479      589.569      250.078        0.198        0.067       49.143        6.983        0.020      343.278       19.278      863.809
08/17/2013  02:01:00      -78.624      -22.034       -9.332       39.421       29.056       19.610     1554.038      844.259      384.554        0.477        0.139       81.653       10.467        0.016      342.903       18.638      863.798
08/17/2013  02:02:00     -142.177      -68.720       -9.868       27.580       23.013       14.505      760.669      529.601      210.390        1.327        0.075      157.914        8.804        0.003      342.747       18.370      863.797
08/17/2013  02:03:00     -117.741      -61.543        2.171       41.217       32.352       21.291     1698.842     1046.681      453.302        1.043        0.160      132.855       20.489        0.024      342.694       18.282      863.794
08/17/2013  02:04:00     -101.246      -17.509       -2.578       34.795       30.765       17.075     1210.663      946.511      291.563        0.651        0.122      102.749       17.602        0.029      342.746       18.372      863.785
08/17/2013  02:05:00     -113.629       11.172       -7.419       36.387       21.757       15.163     1323.989      473.358      229.914        0.756        0.101      114.177       18.173        0.025      342.974       18.759      863.769
08/17/2013  02:06:00      -89.165       17.170       -8.246       37.939       33.443       20.467     1439.354     1118.451      418.913        0.564        0.149       90.803       15.035        0.027      343.012       18.824      863.780
08/17/2013  02:07:00     -104.791        5.604       -6.874       46.687       37.622       29.499     2179.676     1415.385      870.184        0.776        0.223      104.941       28.311        0.073      342.996       18.798      863.792
08/17/2013  02:08:00     -174.070       37.795      -16.425       40.864       30.856       22.409     1669.837      952.094      502.177        1.756        0.156      178.126       11.451        0.004      342.747       18.372      863.802
08/17/2013  02:09:00     -165.315       47.839      -20.889       32.041       25.551       17.145     1026.605      652.828      293.950        1.601        0.099      172.098       13.959        0.007      342.663       18.230      863.797
08/17/2013  02:10:00     -129.141       54.788      -13.437       52.653       31.146       23.343     2772.358      970.049      544.915        1.207        0.214      140.283       15.136        0.012      342.851       18.550      863.779
08/17/2013  02:11:00      -90.388       64.599      -11.470       35.587       43.900       22.227     1266.414     1927.184      494.032        0.808        0.184      111.099       20.115        0.033      342.848       18.544      863.763
08/17/2013  02:12:00     -111.235      -32.785       -1.132       46.179       44.113       24.506     2132.533     1945.965      600.552        0.906        0.234      115.966       25.861        0.050      342.920       18.667      863.764
08/17/2013  02:13:00     -163.687      -39.831      -12.804       42.001       36.227       18.262     1764.111     1312.420      333.503        1.598        0.171      168.463       16.338        0.009      342.637       18.185      863.766
08/17/2013  02:14:00     -109.359      -25.111      -10.888       41.612       39.861       21.069     1731.595     1588.866      443.911        0.824        0.188      112.205       20.080        0.032      342.521       17.990      863.764
08/17/2013  02:15:00     -146.097        1.891      -13.372       57.147       36.926       28.676     3265.731     1363.551      822.306        1.349        0.273      146.109       28.030        0.037      342.506       17.964      863.756
08/17/2013  02:16:00     -145.723       36.328      -16.606       33.443       31.813       23.800     1118.423     1012.036      566.435        1.276        0.135      150.183       15.061        0.010      342.594       18.114      863.740
08/17/2013  02:17:00     -122.987       13.316      -10.660       31.265       32.774       18.109      977.523     1074.125      327.943        0.890        0.119      123.706       16.087        0.017      342.690       18.276      863.723
08/17/2013  02:18:00     -121.656      -27.026      -10.892       45.417       33.040       21.191     2062.679     1091.627      449.047        0.963        0.180      124.622       12.340        0.010      342.610       18.140      863.720
08/17/2013  02:19:00     -126.472      -13.162      -11.460       39.754       36.252       24.247     1580.366     1314.215      587.940        0.989        0.174      127.155       23.965        0.036      342.475       17.911      863.738
08/17/2013  02:20:00     -156.302        4.988      -18.063       43.151       34.753       23.872     1862.034     1207.769      569.860        1.421        0.182      156.381       25.063        0.026      342.476       17.911      863.754
08/17/2013  02:21:00     -111.803       -9.658       -9.767       48.234       33.614       27.616     2326.531     1129.900      762.622        0.845        0.211      112.219       28.141        0.063      342.477       17.916      863.757
08/17/2013  02:22:00     -170.638        1.882      -17.859       32.484       40.697       18.319     1055.227     1656.248      335.586        1.624        0.152      170.648       14.146        0.007      342.528       18.002      863.752
08/17/2013  02:23:00     -160.741       14.949      -21.506       37.028       24.644       18.077     1371.044      607.342      326.788        1.441        0.115      161.435       14.428        0.008      342.486       17.929      863.743
08/17/2013  02:24:00     -174.624       35.723      -26.731       44.061       23.651       27.211     1941.386      559.349      740.454        1.786        0.162      178.240       27.023        0.023      342.566       18.064      863.721
08/17/2013  02:25:00     -149.544      -22.253      -21.223       45.026       41.391       25.380     2027.307     1713.213      644.135        1.385        0.219      151.191       24.422        0.026      342.528       18.002      863.697
08/17/2013  02:26:00     -108.666      -10.550       -8.974       46.235       32.387       21.754     2137.705     1048.915      473.245        0.783        0.183      109.177       26.687        0.060      342.523       17.992      863.689
08/17/2013  02:27:00     -119.319       -0.686      -14.162       25.579       17.428       16.549      654.284      303.729      273.855        0.783        0.062      119.321       16.656        0.019      342.486       17.929      863.666
08/17/2013  02:28:00     -147.170        5.524      -15.625       32.484       25.237       13.442     1055.212      636.923      180.689        1.190        0.094      147.273       13.678        0.009      342.629       18.173      863.641
08/17/2013  02:29:00     -137.812      -38.973       -9.546       27.461       19.328       17.495      754.088      373.553      306.075        1.102        0.072      143.217       17.184        0.014      342.565       18.065      863.632
08/17/2013  02:30:00     -110.809      -54.737       -3.002       22.741       16.721       15.760      517.171      279.581      248.379        0.816        0.052      123.591       11.568        0.009      342.563       18.060      863.625
08/17/2013  02:31:00      -71.474      -46.057        0.526       32.804       27.901       20.946     1076.130      778.450      438.737        0.476        0.115       85.028       14.940        0.031      342.645       18.198      863.619
08/17/2013  02:32:00      -39.686      -50.258        4.478       29.820       25.409       17.129      889.206      645.634      293.398        0.297        0.091       64.038       15.035        0.055      342.718       18.322      863.613
08/17/2013  02:33:00      -50.692      -43.085        3.741       36.094       25.224       19.832     1302.790      636.269      393.326        0.339        0.117       66.528       18.308        0.076      342.761       18.397      863.605
08/17/2013  02:34:00      -28.033      -51.783       10.919       43.059       40.984       20.002     1854.037     1679.659      400.072        0.376        0.197       58.884       19.636        0.111      342.781       18.430      863.606
08/17/2013  02:35:00      -17.427      -46.810        8.461       38.861       23.169       14.221     1510.202      536.788      202.231        0.241        0.112       49.949       11.988        0.058      342.847       18.543      863.604
08/17/2013  02:36:00      -25.577      -12.802        4.956       23.745       17.339        9.842      563.844      300.647       96.858        0.090        0.048       28.602        2.784        0.009      342.710       18.310      863.594
08/17/2013  02:37:00      -79.520      -25.890       -5.177       19.366       31.634       15.267      375.042     1000.712      233.090        0.431        0.080       83.628       11.945        0.020      342.628       18.169      863.603
08/17/2013  02:38:00     -103.326      -53.841       -8.187       42.318       21.998       15.838     1790.835      483.925      250.837        0.808        0.126      116.513       11.003        0.009      342.586       18.099      863.617
08/17/2013  02:39:00      -49.768      -47.162       -0.720       42.581       25.222       22.933     1813.162      636.134      525.917        0.384        0.149       68.565       22.287        0.106      342.501       17.954      863.630
08/17/2013  02:40:00      -47.331      -38.193        3.982       24.843       23.392       13.596      617.164      547.163      184.860        0.253        0.067       60.819       14.511        0.057      342.514       17.977      863.636
08/17/2013  02:41:00      -35.290      -37.385        8.915       38.839       22.909       20.830     1508.472      524.805      433.869        0.259        0.123       51.410       26.460        0.265      342.542       18.024      863.639
08/17/2013  02:42:00      -63.138      -85.409       -1.343       39.720       41.871       21.318     1577.712     1753.153      454.461        0.753        0.189      106.212       19.776        0.035      342.795       18.454      863.651
08/17/2013  02:43:00      -71.306      -74.749        0.802       41.447       40.172       22.770     1717.842     1613.801      518.494        0.726        0.193      103.305       10.716        0.011      342.838       18.528      863.653
08/17/2013  02:44:00      -78.448      -61.733       12.323       71.689       43.907       33.142     5139.292     1927.812     1098.392        0.914        0.408       99.826       30.198        0.092      342.834       18.521      863.665
08/17/2013  02:45:00     -126.292      -87.140       -6.359       69.910       50.339       30.189     4887.454     2533.967      911.361        1.596        0.417      153.437       30.420        0.039      342.822       18.500      863.686
08/17/2013  02:46:00     -138.452      -73.647       -0.332       51.760       43.912       25.028     2679.105     1928.247      626.421        1.491        0.262      156.821       23.941        0.023      342.744       18.368      863.702
08/17/2013  02:47:00      -78.972      -61.955        2.654       48.226       36.517       26.316     2325.777     1333.460      692.518        0.722        0.218      100.374       25.224        0.063      342.678       18.255      863.702
08/17/2013  02:48:00      -99.399      -83.407       -1.260       36.723       25.318       19.424     1348.611      640.986      377.275        0.960        0.118      129.757       14.390        0.012      342.676       18.252      863.699
08/17/2013  02:49:00      -80.087      -54.260        1.858       56.267       32.969       19.980     3165.971     1086.925      399.206        0.701        0.233       96.737       20.739        0.046      342.661       18.225      863.701
08/17/2013  02:50:00      -83.447      -38.709       -3.919       33.024       57.748       17.914     1090.564     3334.886      320.917        0.661        0.237       91.988       14.214        0.024      342.565       18.064      863.723
08/17/2013  02:51:00      -70.279       26.756       -2.564       43.751       18.647       16.582     1914.164      347.695      274.948        0.410        0.127       75.200       14.747        0.038      342.360       17.716      863.733
08/17/2013  02:52:00     -101.923       -9.322      -11.283       24.954       28.884       12.234      622.696      834.299      149.664        0.610        0.080      102.348       15.190        0.022      342.589       18.104      863.738
08/17/2013  02:53:00      -88.010      -51.248      -10.254       24.511       24.439       16.050      600.798      597.245      257.595        0.597        0.073      101.844        7.242        0.005      342.533       18.009      863.753
08/17/2013  02:54:00      -76.083      -38.017       -0.085       24.013       24.850       17.148      576.647      617.504      294.040        0.436        0.074       85.052       14.488        0.029      342.437       17.847      863.762
08/17/2013  02:55:00      -86.216      -55.049       -2.455       24.986       18.494       11.266      624.278      342.022      126.934        0.578        0.055      102.292       10.065        0.010      342.571       18.073      863.757
08/17/2013  02:56:00      -76.898      -18.586       -1.423       25.173       29.030       13.661      633.695      842.741      186.617        0.396        0.083       79.112       14.288        0.033      342.578       18.085      863.735
08/17/2013  02:57:00      -27.909      -12.425        8.052       26.791       17.386       10.872      717.769      302.281      118.195        0.107        0.057       30.550        9.331        0.093      342.606       18.133      863.707
08/17/2013  02:58:00       -7.489      -19.666        0.872       13.970       17.346       10.506      195.173      300.890      110.380        0.052        0.030       21.044        7.815        0.138      342.721       18.329      863.692
08/17/2013  02:59:00      -11.945       -5.599        4.230       11.487       12.962       11.799      131.952      168.002      139.216        0.032        0.022       13.192       10.910        0.684      342.705       18.302      863.683
08/17/2013  03:00:00      -31.469      -12.768       -5.981       24.710       15.981       11.210      610.561      255.390      125.671        0.109        0.050       33.961       12.745        0.141      342.658       18.221      863.677
08/17/2013  03:01:00      -38.003      -13.951       -7.083       10.897       13.797        8.781      118.749      190.370       77.102        0.104        0.019       40.483        6.066        0.022      342.741       18.363      863.664
08/17/2013  03:02:00       -2.982       -7.640       -3.573       31.510       23.745       13.786      992.862      563.840      190.056        0.091        0.087        8.202        8.673        1.118      342.550       18.037      863.664
08/17/2013  03:03:00       32.921      -31.035       -4.251       19.880       16.905       14.809      395.218      285.770      219.295        0.148        0.045       45.243       11.911        0.069      342.317       17.643      863.659
08/17/2013  03:04:00      -59.413      -25.324        7.017       33.123       17.740       14.698     1097.126      314.699      216.038        0.292        0.081       64.585       18.636        0.083      342.481       17.920      863.659
08/17/2013  03:05:00      -99.171      -38.568       -2.418       20.680       23.890       14.837      427.661      570.746      220.134        0.627        0.061      106.407        8.340        0.006      342.439       17.848      863.671
08/17/2013  03:06:00      -47.427      -29.634        5.091       35.628       23.926       17.469     1269.379      572.436      305.165        0.265        0.107       55.924       16.618        0.088      342.421       17.819      863.690
08/17/2013  03:07:00      -29.445      -10.049        7.584       25.306       12.642       12.409      640.369      159.831      153.985        0.099        0.048       31.112       15.401        0.245      342.402       17.786      863.680
08/17/2013  03:08:00       14.729        0.387       -2.190       13.022       12.442       19.052      169.579      154.815      362.992        0.045        0.034       14.734       11.689        0.629      342.343       17.687      863.671
08/17/2013  03:09:00       18.705      -19.808      -11.486       17.108       19.908       16.229      292.688      396.343      263.382        0.091        0.048       27.244        7.828        0.083      342.324       17.655      863.663
08/17/2013  03:10:00      -13.081      -23.322        0.369       22.829        8.718       11.303      521.164       76.008      127.757        0.072        0.036       26.740        3.718        0.019      342.444       17.857      863.651
08/17/2013  03:11:00      -69.412      -42.884       -7.054       19.702       13.078       10.693      388.177      171.027      114.350        0.369        0.034       81.590        5.839        0.005      342.468       17.899      863.653
08/17/2013  03:12:00      -86.072      -36.233       -4.950       22.183       14.601       12.942      492.098      213.191      167.503        0.481        0.044       93.388        7.469        0.006      342.449       17.867      863.662
08/17/2013  03:13:00      -84.853      -57.999       -3.625       26.864       20.645       17.156      721.698      426.226      294.338        0.601        0.072      102.781       15.898        0.024      342.491       17.940      863.664
08/17/2013  03:14:00      -92.434      -48.055       -5.321       15.785       14.543       13.487      249.153      211.502      181.901        0.576        0.032      104.179        9.433        0.008      342.534       18.011      863.670
08/17/2013  03:15:00      -92.987      -56.761       -8.093       27.879       18.314       11.777      777.216      335.414      138.690        0.659        0.063      108.942        8.399        0.006      342.570       18.072      863.667
08/17/2013  03:16:00      -77.778      -45.009       -2.847       28.118       26.596       15.566      790.646      707.343      242.315        0.491        0.087       89.863       16.236        0.033      342.471       17.904      863.673
08/17/2013  03:17:00     -113.609      -46.435       -7.479       21.300       20.591       11.944      453.710      424.009      142.653        0.807        0.051      122.732        5.886        0.002      342.436       17.844      863.671
08/17/2013  03:18:00     -120.497      -37.063       -0.335       17.656       19.960       12.800      311.727      398.387      163.835        0.838        0.044      126.068        9.952        0.006      342.396       17.778      863.680
08/17/2013  03:19:00     -115.139      -11.804       -3.937       33.511       22.521       18.057     1123.018      507.207      326.044        0.768        0.098      115.743       18.334        0.025      342.340       17.681      863.688
08/17/2013  03:20:00      -93.535       -9.975       -5.028       28.575       22.674       15.887      816.541      514.104      252.385        0.523        0.079       94.065       13.355        0.020      342.265       17.552      863.696
08/17/2013  03:21:00      -96.159        7.324       -4.528       23.877       21.303       13.265      570.100      453.836      175.960        0.526        0.060       96.438       12.418        0.017      342.416       17.810      863.692
08/17/2013  03:22:00      -91.849       15.801       -4.422       13.338       14.802        8.269      177.908      219.106       68.382        0.459        0.023       93.198        5.914        0.004      342.492       17.937      863.685
08/17/2013  03:23:00      -59.361       -4.669       -7.758       20.449       13.736        6.959      418.147      188.679       48.426        0.213        0.033       59.544        4.861        0.007      342.608       18.137      863.678
08/17/2013  03:24:00      -32.303      -17.879      -11.491       13.771       14.215        8.719      189.639      202.073       76.019        0.098        0.023       36.921        8.050        0.048      342.687       18.270      863.672
08/17/2013  03:25:00      -59.258      -27.192       -9.988       13.884       13.218        9.405      192.754      174.716       88.449        0.240        0.023       65.199        3.210        0.002      342.590       18.105      863.682
08/17/2013  03:26:00     -101.083      -44.776      -11.583       21.728       23.685       14.832      472.125      560.963      219.980        0.680        0.063      110.556        9.879        0.008      342.329       17.663      863.695
08/17/2013  03:27:00     -107.816      -57.699       -3.632       36.931       25.869       18.421     1363.898      669.197      339.324        0.867        0.119      122.284       12.428        0.010      342.142       17.344      863.694
08/17/2013  03:28:00     -113.025      -49.959       -8.466       24.271       18.086       12.005      589.074      327.095      144.128        0.820        0.053      123.574        5.489        0.002      342.139       17.341      863.692
08/17/2013  03:29:00      -75.339      -28.517       -3.652       26.106       28.203       15.181      681.502      795.398      230.474        0.410        0.085       80.555       12.521        0.024      342.192       17.430      863.684
08/17/2013  03:30:00      -58.839      -21.668       -8.749       14.495       12.239        8.796      210.104      149.786       77.364        0.222        0.022       62.702        7.768        0.015      342.309       17.629      863.667
08/17/2013  03:31:00      -49.817      -22.108       -2.206       18.792       16.452       13.648      353.147      270.677      186.257        0.189        0.041       54.502       10.837        0.040      342.377       17.743      863.655
08/17/2013  03:32:00      -29.832      -15.671       -0.321       19.958       19.665       12.679      398.312      386.699      160.749        0.104        0.047       33.697       14.474        0.184      342.269       17.560      863.651
08/17/2013  03:33:00      -74.101      -19.727       -2.474       19.793       21.025       12.483      391.768      442.047      155.820        0.344        0.049       76.681        7.932        0.011      342.376       17.743      863.653
08/17/2013  03:34:00     -110.364       -3.970      -10.243       35.875       36.557       21.763     1287.020     1336.421      473.619        0.770        0.155      110.436       21.110        0.037      342.294       17.603      863.671
08/17/2013  03:35:00     -156.923       40.591      -10.711       42.093       33.685       25.324     1771.829     1134.649      641.313        1.497        0.177      162.088       18.961        0.014      342.390       17.766      863.681
08/17/2013  03:36:00     -178.788       44.316      -13.403       47.299       29.451       25.934     2237.226      867.351      672.592        1.894        0.189      184.198       25.044        0.018      342.384       17.753      863.683
08/17/2013  03:37:00     -176.921       10.401      -17.339       51.516       34.398       22.428     2653.930     1183.199      503.030        1.802        0.217      177.226       22.228        0.016      342.464       17.889      863.699
08/17/2013  03:38:00     -158.453      -20.085      -16.514       38.552       30.162       21.230     1486.263      909.720      450.729        1.431        0.142      159.721       21.236        0.018      342.390       17.766      863.706
08/17/2013  03:39:00     -134.305      -18.274      -20.028       37.650       29.124       22.900     1417.553      848.218      524.428        1.078        0.140      135.542       18.662        0.019      342.415       17.807      863.705
08/17/2013  03:40:00     -100.308      -20.246       -2.951       36.673       21.436       19.231     1344.941      459.505      369.840        0.633        0.109      102.331       18.686        0.033      342.367       17.728      863.689
08/17/2013  03:41:00      -91.349      -38.953       -5.116       46.179       23.029       14.011     2132.543      530.354      196.301        0.637        0.143       99.308       17.078        0.030      342.312       17.633      863.677
08/17/2013  03:42:00     -110.503      -37.522       -9.678       24.317       22.082       14.569      591.304      487.606      212.247        0.750        0.065      116.700        4.557        0.002      342.298       17.610      863.682
08/17/2013  03:43:00     -110.975        5.030        1.724       55.927       39.697       27.276     3127.820     1575.831      743.977        0.889        0.272      111.089       29.860        0.072      342.259       17.543      863.692
08/17/2013  03:44:00     -185.531       35.007      -16.157       41.494       42.791       28.124     1721.729     1831.068      790.954        2.013        0.217      188.805       23.945        0.016      342.464       17.891      863.689
08/17/2013  03:45:00     -187.281       19.340      -21.465       24.249       28.840       17.782      587.999      831.739      316.212        1.882        0.087      188.277       10.164        0.003      342.495       17.944      863.685
08/17/2013  03:46:00     -166.362       24.110      -17.931       35.472       27.530       19.302     1258.265      757.918      372.574        1.548        0.119      168.100       16.975        0.010      342.553       18.042      863.694
08/17/2013  03:47:00     -166.561       22.492      -18.855       45.370       28.865       20.583     2058.463      833.182      423.652        1.596        0.166      168.073       19.009        0.013      342.581       18.090      863.702
08/17/2013  03:48:00     -169.709       58.767      -15.764       38.493       33.083       21.078     1481.696     1094.462      444.273        1.776        0.151      179.596       15.316        0.007      342.601       18.124      863.694
08/17/2013  03:49:00     -189.053       84.295      -16.244       55.475       38.880       31.782     3077.494     1511.653     1010.095        2.435        0.280      206.994       26.285        0.016      342.557       18.048      863.686
08/17/2013  03:50:00     -154.558       49.477      -15.037       45.127       37.578       26.691     2036.484     1412.074      712.411        1.536        0.208      162.284       21.293        0.017      342.518       17.982      863.694
08/17/2013  03:51:00     -171.463        4.402      -31.261       44.293       59.189       26.375     1961.890     3503.349      695.657        1.828        0.308      171.519       22.471        0.017      342.536       18.011      863.707
08/17/2013  03:52:00     -114.879      -26.888      -14.504       41.479       31.357       26.287     1720.519      983.249      690.988        0.876        0.170      117.983       23.607        0.040      342.448       17.866      863.731
08/17/2013  03:53:00      -93.791      -36.165       -8.567       40.311       33.292       25.572     1624.948     1108.368      653.907        0.678        0.169      100.522       19.720        0.038      342.460       17.884      863.753
08/17/2013  03:54:00      -21.022        4.623        8.286       28.983       38.818       20.001      840.000     1506.815      400.032        0.164        0.137       21.525       17.728        0.678      342.247       17.523      863.767
08/17/2013  03:55:00       12.918      -18.740        9.974       42.037       28.554       16.036     1767.075      815.310      257.144        0.173        0.142       22.761       10.981        0.233      342.056       17.198      863.770
08/17/2013  03:56:00      -49.320      -21.942       -5.693       16.955       16.964       15.054      287.471      287.783      226.627        0.187        0.040       53.981        6.101        0.013      342.380       17.750      863.783
08/17/2013  03:57:00      -43.293      -34.602       -4.317       36.373       29.961       15.184     1322.989      897.680      230.567        0.277        0.123       55.422        6.365        0.013      342.396       17.777      863.795
08/17/2013  03:58:00      -43.095      -34.406       -0.013       35.021       26.332       18.559     1226.455      693.375      344.450        0.265        0.113       55.145       16.330        0.088      342.383       17.754      863.803
08/17/2013  03:59:00      -44.100      -34.533        7.255       44.961       20.113       21.615     2021.462      404.527      467.201        0.304        0.145       56.012       22.993        0.169      342.413       17.805      863.819
08/17/2013  04:00:00      -62.754      -45.677        7.968       74.331       37.858       26.506     5525.088     1433.226      702.551        0.687        0.383       77.617       38.520        0.246      342.470       17.903      863.836
08/17/2013  04:01:00      -64.330      -46.591        6.269       62.750       33.973       25.651     3937.530     1154.168      657.970        0.605        0.287       79.429       22.717        0.082      342.468       17.899      863.844
08/17/2013  04:02:00      -71.686      -52.724        4.949       42.436       31.057       25.601     1800.797      964.525      655.436        0.568        0.171       88.987       20.304        0.052      342.377       17.743      863.853
08/17/2013  04:03:00      -74.350      -60.021        8.767       51.819       49.962       23.654     2685.237     2496.199      559.508        0.747        0.287       95.554       26.379        0.076      342.311       17.630      863.850
08/17/2013  04:04:00     -125.264     -103.447       -1.118       43.881       38.872       25.808     1925.536     1511.054      666.044        1.525        0.205      162.457       27.883        0.029      342.236       17.504      863.856
08/17/2013  04:05:00     -110.203      -88.295        4.438       53.611       48.694       29.695     2874.121     2371.074      881.811        1.304        0.306      141.212       26.768        0.036      342.239       17.510      863.866
08/17/2013  04:06:00     -119.634      -94.364        1.210       50.748       46.271       30.667     2575.356     2140.981      940.450        1.444        0.283      152.371       29.317        0.037      342.347       17.693      863.870
08/17/2013  04:07:00     -100.873      -81.557        3.052       50.235       41.661       25.476     2523.562     1735.627      649.032        1.087        0.245      129.718       25.449        0.038      342.362       17.718      863.869
08/17/2013  04:08:00     -102.567      -62.488        2.798       41.871       40.756       21.558     1753.183     1661.073      464.750        0.916        0.194      120.103       17.383        0.021      342.366       17.725      863.875
08/17/2013  04:09:00      -84.034      -72.269        2.536       37.859       30.613       20.440     1433.294      937.176      417.786        0.754        0.139      110.836        9.222        0.007      342.362       17.718      863.875
08/17/2013  04:10:00      -80.002      -58.501        9.394       48.882       44.868       32.454     2389.466     2013.107     1053.238        0.768        0.273       99.109       33.432        0.114      342.307       17.625      863.877
08/17/2013  04:11:00      -68.104      -52.239        4.152       48.214       42.608       24.084     2324.633     1815.477      580.027        0.605        0.236       85.832       26.990        0.099      342.328       17.660      863.883
08/17/2013  04:12:00      -59.095      -58.107       -1.068       46.293       29.496       24.895     2143.061      870.019      619.766        0.525        0.182       82.877       26.512        0.102      342.419       17.815      863.883
08/17/2013  04:13:00      -59.530      -57.963        4.157       42.699       37.737       21.121     1823.171     1424.080      446.106        0.531        0.185       83.087       17.055        0.042      342.489       17.936      863.880
08/17/2013  04:14:00      -54.290      -48.700        6.359       40.603       28.991       22.577     1648.573      840.475      509.715        0.418        0.150       72.932       18.203        0.062      342.550       18.037      863.882
08/17/2013  04:15:00      -46.663      -36.522        3.192       28.812       21.538       17.217      830.145      463.884      296.439        0.256        0.080       59.256       10.657        0.032      342.531       18.006      863.879
08/17/2013  04:16:00      -82.504      -40.036      -10.334       14.467       20.863       13.902      209.303      435.251      193.275        0.468        0.042       91.705        6.954        0.006      342.562       18.060      863.875
08/17/2013  04:17:00      -32.862      -21.141        8.884       30.090       22.691       17.489      905.430      514.898      305.855        0.167        0.086       39.075       20.830        0.284      342.446       17.862      863.884
08/17/2013  04:18:00      -77.322       -4.555       -5.572       15.473       14.001       11.047      239.411      196.041      122.044        0.329        0.028       77.456        9.734        0.016      342.479       17.916      863.880
08/17/2013  04:19:00      -78.712       -8.147       -4.561       29.654       20.249       13.136      879.387      410.014      172.548        0.387        0.073       79.133       11.582        0.021      342.447       17.862      863.864
08/17/2013  04:20:00      -89.467       -5.379       -1.230       42.081       23.471       18.474     1770.834      550.873      341.292        0.535        0.133       89.628       22.812        0.065      342.414       17.807      863.846
08/17/2013  04:21:00      -94.162      -12.912       -7.729       26.908       21.790       16.030      724.024      474.807      256.962        0.527        0.073       95.043       15.800        0.028      342.385       17.757      863.833
08/17/2013  04:22:00      -94.854      -13.666       -2.903       20.425       17.255       14.687      417.196      297.748      215.713        0.506        0.047       95.834       10.035        0.011      342.347       17.692      863.819
08/17/2013  04:23:00     -100.907      -26.813       -3.192       31.712       19.617       14.232     1005.636      384.821      202.562        0.625        0.080      104.409       14.028        0.018      342.343       17.686      863.810
08/17/2013  04:24:00      -85.341      -48.957       -6.019       22.638       20.678       18.206      512.492      427.591      331.456        0.549        0.064       98.386       11.786        0.014      342.236       17.504      863.808
08/17/2013  04:25:00      -93.073      -62.306       -2.714       32.901       27.914       18.118     1082.468      779.165      328.259        0.737        0.109      112.003       13.805        0.015      342.235       17.501      863.804
08/17/2013  04:26:00      -87.584      -50.073       -0.425       37.707       20.842       17.055     1421.842      434.379      290.877        0.616        0.107      100.887       11.020        0.012      342.266       17.556      863.800
08/17/2013  04:27:00      -91.383      -39.890       -7.680       29.395       24.429       16.673      864.057      596.791      277.978        0.587        0.087       99.710       10.256        0.011      342.295       17.603      863.799
08/17/2013  04:28:00     -115.014      -41.181        0.020       35.603       21.990       17.155     1267.563      483.571      294.289        0.848        0.102      122.165       15.733        0.017      342.221       17.479      863.811
08/17/2013  04:29:00     -112.125      -38.600       -6.705       18.165       18.241       11.954      329.972      332.719      142.905        0.746        0.040      118.583       12.194        0.011      342.186       17.418      863.819
08/17/2013  04:30:00     -113.797      -27.513       -8.131       21.217       22.103       14.216      450.181      488.523      202.106        0.746        0.057      117.076       10.140        0.008      342.164       17.382      863.825
08/17/2013  04:31:00     -104.314      -64.950        2.018       32.048       30.598       22.796     1027.052      936.210      519.642        0.879        0.124      122.882       24.040        0.038      342.098       17.271      863.831
08/17/2013  04:32:00     -107.936      -66.544        0.872       33.542       27.562       16.896     1125.037      759.650      285.479        0.912        0.109      126.800       10.733        0.007      342.150       17.358      863.845
08/17/2013  04:33:00      -43.345      -59.986        9.325       44.987       33.291       22.112     2023.824     1108.300      488.956        0.459        0.181       74.007       27.197        0.135      342.081       17.242      863.854
08/17/2013  04:34:00     -127.981      -87.675       -4.920       35.783       31.394       21.822     1280.406      985.598      476.200        1.342        0.137      155.132        8.483        0.003      342.065       17.213      863.848
08/17/2013  04:35:00      -71.521      -77.261        7.497       43.005       46.293       29.355     1849.453     2142.997      861.707        0.800        0.243      105.283       27.599        0.069      342.004       17.111      863.859
08/17/2013  04:36:00      -75.676      -83.071        1.410       45.042       36.918       29.629     2028.794     1362.940      877.875        0.845        0.213      112.373       21.088        0.035      341.938       16.999      863.867
08/17/2013  04:37:00     -104.420      -65.405      -12.555       28.047       33.440       20.214      786.631     1118.219      408.598        0.883        0.116      123.212        9.678        0.006      341.948       17.015      863.856
08/17/2013  04:38:00      -80.865      -30.328        2.701       38.765       30.095       18.214     1502.747      905.708      331.756        0.510        0.137       86.365       14.009        0.026      341.970       17.052      863.851
08/17/2013  04:39:00      -62.000      -45.331        3.341       46.025       28.487       24.806     2118.299      811.509      615.361        0.473        0.177       76.804       22.514        0.086      342.006       17.114      863.867
08/17/2013  04:40:00      -39.704      -32.496        4.220       29.320       26.249       17.613      859.685      688.988      310.230        0.225        0.093       51.307       15.365        0.090      342.001       17.107      863.889
08/17/2013  04:41:00      -81.132      -97.573        5.122       61.339       43.655       25.668     3762.454     1905.745      658.824        1.123        0.316      126.897       30.413        0.057      341.928       16.981      863.898
08/17/2013  04:42:00      -95.489      -74.190        2.728       59.242       52.025       26.947     3509.661     2706.627      726.139        1.078        0.347      120.923       28.249        0.055      341.857       16.862      863.887
08/17/2013  04:43:00     -125.893      -67.662       -3.525       36.359       31.030       18.846     1321.950      962.874      355.180        1.154        0.132      142.924       16.516        0.013      341.968       17.050      863.868
08/17/2013  04:44:00     -107.065      -39.730       -2.093       27.386       22.745       15.443      749.968      517.326      238.479        0.728        0.075      114.199       16.128        0.020      341.865       16.873      863.859
08/17/2013  04:45:00     -121.085      -37.244       -6.243       22.149       25.819       15.376      490.579      666.634      236.427        0.874        0.070      126.683        9.930        0.006      341.870       16.882      863.846
08/17/2013  04:46:00     -129.590      -31.534       -5.945       23.516       18.363       12.203      553.018      337.201      148.910        0.943        0.052      133.371        7.131        0.003      341.883       16.905      863.837
08/17/2013  04:47:00      -97.949      -35.662       -2.738       29.417       31.467       16.015      865.378      990.157      256.486        0.649        0.106      104.239        8.882        0.007      341.861       16.868      863.834
08/17/2013  04:48:00      -74.962      -50.434        4.912       54.804       27.948       17.386     3003.465      781.117      302.256        0.614        0.204       90.349       17.582        0.038      341.886       16.910      863.833
08/17/2013  04:49:00      -42.315      -49.224       16.415       63.211       46.051       31.273     3995.667     2120.683      978.011        0.579        0.355       64.912       37.926        0.341      341.842       16.834      863.835
08/17/2013  04:50:00     -132.146      -75.639       -1.192       56.515       44.415       27.341     3193.902     1972.728      747.509        1.455        0.296      152.262       29.427        0.037      341.827       16.810      863.845
08/17/2013  04:51:00     -123.568      -95.033       -6.837       35.145       31.222       22.291     1235.160      974.812      496.898        1.353        0.135      155.886       20.634        0.018      341.803       16.769      863.866
08/17/2013  04:52:00      -94.361      -89.520       -6.340       36.949       39.298       22.004     1365.206     1544.359      484.171        1.018        0.170      130.069       22.633        0.030      341.766       16.706      863.861
08/17/2013  04:53:00      -92.315      -71.814       -6.610       54.371       45.611       23.618     2956.208     2080.377      557.808        0.966        0.280      116.959       27.891        0.057      341.772       16.717      863.854
08/17/2013  04:54:00      -95.154      -59.692       -3.803       39.023       24.485       17.289     1522.797      599.515      298.913        0.753        0.121      112.328       15.796        0.020      341.841       16.833      863.837
08/17/2013  04:55:00      -97.971      -51.686       -3.201       24.512       17.240       12.893      600.840      297.232      166.228        0.667        0.053      110.769       10.431        0.009      341.828       16.811      863.839
08/17/2013  04:56:00     -102.754      -27.607       -3.738       15.528       15.665        8.716      241.122      245.391       75.970        0.595        0.028      106.397        7.589        0.005      341.801       16.766      863.834
08/17/2013  04:57:00      -88.115      -50.431       -0.603       25.562       22.659       13.128      653.438      513.414      172.356        0.582        0.067      101.526       14.081        0.019      341.797       16.760      863.833
08/17/2013  04:58:00      -59.023      -31.710        2.149       46.441       26.420       19.357     2156.786      698.041      374.685        0.386        0.161       67.002       21.977        0.108      341.747       16.675      863.835
08/17/2013  04:59:00       -5.720      -20.836       10.356       36.878       25.797       28.127     1360.010      665.473      791.107        0.169        0.141       21.607       20.108        0.866      341.749       16.676      863.849
08/17/2013  05:00:00     -117.528     -104.626      -10.146       35.794       29.499       25.973     1281.199      870.209      674.617        1.384        0.141      157.351       19.067        0.015      341.749       16.677      863.859
08/17/2013  05:01:00     -106.757      -85.909        3.417       47.219       47.234       30.450     2229.661     2231.044      927.232        1.209        0.269      137.031       28.107        0.042      341.817       16.793      863.864
08/17/2013  05:02:00     -130.888     -104.205       -4.744       48.930       44.330       34.064     2394.175     1965.159     1160.326        1.677        0.276      167.304       28.803        0.030      341.758       16.692      863.861
08/17/2013  05:03:00     -129.217      -74.968        2.366       45.666       36.123       27.156     2085.387     1304.840      737.472        1.322        0.206      149.390       29.440        0.039      341.698       16.592      863.852
08/17/2013  05:04:00      -96.016      -34.887       -6.896       31.380       24.758       14.806      984.676      612.956      219.225        0.615        0.091      102.157       14.684        0.021      341.735       16.654      863.838
08/17/2013  05:05:00      -53.217      -45.121       -5.331       25.377       17.059       15.458      644.015      291.000      238.963        0.303        0.059       69.771       13.923        0.040      341.770       16.712      863.837
08/17/2013  05:06:00      -63.492      -62.822        2.039       61.074       47.232       28.927     3729.992     2230.817      836.746        0.739        0.340       89.318       23.160        0.067      341.761       16.698      863.832
08/17/2013  05:07:00     -109.985      -60.465       -3.993       74.462       54.720       40.583     5544.603     2994.225     1646.986        1.298        0.509      125.509       36.451        0.084      341.663       16.532      863.828
08/17/2013  05:08:00     -156.615      -99.303       -9.962       59.132       48.532       35.625     3496.580     2355.333     1269.128        2.080        0.356      185.444       28.506        0.024      341.716       16.620      863.820
08/17/2013  05:09:00     -147.187     -115.439       -6.549       64.144       42.680       35.204     4114.492     1821.572     1239.312        2.110        0.359      187.057       33.592        0.032      341.670       16.541      863.816
08/17/2013  05:10:00     -119.757      -96.257        6.752       72.058       42.439       30.003     5192.293     1801.095      900.170        1.577        0.395      153.646       29.183        0.036      341.699       16.592      863.833
08/17/2013  05:11:00     -112.349      -91.040        2.291       48.463       43.864       29.058     2348.685     1924.089      844.380        1.302        0.256      144.605       25.340        0.031      341.705       16.602      863.836
08/17/2013  05:12:00      -67.054      -65.422       13.188       48.478       40.046       31.516     2350.145     1603.699      993.272        0.695        0.247       93.681       32.575        0.121      341.681       16.563      863.847
08/17/2013  05:13:00     -179.402     -111.656      -11.819       33.125       39.173       20.081     1097.272     1534.561      403.260        2.391        0.152      211.311       15.089        0.005      341.775       16.720      863.857
08/17/2013  05:14:00     -160.876      -82.458        0.443       35.337       33.043       22.930     1248.709     1091.864      525.797        1.777        0.143      180.778       20.398        0.013      341.772       16.716      863.870
08/17/2013  05:15:00     -140.737      -56.158        3.301       38.475       36.199       22.674     1480.308     1310.387      514.111        1.314        0.165      151.528       19.669        0.017      341.749       16.678      863.876
08/17/2013  05:16:00     -156.400      -83.322       -5.632       51.848       35.352       22.651     2688.173     1249.762      513.070        1.794        0.223      177.211       24.409        0.019      341.785       16.738      863.884
08/17/2013  05:17:00     -129.839      -44.081       -4.860       27.240       34.411       19.652      742.016     1184.103      386.209        1.057        0.116      137.118       15.206        0.012      341.736       16.657      863.882
08/17/2013  05:18:00      -44.816      -39.778       11.986       51.292       30.404       23.126     2630.868      924.400      534.822        0.391        0.205       59.923       21.675        0.131      341.682       16.565      863.884
08/17/2013  05:19:00      -91.778      -44.874       -7.221       30.951       26.834       16.360      957.973      720.044      267.651        0.622        0.097      102.161       10.830        0.011      341.678       16.558      863.880
08/17/2013  05:20:00      -52.593      -69.071       -2.409       33.076       47.262       17.431     1093.998     2233.666      303.827        0.559        0.182       86.815       19.781        0.052      341.667       16.538      863.875
08/17/2013  05:21:00      -56.453      -50.783        3.959       36.592       22.125       17.761     1338.980      489.508      315.461        0.396        0.107       75.934       19.036        0.063      341.668       16.541      863.858
08/17/2013  05:22:00      -37.259      -39.606       11.039       31.474       21.880       18.156      990.609      478.756      329.656        0.244        0.090       54.377       15.650        0.083      341.654       16.517      863.842
08/17/2013  05:23:00      -79.014      -29.188       -3.530       24.252       18.375       14.432      588.144      337.643      208.292        0.412        0.057       84.233       15.167        0.032      341.598       16.421      863.841
08/17/2013  05:24:00      -78.135      -30.698       -5.177       22.060       26.874        9.585      486.661      722.202       91.870        0.419        0.065       83.949        6.816        0.007      341.620       16.460      863.826
08/17/2013  05:25:00      -60.955       17.303       -2.467       25.109       12.117       11.687      630.478      146.832      136.589        0.247        0.046       63.363        9.651        0.023      341.487       16.234      863.803
08/17/2013  05:26:00      -77.652       10.155       -9.115       31.527       21.559       12.005      993.936      464.781      144.131        0.391        0.080       78.313       12.686        0.026      341.515       16.280      863.787
08/17/2013  05:27:00     -103.563      -39.582       -6.142       24.558       13.946       11.889      603.094      194.480      141.348        0.663        0.047      110.870       10.225        0.009      341.551       16.341      863.792
08/17/2013  05:28:00      -78.023      -68.068        5.258       49.257       32.048       24.939     2426.204     1027.081      621.947        0.741        0.204      103.541       21.336        0.042      341.540       16.323      863.813
08/17/2013  05:29:00      -70.482      -52.114       10.387       62.038       49.233       36.607     3848.660     2423.870     1340.080        0.770        0.381       87.656       33.318        0.144      341.444       16.161      863.836
08/17/2013  05:30:00     -141.432      -80.327       -3.919       52.142       48.882       34.108     2718.803     2389.497     1163.358        1.637        0.314      162.652       34.213        0.044      341.564       16.363      863.841
08/17/2013  05:31:00     -124.297      -75.494       -1.244       34.298       42.809       26.705     1176.333     1832.608      713.168        1.244        0.186      145.427       18.862        0.017      341.562       16.361      863.842
08/17/2013  05:32:00     -111.205      -95.294       -3.735       39.658       30.779       20.236     1572.721      947.340      409.477        1.219        0.146      146.449       11.670        0.006      341.566       16.369      863.851
08/17/2013  05:33:00      -83.758      -53.088        5.071       50.124       31.664       24.848     2512.400     1002.629      617.419        0.700        0.207       99.165       22.824        0.053      341.524       16.297      863.871
08/17/2013  05:34:00     -138.055      -82.081       -3.346       67.812       42.323       38.404     4598.428     1791.256     1474.891        1.683        0.393      160.613       40.005        0.062      341.596       16.416      863.890
08/17/2013  05:35:00     -167.247      -84.292       -6.231       59.648       39.608       28.614     3557.845     1568.768      818.749        2.053        0.297      187.288       29.612        0.025      341.559       16.353      863.884
08/17/2013  05:36:00     -116.648      -77.098      -11.366       51.355       36.711       25.984     2637.323     1347.723      675.191        1.217        0.233      139.825       26.905        0.037      341.569       16.370      863.866
08/17/2013  05:37:00      -78.021      -52.290        1.134       47.100       31.282       21.192     2218.411      978.576      449.093        0.623        0.182       93.923       18.297        0.038      341.582       16.394      863.865
08/17/2013  05:38:00      -97.632      -59.096        0.015       62.249       38.879       29.527     3874.991     1511.567      871.856        0.964        0.313      114.124       37.559        0.108      341.529       16.303      863.881
08/17/2013  05:39:00     -109.567      -94.800       10.257       73.471       69.715       34.813     5397.962     4860.235     1211.974        1.628        0.574      144.886       39.186        0.073      341.494       16.244      863.892
08/17/2013  05:40:00     -151.945      -92.296        9.566       85.498       73.627       38.362     7309.955     5420.905     1471.637        2.295        0.710      177.780       42.896        0.058      341.510       16.269      863.894
08/17/2013  05:41:00     -117.820      -71.927       -0.417       63.984       53.122       26.016     4093.915     2821.926      676.808        1.332        0.380      138.040       33.014        0.057      341.481       16.222      863.895
08/17/2013  05:42:00      -63.789      -60.239       -3.623       37.195       23.014       18.470     1383.489      529.641      341.134        0.498        0.113       87.737       14.501        0.027      341.467       16.200      863.899
08/17/2013  05:43:00      -50.293      -54.524       -0.491       25.056       21.637       16.290      627.779      468.146      265.372        0.343        0.068       74.177       14.537        0.038      341.496       16.247      863.889
08/17/2013  05:44:00      -57.533      -54.722       -2.434       35.572       28.210       19.869     1265.366      795.786      394.778        0.438        0.123       79.401       21.275        0.072      341.547       16.335      863.893
08/17/2013  05:45:00      -15.297      -34.037       13.791       52.943       27.757       25.677     2803.003      770.447      659.319        0.291        0.212       37.316       24.521        0.432      341.479       16.220      863.925
08/17/2013  05:46:00      -97.755      -85.823        8.537       58.140       55.904       29.487     3380.251     3125.273      869.501        1.218        0.369      130.083       30.248        0.054      341.492       16.242      863.950
08/17/2013  05:47:00     -153.611     -108.982       -1.238       54.956       49.228       30.895     3020.214     2423.443      954.520        2.094        0.320      188.344       25.505        0.018      341.527       16.300      863.956
08/17/2013  05:48:00     -132.060      -94.849       -1.078       58.225       36.509       30.416     3390.138     1332.943      925.157        1.604        0.282      162.592       31.041        0.036      341.512       16.275      863.959
08/17/2013  05:49:00      -97.643      -68.823       -4.454       28.337       29.104       22.785      803.005      847.025      519.164        0.823        0.108      119.460       19.333        0.026      341.509       16.270      863.948
08/17/2013  05:50:00      -86.632      -41.748       -1.285       32.730       19.524       14.353     1071.247      381.182      206.014        0.545        0.083       96.166       15.648        0.026      341.503       16.259      863.955
08/17/2013  05:51:00      -42.903      -34.063        2.243       54.495       17.994       14.990     2969.680      323.770      224.686        0.326        0.176       54.781       18.735        0.117      341.530       16.306      863.957
08/17/2013  05:52:00       -8.349      -46.489       12.522       30.219       23.654       25.053      913.161      559.520      627.642        0.224        0.105       47.233       22.248        0.222      341.542       16.325      863.955
08/17/2013  05:53:00      -50.207      -57.331        0.411       30.517       26.325       15.487      931.281      693.005      239.837        0.384        0.093       76.207       11.738        0.024      341.589       16.405      863.962
08/17/2013  05:54:00      -28.302      -40.050        7.918       35.182       32.603       19.082     1237.738     1062.985      364.133        0.257        0.133       49.041       23.778        0.235      341.611       16.442      863.969
08/17/2013  05:55:00      -19.793      -24.904        3.023       22.555       21.077       11.760      508.744      444.248      138.309        0.106        0.055       31.811       10.371        0.106      341.592       16.413      863.963
08/17/2013  05:56:00      -40.942      -19.390       -1.720       18.343       13.137       12.624      336.469      172.579      159.377        0.136        0.033       45.302        9.393        0.043      341.588       16.404      863.963
08/17/2013  05:57:00      -70.637      -54.476       -3.019       28.612       19.711       18.824      818.666      388.519      354.353        0.476        0.078       89.203        4.974        0.003      341.554       16.347      863.964
08/17/2013  05:58:00      -50.090      -57.335        0.908       42.964       36.346       21.792     1845.870     1321.017      474.873        0.472        0.182       76.134       22.785        0.090      341.544       16.329      863.974
08/17/2013  05:59:00      -45.881      -58.262        1.245       41.601       50.119       22.129     1730.660     2511.870      489.695        0.512        0.237       74.159       25.691        0.120      341.500       16.256      863.989
08/17/2013  06:00:00      -59.953      -52.062        7.076       53.558       47.846       23.947     2868.456     2289.263      573.436        0.604        0.287       79.403       23.086        0.085      341.482       16.224      863.998
08/17/2013  06:01:00     -127.294      -83.422        8.789       59.686       46.400       31.722     3562.473     2152.938     1006.298        1.498        0.336      152.193       31.975        0.044      341.479       16.219      864.004
08/17/2013  06:02:00      -72.318      -49.209        9.533       69.096       63.924       32.621     4774.248     4086.342     1064.133        0.883        0.496       87.472       45.243        0.268      341.443       16.159      863.991
08/17/2013  06:03:00      -87.294      -74.265       -8.077       33.273       27.181       21.686     1107.109      738.796      470.297        0.776        0.116      114.610       15.612        0.019      341.502       16.260      863.975
08/17/2013  06:04:00      -84.252      -40.645       -6.310       31.380       27.381       17.239      984.722      749.746      297.198        0.541        0.102       93.544       13.773        0.022      341.519       16.289      863.980
08/17/2013  06:05:00      -53.889      -57.579        4.044       35.579       31.001       19.548     1265.871      961.061      382.130        0.442        0.130       78.863       23.043        0.085      341.479       16.220      864.002
08/17/2013  06:06:00      -44.113      -66.304        7.547       42.243       19.402       18.027     1784.460      376.430      324.976        0.444        0.124       79.638       18.422        0.054      341.518       16.285      864.018
08/17/2013  06:07:00      -55.111      -80.994        0.594       38.241       37.186       21.301     1462.340     1382.779      453.730        0.645        0.165       97.966       13.401        0.019      341.534       16.311      864.026
08/17/2013  06:08:00     -103.736      -23.739      -22.466       29.321       21.271       15.591      859.693      452.455      243.093        0.669        0.078      106.417       12.478        0.014      341.537       16.318      864.010
08/17/2013  06:09:00      -67.502       -0.454        3.190       16.743       13.883       12.444      280.326      192.725      154.854        0.260        0.031       67.503        9.525        0.020      341.468       16.199      863.980
08/17/2013  06:10:00      -26.229      -19.815       -4.868       25.455       37.887       10.746      647.980     1435.407      115.478        0.165        0.110       32.872       14.787        0.202      341.433       16.142      863.989
08/17/2013  06:11:00       30.615      -50.352        0.510       18.910       32.492       18.276      357.595     1055.706      334.000        0.261        0.087       58.929       18.624        0.100      341.360       16.018      864.020
08/17/2013  06:12:00      -27.341      -22.006       -5.950       30.148       26.047       16.925      908.930      678.423      286.468        0.157        0.094       35.097       10.079        0.082      341.438       16.149      864.034
08/17/2013  06:13:00      -98.515      -29.504       -7.846       27.729       22.499       18.514      768.894      506.207      342.774        0.613        0.081      102.838       15.538        0.023      341.471       16.205      864.034
08/17/2013  06:14:00      -60.985       20.298       -2.703       23.639       27.067       12.082      558.825      732.597      145.986        0.279        0.072       64.274        8.502        0.017      341.356       16.012      864.025
08/17/2013  06:15:00      -54.743       68.957       -8.564       22.052       23.921       18.153      486.293      572.238      329.514        0.461        0.069       88.045       14.738        0.028      341.343       15.990      864.006
08/17/2013  06:16:00      -19.895       60.147        1.138       27.041       38.164       20.157      731.240     1456.459      406.308        0.330        0.130       63.353       17.521        0.076      341.375       16.045      864.006
08/17/2013  06:17:00       12.539       -6.745       -2.235       13.682       30.933       11.781      187.196      956.825      138.785        0.075        0.064       14.238       11.534        0.656      341.312       15.936      864.030
08/17/2013  06:18:00       32.853      -12.618       14.449       33.712       33.467       22.873     1136.485     1120.011      523.176        0.211        0.139       35.193       24.814        0.497      341.079       15.542      864.059
08/17/2013  06:19:00       -5.765       -8.696       15.567       29.449       19.076       15.749      867.215      363.908      248.037        0.091        0.074       10.434        9.871        0.895      341.052       15.497      864.062
08/17/2013  06:20:00      -56.989      -22.948       -2.740       23.098       17.725       12.452      533.495      314.165      155.043        0.239        0.050       61.436       12.760        0.043      341.439       16.151      864.079
08/17/2013  06:21:00      -33.065      -32.052        1.529       31.379       20.001       12.543      984.648      400.040      157.336        0.183        0.077       46.050        3.379        0.005      341.429       16.135      864.098
08/17/2013  06:22:00        9.092      -14.225       18.435       12.265       14.898       13.167      150.430      221.936      173.363        0.059        0.027       16.883        6.615        0.154      341.350       16.001      864.122
08/17/2013  06:23:00      -33.801      -19.275       -2.136       16.628        8.332        7.151      276.481       69.428       51.143        0.096        0.020       38.911        7.617        0.038      341.426       16.130      864.131
08/17/2013  06:24:00      -55.058      -18.242       -6.772        9.787       10.899        7.379       95.777      118.794       54.456        0.184        0.013       58.002        4.645        0.006      341.497       16.249      864.129
08/17/2013  06:25:00      -22.916      -18.859      -11.170       19.422       12.570       14.357      377.232      157.993      206.126        0.087        0.037       29.679        9.443        0.101      341.417       16.115      864.141
08/17/2013  06:26:00      -20.939      -32.489      -11.236       32.565       16.350       12.305     1060.454      267.312      151.417        0.155        0.074       38.652       12.152        0.099      341.307       15.929      864.153
08/17/2013  06:27:00      -59.733        1.041       -4.560       10.687       11.654        7.970      114.213      135.826       63.518        0.195        0.016       59.742        5.447        0.008      341.446       16.165      864.162
08/17/2013  06:28:00      -29.231       12.866       -3.085       16.681       10.229        6.715      278.251      104.628       45.089        0.073        0.021       31.937        6.359        0.040      341.376       16.047      864.163
08/17/2013  06:29:00       -0.747      -19.888        0.433       15.074       17.313       10.632      227.230      299.741      113.031        0.052        0.032       19.902        8.142        0.167      341.431       16.138      864.174
08/17/2013  06:30:00       24.791      -22.632        8.485       16.246       14.497       12.881      263.919      210.166      165.924        0.092        0.032       33.568       10.301        0.094      341.297       15.912      864.195
08/17/2013  06:31:00      -39.882        6.331        1.129       20.416        9.927        7.500      416.824       98.541       56.257        0.110        0.029       40.381        7.149        0.031      341.462       16.190      864.191
08/17/2013  06:32:00      -64.180      -11.334       -4.176       12.272       17.244        7.823      150.593      297.347       61.202        0.239        0.025       65.173        2.225        0.001      341.477       16.217      864.196
08/17/2013  06:33:00      -35.279      -33.750        1.405       23.310       11.884       12.947      543.379      141.238      167.635        0.162        0.043       48.822       14.502        0.088      341.427       16.132      864.204
08/17/2013  06:34:00      -59.816      -39.184       -1.391       22.417       19.165       13.519      502.500      367.295      182.755        0.308        0.053       71.508       11.530        0.026      341.392       16.072      864.227
08/17/2013  06:35:00      -83.443       -8.386       -9.660       14.843       17.903       13.890      220.310      320.506      192.940        0.393        0.037       83.863       10.902        0.017      341.347       15.996      864.228
08/17/2013  06:36:00      -46.606       -6.817       -4.962       22.231       22.118       12.864      494.236      489.204      165.488        0.170        0.057       47.102       10.773        0.052      341.331       15.968      864.226
08/17/2013  06:37:00      -40.999       -5.867       -5.209       13.843       10.668        9.093      191.619      113.802       82.686        0.107        0.019       41.417        4.534        0.012      341.304       15.924      864.218
08/17/2013  06:38:00      -47.694      -30.433       -6.787       19.119       12.251        8.903      365.541      150.095       79.256        0.192        0.030       56.576        3.624        0.004      341.343       15.989      864.225
08/17/2013  06:39:00      -50.966      -22.921       -3.619       20.099       19.444       10.588      403.977      378.078      112.101        0.201        0.045       55.883        8.852        0.025      341.279       15.881      864.232
08/17/2013  06:40:00      -29.345      -15.517       -4.578       34.854       13.743       15.344     1214.769      188.858      235.423        0.138        0.082       33.195       14.670        0.195      341.159       15.678      864.229
08/17/2013  06:41:00      -24.385       -5.184       -4.494        8.374       10.674        8.248       70.124      113.931       68.037        0.045        0.013       24.930        6.150        0.061      341.247       15.827      864.217
08/17/2013  06:42:00      -52.325      -18.222       -5.575       12.436        7.436        6.835      154.645       55.294       46.722        0.168        0.013       55.407        4.533        0.007      341.385       16.062      864.214
08/17/2013  06:43:00      -54.489        0.463       -6.306       19.108       20.860        8.078      365.102      435.140       65.252        0.194        0.043       54.491        6.664        0.015      341.332       15.972      864.213
08/17/2013  06:44:00      -44.681      -10.893       -6.428       22.232       15.980       12.697      494.261      255.373      161.205        0.153        0.046       45.990       10.865        0.056      341.196       15.742      864.224
08/17/2013  06:45:00      -24.815      -26.659        3.572       16.683       17.627       11.128      278.316      310.728      123.825        0.103        0.036       36.421        6.174        0.029      341.185       15.721      864.251
08/17/2013  06:46:00      -25.730      -21.713       -4.923       15.036       19.640       11.593      226.095      385.714      134.404        0.095        0.037       33.668        6.179        0.034      341.334       15.976      864.247
08/17/2013  06:47:00      -12.708       -4.507        0.986       19.925       14.581        8.019      397.021      212.614       64.305        0.043        0.034       13.483        7.707        0.327      341.251       15.834      864.251
08/17/2013  06:48:00       -5.038       -2.444        7.385       22.976       11.053       10.795      527.879      122.173      116.531        0.043        0.038        5.599       11.351        4.109      341.315       15.941      864.260
08/17/2013  06:49:00      -60.203      -13.437       -2.850       11.485       11.907        7.373      131.915      141.777       54.368        0.207        0.016       61.684        4.828        0.006      341.380       16.049      864.265
08/17/2013  06:50:00      -43.251      -21.492        0.383       16.120       15.536        8.942      259.870      241.359       79.952        0.146        0.029       48.297        7.301        0.023      341.352       16.005      864.275
08/17/2013  06:51:00      -47.715      -13.401       -0.257       16.479       10.641        8.916      271.551      113.229       79.491        0.146        0.023       49.562        7.742        0.024      341.347       15.996      864.290
08/17/2013  06:52:00      -71.476      -27.310        1.913       18.400       19.558       10.098      338.551      382.503      101.978        0.334        0.041       76.516        9.785        0.016      341.290       15.901      864.304
08/17/2013  06:53:00      -88.792      -18.633       -1.377       23.791       21.004       13.142      566.005      441.177      172.701        0.471        0.059       90.726        9.864        0.012      341.226       15.791      864.313
08/17/2013  06:54:00      -29.153      -10.180        0.684       17.997       18.396       14.582      323.896      338.402      212.631        0.091        0.044       30.879        7.995        0.067      341.198       15.744      864.317
08/17/2013  06:55:00      -12.896      -16.483      -12.986       24.376       18.449       13.094      594.175      340.359      171.444        0.086        0.055       20.929       13.329        0.406      341.139       15.645      864.310
08/17/2013  06:56:00      -11.113       16.112        5.249       18.459       11.772       11.786      340.727      138.578      138.907        0.051        0.031       19.572       13.351        0.465      341.332       15.971      864.286
08/17/2013  06:57:00      -27.743       27.654       -4.519        7.401        9.262        8.708       54.776       85.790       75.833        0.089        0.011       39.171        1.330        0.001      341.450       16.169      864.266
08/17/2013  06:58:00        2.275        7.278        4.903       14.377        8.263        6.324      206.696       68.284       39.996        0.020        0.016        7.625        5.613        0.542      341.467       16.201      864.265
08/17/2013  06:59:00        2.476       -7.454        7.685        6.085       10.443        7.616       37.033      109.064       57.998        0.016        0.010        7.855        1.667        0.045      341.614       16.448      864.277
08/17/2013  07:00:00      -38.662      -13.240        1.464       31.886       14.191       13.268     1016.694      201.394      176.039        0.153        0.070       40.866       13.575        0.110      341.487       16.232      864.291
08/17/2013  07:01:00      -78.143      -37.815       -2.765       19.513       19.940       14.572      380.754      397.623      212.330        0.427        0.050       86.812       10.394        0.014      341.383       16.058      864.292
08/17/2013  07:02:00      -66.123      -31.798       -6.087       16.059       16.067       10.982      257.880      258.141      120.608        0.303        0.032       73.372        5.531        0.006      341.357       16.016      864.296
08/17/2013  07:03:00      -51.707       -8.584       -3.305        6.454        9.468        4.535       41.655       89.648       20.568        0.146        0.008       52.415        3.478        0.004      341.430       16.139      864.287
08/17/2013  07:04:00      -26.961      -12.739       -6.300       10.442        8.837        7.074      109.041       78.098       50.048        0.058        0.012       29.819        4.864        0.027      341.476       16.213      864.270
08/17/2013  07:05:00      -36.896      -28.053        4.434       13.800       14.390        9.637      190.438      207.059       92.872        0.133        0.025       46.350        8.040        0.030      341.493       16.243      864.266
08/17/2013  07:06:00       -4.048       -5.980        8.237       19.201       20.022       15.468      368.697      400.882      239.269        0.056        0.050        7.221       14.205        3.870      341.390       16.068      864.270
08/17/2013  07:07:00      -13.285       -7.362        6.957       18.505       19.366       15.066      342.437      375.049      226.988        0.061        0.047       15.189       13.644        0.807      341.443       16.159      864.278
08/17/2013  07:08:00      -61.304      -25.126        1.637       31.175       17.384       12.482      971.855      302.190      155.793        0.291        0.071       66.254       12.514        0.036      341.487       16.234      864.282
08/17/2013  07:09:00      -52.552      -17.869        1.055       24.827       22.302       14.462      616.375      497.384      209.153        0.220        0.066       55.507       12.849        0.054      341.458       16.184      864.296
08/17/2013  07:10:00      -37.902      -10.887       -4.358       15.482       14.334        7.314      239.692      205.456       53.496        0.104        0.025       39.435        6.779        0.030      341.438       16.149      864.310
08/17/2013  07:11:00      -27.522      -37.533        3.354       23.769       11.882       12.008      564.988      141.193      144.187        0.151        0.043       46.542       13.112        0.079      341.472       16.207      864.322
08/17/2013  07:12:00       -8.574      -25.341       -6.783       32.080       20.736       14.601     1029.141      429.963      213.181        0.122        0.084       26.752       10.139        0.144      341.437       16.148      864.340
08/17/2013  07:13:00      -23.240      -22.613        0.834       23.606       13.146       13.282      557.235      172.824      176.402        0.098        0.045       32.426        6.326        0.038      341.556       16.349      864.374
08/17/2013  07:14:00       -7.780      -22.916        2.697       10.011       13.127       12.624      100.221      172.307      159.356        0.051        0.022       24.201        9.179        0.144      341.622       16.462      864.396
08/17/2013  07:15:00      -23.773      -23.345       15.060       29.097       21.291       16.590      846.655      453.310      275.231        0.146        0.079       33.319       21.548        0.418      341.781       16.732      864.397
08/17/2013  07:16:00      -45.681      -47.490       -5.606       10.723       14.749       10.790      114.992      217.547      116.415        0.241        0.022       65.894        5.925        0.008      341.628       16.474      864.404
08/17/2013  07:17:00      -45.512      -19.420       -3.166        8.450       15.402        6.239       71.396      237.233       38.920        0.140        0.017       49.482        5.049        0.010      341.687       16.570      864.403
08/17/2013  07:18:00      -10.026       -9.532        5.782       18.085       12.763        9.232      327.060      162.888       85.226        0.040        0.029       13.834        9.032        0.426      341.720       16.629      864.403
08/17/2013  07:19:00       -1.021      -12.451       12.579       18.208       14.811       14.023      331.544      219.365      196.636        0.053        0.037       12.493       11.790        0.891      341.726       16.640      864.423
08/17/2013  07:20:00      -28.926      -21.690       -0.536       22.613       19.438       12.764      511.340      377.847      162.926        0.118        0.053       36.155       10.772        0.089      341.696       16.589      864.435
08/17/2013  07:21:00      -26.651      -22.696        2.797       20.347       22.521       11.297      414.018      507.217      127.613        0.114        0.052       35.006        7.026        0.040      341.802       16.768      864.454
08/17/2013  07:22:00      -42.595      -32.239        3.936       28.232       17.706       18.354      797.064      313.506      336.880        0.216        0.072       53.420       16.199        0.092      341.785       16.739      864.458
08/17/2013  07:23:00      -60.556      -31.827        6.349       27.748       19.714       11.459      769.956      388.640      131.308        0.300        0.064       68.410        8.479        0.015      341.749       16.677      864.460
08/17/2013  07:24:00      -52.981      -26.116       -2.665       16.574       13.963       12.342      274.692      194.967      152.316        0.206        0.031       59.068        4.692        0.006      341.708       16.610      864.457
08/17/2013  07:25:00      -19.789      -11.511        0.470       12.896        9.982        5.116      166.310       99.647       26.178        0.041        0.015       22.893        4.346        0.036      341.703       16.601      864.445
08/17/2013  07:26:00       12.833       -4.038        9.581       15.867       12.812       10.256      251.774      164.147      105.180        0.040        0.026       13.454        5.524        0.169      341.664       16.534      864.437
08/17/2013  07:27:00       44.821      -13.210        0.751       24.064       26.228       24.399      579.086      687.909      595.322        0.202        0.093       46.727       12.145        0.068      341.405       16.095      864.437
08/17/2013  07:28:00        2.624       -2.003        2.504       23.981       19.232       21.641      575.070      369.864      468.320        0.071        0.071        3.301        9.700        8.634      341.742       16.666      864.429
08/17/2013  07:29:00      -37.392      -22.221       -0.264       18.373       10.106        7.436      337.578      102.132       55.300        0.119        0.025       43.496        4.305        0.010      341.787       16.743      864.426
08/17/2013  07:30:00      -14.176      -52.394        2.873       20.547       37.133       12.465      422.172     1378.851      155.371        0.246        0.098       54.278        8.435        0.024      341.811       16.784      864.418
08/17/2013  07:31:00      -22.738      -27.301      -12.811       11.036       24.839        8.548      121.794      616.976       73.060        0.112        0.041       35.530        5.185        0.021      341.798       16.763      864.404
08/17/2013  07:32:00        3.189       -1.005       19.114       10.191        4.693       11.600      103.865       22.022      134.552        0.032        0.013        3.343        8.597        6.612      342.146       17.350      864.389
08/17/2013  07:33:00      -15.237        4.900        9.292       17.691        8.160        9.660      312.959       66.584       93.315        0.041        0.024       16.006       11.576        0.523      341.903       16.941      864.388
08/17/2013  07:34:00      -39.560       -8.767       -0.705        9.919       10.647        6.414       98.396      113.363       41.142        0.095        0.013       40.519        6.275        0.024      341.842       16.834      864.386
08/17/2013  07:35:00      -10.063       -3.794       13.211       29.593       12.221       17.168      875.728      149.345      294.745        0.080        0.066       10.754       13.437        1.561      342.014       17.126      864.411
08/17/2013  07:36:00       -8.647      -23.631       23.919       32.669       43.646       18.950     1067.284     1904.975      359.107        0.227        0.167       25.163       20.627        0.672      342.162       17.378      864.428
08/17/2013  07:37:00      -32.068      -78.950       15.477       39.237       35.465       28.041     1539.523     1257.777      786.317        0.554        0.179       85.215       25.421        0.089      341.803       16.770      864.441
08/17/2013  07:38:00      -31.873      -27.268       15.425       41.111       31.729       25.465     1690.153     1006.743      648.481        0.267        0.167       41.945       22.538        0.289      341.881       16.902      864.445
08/17/2013  07:39:00      -76.157      -36.772        2.761       43.516       25.875       21.334     1893.633      669.519      455.133        0.509        0.151       84.570       19.412        0.053      341.833       16.821      864.440
08/17/2013  07:40:00      -69.937      -35.376       -2.455       34.142       27.173       16.846     1165.689      738.378      283.804        0.417        0.109       78.375       20.402        0.068      341.851       16.850      864.432
08/17/2013  07:41:00      -37.306      -49.927        0.735       23.201       16.582       12.152      538.306      274.951      147.661        0.242        0.048       62.325       11.970        0.037      341.879       16.898      864.427
08/17/2013  07:42:00       -1.375      -37.927        7.318       15.723       19.967       18.213      247.199      398.678      331.697        0.124        0.049       37.951       16.255        0.183      342.023       17.144      864.423
08/17/2013  07:43:00      -16.279      -47.004        4.801       22.530       23.543       12.419      507.588      554.294      154.241        0.186        0.061       49.743       10.131        0.041      342.033       17.160      864.419
08/17/2013  07:44:00      -59.725      -39.275       -3.637       26.126       14.047       18.528      682.572      197.313      343.294        0.317        0.061       71.482       18.144        0.064      341.934       16.991      864.413
08/17/2013  07:45:00      -52.929      -58.289       -6.699       18.330       18.404       11.353      335.974      338.717      128.886        0.352        0.040       78.734       12.689        0.026      341.959       17.033      864.416
08/17/2013  07:46:00      -60.023      -56.249       -4.036       22.490       25.543       13.134      505.803      652.421      172.491        0.406        0.067       82.260       11.982        0.021      342.001       17.105      864.422
08/17/2013  07:47:00      -52.901      -47.606      -13.443       38.819       19.643       12.971     1506.934      385.852      168.234        0.365        0.103       71.168       13.771        0.037      342.038       17.169      864.433
08/17/2013  07:48:00      -32.996      -32.746        7.991       39.855       28.205       20.903     1588.458      795.506      436.936        0.252        0.141       46.487       22.783        0.240      342.214       17.468      864.445
08/17/2013  07:49:00      -69.078      -65.054       -0.985       25.536       24.704       13.332      652.077      610.312      177.739        0.522        0.072       94.888       13.030        0.019      342.096       17.267      864.447
08/17/2013  07:50:00      -61.559      -56.031        4.626       30.165       29.630       19.134      909.941      877.962      366.106        0.455        0.108       83.241       17.067        0.042      342.154       17.366      864.447
08/17/2013  07:51:00      -56.253      -53.779        1.017       29.318       27.567       17.574      859.523      759.939      308.846        0.399        0.096       77.825       17.619        0.051      342.211       17.460      864.448
08/17/2013  07:52:00      -43.407      -53.691        7.513       44.719       30.502       26.327     1999.759      930.377      693.119        0.422        0.181       69.042       25.847        0.140      342.250       17.527      864.439
08/17/2013  07:53:00      -81.325      -71.084        2.822       42.520       30.244       23.583     1807.952      914.709      556.148        0.748        0.164      108.012       25.610        0.056      342.194       17.433      864.448
08/17/2013  07:54:00      -91.691      -46.569       -2.365       28.061       25.595       18.153      787.430      655.104      329.518        0.618        0.089      102.839       13.884        0.018      342.217       17.472      864.453
08/17/2013  07:55:00      -35.996      -31.790        5.137       23.847       24.963       10.812      568.694      623.135      116.895        0.182        0.065       48.025       13.108        0.074      342.363       17.720      864.467
08/17/2013  07:56:00      -48.491      -23.920       -0.250       19.705       26.285        9.512      388.273      690.877       90.481        0.205        0.058       54.070        8.286        0.023      342.338       17.677      864.480
08/17/2013  07:57:00      -63.319      -28.827      -10.753       10.825       17.213        7.564      117.172      296.302       57.209        0.271        0.024       69.572        3.671        0.003      342.387       17.761      864.491
08/17/2013  07:58:00      -64.996      -25.345      -10.961       14.833       10.708        7.478      220.004      114.668       55.920        0.269        0.020       69.763        6.618        0.009      342.419       17.817      864.502
08/17/2013  07:59:00      -68.907      -20.067       -6.367       17.017       12.964       15.020      289.595      168.062      225.605        0.294        0.034       71.769        3.593        0.003      342.451       17.871      864.506
08/17/2013  08:00:00      -34.968      -12.678       -4.134       21.639       11.767       12.444      468.235      138.453      154.849        0.108        0.038       37.195        7.977        0.046      342.517       17.982      864.499
08/17/2013  08:01:00      -29.770       -9.110       -1.490       23.208        9.704        8.846      538.609       94.177       78.259        0.084        0.036       31.133        2.134        0.005      342.654       18.214      864.490
08/17/2013  08:02:00       -6.487       -3.059       18.179       18.047       13.702       10.098      325.702      187.751      101.972        0.050        0.031        7.172        7.460        1.082      343.150       19.060      864.478
08/17/2013  08:03:00      -45.881       -7.654       -1.732       17.029       21.534        8.329      289.990      463.696       69.370        0.149        0.041       46.515        7.586        0.027      342.670       18.242      864.475
08/17/2013  08:04:00      -30.375      -10.497        4.833       14.545        9.118       10.117      211.546       83.144      102.360        0.073        0.020       32.137        7.658        0.057      342.776       18.420      864.473
08/17/2013  08:05:00       10.389      -11.993       -9.176       24.825       20.895       16.860      616.305      436.588      284.270        0.084        0.067       15.868        7.431        0.219      342.313       17.636      864.483
08/17/2013  08:06:00       52.328       -7.779       18.979       22.361       19.338       24.654      499.999      373.953      607.801        0.232        0.074       52.903        9.827        0.035      342.135       17.332      864.493
08/17/2013  08:07:00       37.817        1.218       37.833       27.022       13.234       13.098      730.180      175.147      171.556        0.197        0.054       37.836        7.289        0.037      342.441       17.853      864.484
08/17/2013  08:08:00       34.898      -31.966        8.117       36.554       27.104       22.942     1336.215      734.641      526.356        0.245        0.130       47.325       21.805        0.212      342.425       17.825      864.470
08/17/2013  08:09:00       26.802       -9.960       14.532       29.194       23.856       29.468      852.264      569.128      868.389        0.166        0.114       28.593       21.196        0.550      342.569       18.071      864.460
08/17/2013  08:10:00       38.211      -25.869       15.310       23.395       18.237       22.052      547.338      332.604      486.298        0.186        0.068       46.144        8.266        0.032      342.459       17.883      864.452
08/17/2013  08:11:00       38.294      -16.186       16.252       16.639       16.505       19.583      276.858      272.416      383.476        0.146        0.047       41.575       11.221        0.073      342.517       17.982      864.443
08/17/2013  08:12:00       14.778       -8.563       24.400       25.840       19.281       24.256      667.718      371.743      588.372        0.126        0.081       17.080       17.801        1.086      342.938       18.700      864.430
08/17/2013  08:13:00       21.318       -1.600       17.622       15.081       14.307       16.487      227.440      204.699      271.807        0.074        0.035       21.378        4.340        0.041      342.823       18.503      864.418
08/17/2013  08:14:00       -8.065       -4.279       14.835       16.506       23.668       12.760      272.439      560.180      162.806        0.065        0.050        9.130        8.298        0.826      343.028       18.853      864.415
08/17/2013  08:15:00       -6.316      -15.425       -1.645       21.794       16.445       16.978      474.991      270.443      288.245        0.066        0.052       16.668        6.904        0.172      342.743       18.367      864.413
08/17/2013  08:16:00      -11.361      -27.932        9.558       16.510       19.071       19.731      272.578      363.696      389.332        0.101        0.051       30.154        8.996        0.089      342.750       18.377      864.414
08/17/2013  08:17:00        4.923      -20.670       -0.557       27.785       23.832       18.321      772.021      567.949      335.673        0.106        0.084       21.248       15.159        0.509      342.802       18.465      864.414
08/17/2013  08:18:00       38.970      -23.881        3.280       18.134       29.300       21.244      328.845      858.470      451.323        0.187        0.082       45.705       10.254        0.050      342.639       18.189      864.422
08/17/2013  08:19:00       46.445      -20.968       14.672       26.451       19.264       19.739      699.647      371.093      389.617        0.214        0.073       50.958       14.868        0.085      342.744       18.369      864.432
08/17/2013  08:20:00       12.276        3.614       37.027       27.793       14.565       15.910      772.476      212.148      253.142        0.139        0.062       12.797       11.357        0.788      343.238       19.210      864.444
08/17/2013  08:21:00      -10.297        0.205       12.323        7.316        9.812       14.756       53.522       96.279      217.733        0.031        0.018       10.299        5.517        0.287      343.380       19.452      864.461
08/17/2013  08:22:00       -5.860        6.883       24.952       14.279       13.990       12.634      203.899      195.720      159.628        0.063        0.028        9.040        9.323        1.064      343.753       20.088      864.478
08/17/2013  08:23:00        2.449      -16.550       17.360       11.482       25.982       15.701      131.839      675.079      246.518        0.082        0.053       16.730       14.909        0.794      343.593       19.815      864.495
08/17/2013  08:24:00      -23.694      -38.067        7.404       34.836       21.056       21.109     1213.531      443.374      445.577        0.208        0.105       44.839       18.987        0.179      343.206       19.155      864.512
08/17/2013  08:25:00      -25.913      -24.474        1.311       13.859       10.765       10.085      192.066      115.875      101.702        0.084        0.020       35.644        7.447        0.044      343.220       19.179      864.527
08/17/2013  08:26:00      -21.613      -34.562        6.094       17.035       14.414       12.935      290.179      207.772      167.310        0.118        0.033       40.763        8.978        0.049      343.364       19.424      864.542
08/17/2013  08:27:00       13.859       -4.426        9.852       13.873       16.548       18.329      192.455      273.847      335.968        0.056        0.040       14.549       12.513        0.740      343.436       19.547      864.554
08/17/2013  08:28:00       22.278       -3.648       25.801       18.017       15.964       16.520      324.607      254.860      272.924        0.101        0.043       22.575       11.201        0.246      343.451       19.573      864.560
08/17/2013  08:29:00        5.254       -8.456       12.121       14.496       15.892       14.042      210.128      252.554      197.178        0.045        0.033        9.956        7.321        0.541      343.128       19.023      864.566
08/17/2013  08:30:00      -10.691      -32.626       -4.456       32.314       23.109       27.093     1044.198      534.028      734.009        0.176        0.116       34.333        9.631        0.079      343.007       18.815      864.577
08/17/2013  08:31:00        5.348      -38.676        2.023       24.141       23.480       22.960      582.800      551.310      527.168        0.159        0.083       39.044       10.487        0.072      342.997       18.798      864.577
08/17/2013  08:32:00        6.427       -1.946       14.439       12.992       20.895       15.950      168.785      436.597      254.391        0.056        0.043        6.715       11.102        2.733      343.524       19.698      864.589
08/17/2013  08:33:00       31.911       -5.549       10.640       31.440       28.884       22.995      988.492      834.279      528.775        0.176        0.118       32.390       14.219        0.193      343.268       19.261      864.591
08/17/2013  08:34:00       34.154      -13.950        3.403       30.740       18.493       19.216      944.925      341.980      369.262        0.151        0.083       36.893       10.977        0.089      343.182       19.115      864.606
08/17/2013  08:35:00       24.353      -12.273      -13.769       16.826       19.101       16.555      283.126      364.856      274.075        0.093        0.046       27.271       12.397        0.207      343.273       19.269      864.605
08/17/2013  08:36:00        0.852      -31.196       -5.695       22.835       18.699       18.616      521.455      349.646      346.546        0.111        0.061       31.208       11.118        0.127      343.090       18.956      864.612
08/17/2013  08:37:00       24.418      -18.868       11.897       25.811       28.668       29.412      666.206      821.865      865.078        0.172        0.118       30.858       21.944        0.506      343.346       19.393      864.612
08/17/2013  08:38:00       18.337      -23.652        4.191       21.355       32.304       29.478      456.051     1043.545      868.965        0.164        0.118       29.927       22.126        0.547      343.564       19.766      864.607
08/17/2013  08:39:00       16.152       10.216        2.591       18.264       13.107       18.493      333.572      171.806      342.008        0.061        0.042       19.112        6.813        0.127      343.640       19.895      864.606
08/17/2013  08:40:00       45.234       17.603        1.397       16.489       21.662       14.978      271.892      469.232      224.342        0.166        0.048       48.538        9.738        0.040      343.288       19.294      864.596
08/17/2013  08:41:00       23.559       37.911       -7.218       28.215       41.710       22.690      796.079     1739.732      514.819        0.255        0.153       44.635       17.539        0.154      343.113       18.995      864.602
08/17/2013  08:42:00       35.467       -4.704        5.583       25.262       27.774       26.158      638.168      771.419      684.225        0.170        0.105       35.777       18.266        0.261      343.366       19.426      864.605
08/17/2013  08:43:00       27.321       25.623        1.686       23.220       15.472       18.818      539.158      239.384      354.121        0.127        0.057       37.456       13.701        0.134      343.489       19.636      864.610
08/17/2013  08:44:00       37.428       -6.201        9.181       28.627       23.902       30.450      819.506      571.312      927.207        0.192        0.116       37.938       12.271        0.105      343.767       20.111      864.618
08/17/2013  08:45:00       21.189      -28.830        7.001       30.798       37.009       31.236      948.533     1369.680      975.685        0.231        0.165       35.779       12.046        0.113      343.802       20.170      864.618
08/17/2013  08:46:00       16.392      -23.741       11.789       30.120       28.999       27.685      907.217      840.970      766.484        0.174        0.126       28.850       18.076        0.393      343.953       20.428      864.620
08/17/2013  08:47:00        7.373        4.338       29.703       25.863       30.711       23.922      668.886      943.195      572.269        0.157        0.109        8.554       16.182        3.579      344.310       21.039      864.619
08/17/2013  08:48:00       26.209      -23.845       18.325       28.065       37.754       30.892      787.642     1425.400      954.307        0.238        0.158       35.433       25.097        0.502      343.985       20.483      864.620
08/17/2013  08:49:00       35.223      -18.541        7.831       25.552       32.304       23.897      652.898     1043.568      571.078        0.196        0.113       39.805       11.107        0.078      343.645       19.903      864.618
08/17/2013  08:50:00       41.751       -5.355        7.037       27.193       21.356       22.883      739.473      456.081      523.633        0.177        0.086       42.093       13.637        0.105      343.611       19.846      864.618
08/17/2013  08:51:00       10.579       -7.011       12.381       16.715       33.387       19.980      279.379     1114.678      399.210        0.105        0.090       12.691       21.234        2.799      344.099       20.678      864.619
08/17/2013  08:52:00       24.555      -13.002       15.304       30.846       24.882       27.462      951.480      619.114      754.151        0.167        0.116       27.785       18.699        0.453      344.010       20.526      864.613
08/17/2013  08:53:00       40.038        9.774       19.065       52.050       28.336       37.022     2709.152      802.955     1370.663        0.347        0.244       41.214       24.105        0.342      343.803       20.172      864.603
08/17/2013  08:54:00       23.934       21.959       41.982       36.129       32.120       24.402     1305.332     1031.722      595.456        0.287        0.147       32.482       19.975        0.378      343.885       20.311      864.597
08/17/2013  08:55:00       16.623        5.359       28.614       38.069       27.451       30.884     1449.246      753.567      953.803        0.214        0.158       17.465       27.028        2.395      344.140       20.748      864.590
08/17/2013  08:56:00       25.530       -3.593       -2.473       25.276       42.747       35.460      638.868     1827.329     1257.380        0.220        0.186       25.781       19.788        0.589      343.916       20.365      864.576
08/17/2013  08:57:00       27.888      -22.949       13.435       33.937       31.777       28.379     1151.690     1009.748      805.378        0.223        0.148       36.116       24.921        0.476      343.919       20.370      864.577
08/17/2013  08:58:00       11.966        0.274       22.073       26.954       30.862       24.661      726.511      952.448      608.185        0.146        0.114       11.969        7.555        0.398      343.973       20.463      864.579
08/17/2013  08:59:00       40.143       -7.925        4.002       25.076       22.861       28.493      628.804      522.646      811.838        0.183        0.098       40.918       15.647        0.146      343.939       20.404      864.582
08/17/2013  09:00:00        1.471       23.982        6.389       28.007       19.126       30.678      784.413      365.809      941.112        0.135        0.105       24.027       10.543        0.193      344.326       21.065      864.578
08/17/2013  09:01:00      -11.292       11.057      -11.297       15.837       17.059       14.402      250.800      291.005      207.430        0.056        0.037       15.804        7.730        0.239      344.262       20.957      864.583
08/17/2013  09:02:00      -20.572      -13.636        0.626       15.093       13.711       12.853      227.814      187.988      165.188        0.060        0.029       24.680        7.550        0.094      344.138       20.745      864.589
08/17/2013  09:03:00       -6.116       10.169        7.003       21.618       24.562       21.700      467.341      603.314      470.906        0.087        0.077       11.866       11.113        0.877      344.647       21.615      864.580
08/17/2013  09:04:00       -1.652        7.563       13.732       17.427       16.017       18.342      303.694      256.537      336.427        0.057        0.045        7.741       12.192        2.481      344.826       21.921      864.567
08/17/2013  09:05:00        5.697       12.078       -2.087       13.349       25.766       22.106      178.188      663.892      488.674        0.076        0.067       13.354       11.858        0.788      344.482       21.332      864.562
08/17/2013  09:06:00       26.141      -13.661       24.377       17.578       20.625       18.737      308.999      425.407      351.072        0.127        0.054       29.495       16.017        0.295      344.529       21.415      864.549
08/17/2013  09:07:00       19.540        8.518       24.177       33.511       29.901       24.544     1122.977      894.047      602.384        0.183        0.131       21.316       20.199        0.898      344.812       21.897      864.540
08/17/2013  09:08:00       70.244       51.177        6.464       22.784       32.596       24.576      519.112     1062.506      603.970        0.489        0.109       86.910       14.375        0.027      344.412       21.212      864.534
08/17/2013  09:09:00       57.180       55.353        6.969       20.191       27.601       29.951      407.665      761.830      897.085        0.422        0.103       79.584       21.313        0.072      344.607       21.544      864.530
08/17/2013  09:10:00       65.266       33.593       11.545       28.705       24.271       21.586      823.957      589.080      465.945        0.370        0.094       73.404       10.074        0.019      344.635       21.593      864.530
08/17/2013  09:11:00       42.744        4.999       13.569       28.962       36.074       22.200      838.780     1301.320      492.821        0.233        0.132       43.035       10.495        0.059      344.422       21.230      864.532
08/17/2013  09:12:00        9.673       10.983       47.372       25.026       30.790       17.777      626.312      948.010      316.022        0.217        0.095       14.636       15.253        1.086      344.578       21.497      864.535
08/17/2013  09:13:00       19.388        5.286       21.130       21.012       19.298       18.248      441.488      372.405      332.998        0.100        0.057       20.096       12.977        0.417      344.667       21.648      864.543
08/17/2013  09:14:00       34.283      -10.749       17.713       25.778       21.996       25.056      664.490      483.830      627.786        0.169        0.089       35.928       20.766        0.334      344.448       21.276      864.547
08/17/2013  09:15:00       23.420      -22.564        8.559       30.910       34.298       28.509      955.422     1176.338      812.744        0.204        0.147       32.521       22.360        0.473      344.250       20.936      864.548
08/17/2013  09:16:00      -22.469       -7.545       10.197       16.535       34.703       20.931      273.401     1204.296      438.118        0.129        0.096       23.702       10.778        0.207      344.296       21.015      864.547
08/17/2013  09:17:00       15.688        8.256       16.882       32.061       22.866       26.881     1027.913      522.836      722.571        0.144        0.114       17.728        8.802        0.247      344.883       22.020      864.538
08/17/2013  09:18:00        9.189       -8.581       11.384       32.384       39.452       24.844     1048.734     1556.435      617.217        0.175        0.161       12.572       13.473        1.148      344.920       22.082      864.539
08/17/2013  09:19:00        7.586      -52.567        7.652       36.062       38.885       26.252     1300.489     1512.069      689.164        0.319        0.175       53.111       16.794        0.100      344.917       22.075      864.545
08/17/2013  09:20:00       36.332      -57.498       14.383       27.644       34.074       25.031      764.189     1161.065      626.559        0.369        0.128       68.015       17.746        0.068      344.942       22.121      864.554
08/17/2013  09:21:00        4.832       -2.633       45.441       15.336       30.244       17.477      235.202      914.678      305.459        0.177        0.073        5.503        7.571        1.893      345.652       23.335      864.556
08/17/2013  09:22:00       16.773        5.705       36.226       34.100       28.891       21.832     1162.812      834.679      476.632        0.205        0.124       17.717       13.410        0.573      345.420       22.938      864.558
08/17/2013  09:23:00       42.816      -14.500       -4.282       41.334       25.457       26.074     1708.488      648.039      679.878        0.255        0.152       45.205       17.295        0.146      344.564       21.472      864.553
08/17/2013  09:24:00       26.612       -2.932       24.093       26.626       29.610       31.606      708.932      876.752      998.911        0.194        0.129       26.773       18.976        0.502      345.072       22.343      864.544
08/17/2013  09:25:00       26.972       -1.566       30.345       33.020       33.435       26.754     1090.334     1117.881      715.776        0.229        0.146       27.018       16.605        0.378      344.973       22.173      864.533
08/17/2013  09:26:00       32.712      -70.070        7.150       29.237       42.568       27.740      854.815     1812.061      769.526        0.473        0.172       77.330       27.409        0.126      344.914       22.071      864.511
08/17/2013  09:27:00       18.940      -55.099       10.156       28.294       53.512       24.098      800.526     2863.525      580.734        0.387        0.212       58.263       29.348        0.254      345.121       22.426      864.496
08/17/2013  09:28:00       22.333       -6.703       15.819       55.467       44.994       33.132     3076.570     2024.420     1097.726        0.350        0.310       23.317       34.953        2.247      345.102       22.393      864.474
08/17/2013  09:29:00       29.660       -3.584       35.094       37.254       42.521       31.242     1387.847     1808.046      976.088        0.315        0.209       29.875       22.810        0.583      345.294       22.722      864.453
08/17/2013  09:30:00       29.934      -24.553       20.314       47.036       32.482       22.793     2212.411     1055.072      519.511        0.285        0.189       38.716       18.845        0.237      345.216       22.588      864.439
08/17/2013  09:31:00        2.113       -3.123       17.138       17.240       18.728       15.330      297.204      350.721      235.007        0.060        0.044        3.770       11.555        9.393      345.547       23.156      864.429
08/17/2013  09:32:00      -48.310       -5.228       -6.813       13.225       14.796        8.342      174.908      218.909       69.597        0.144        0.023       48.592        7.498        0.024      344.863       21.983      864.428
08/17/2013  09:33:00      -23.386        8.479        6.764       18.394       13.235       16.812      338.339      175.174      282.646        0.073        0.040       24.875        6.609        0.071      345.307       22.745      864.427
08/17/2013  09:34:00        7.631        2.895       23.147       24.082       22.899       20.923      579.942      524.355      437.772        0.107        0.077        8.161       20.767        6.475      345.611       23.265      864.432
08/17/2013  09:35:00       37.297        6.841       14.765       32.649       28.053       24.200     1065.970      786.986      585.621        0.205        0.122       37.919       18.511        0.238      345.254       22.654      864.440
08/17/2013  09:36:00       42.575       15.710        7.266       21.815       32.753       22.175      475.876     1072.747      491.732        0.208        0.102       45.381       14.450        0.101      344.665       21.647      864.441
08/17/2013  09:37:00       62.711       28.030       11.978       16.660       21.359       21.246      277.561      456.226      451.393        0.302        0.059       68.690       10.520        0.023      344.788       21.855      864.436
08/17/2013  09:38:00       46.442        3.573       18.303       31.055       26.783       24.607      964.427      717.347      605.516        0.240        0.114       46.579       18.381        0.156      344.862       21.983      864.431
08/17/2013  09:39:00       24.583       20.631       11.206       26.252       21.626       33.078      689.143      467.695     1094.155        0.170        0.113       32.093       20.290        0.400      344.994       22.208      864.423
08/17/2013  09:40:00       47.834       15.650       11.098       28.459       23.742       22.297      809.932      563.662      497.166        0.226        0.094       50.329       13.579        0.073      345.154       22.483      864.420
08/17/2013  09:41:00       49.680       -2.152        5.798       27.732       20.846       17.103      769.069      434.563      292.504        0.200        0.075       49.726       10.689        0.046      345.001       22.220      864.409
08/17/2013  09:42:00       31.638       -3.483        3.752       24.028       19.485       26.982      577.338      379.674      728.054        0.136        0.084       31.829       14.001        0.194      345.201       22.564      864.406
08/17/2013  09:43:00       41.163       -7.699       -0.586       22.186       20.548       21.260      492.223      422.214      451.992        0.156        0.068       41.877       15.079        0.130      345.108       22.404      864.395
08/17/2013  09:44:00       56.271       25.266        6.896       27.899       22.790       23.025      778.337      519.363      530.140        0.284        0.091       61.683        8.708        0.020      345.394       22.893      864.387
08/17/2013  09:45:00       90.333       46.332       18.374       36.628       47.207       27.972     1341.582     2228.519      782.448        0.750        0.218      101.522       21.755        0.046      345.458       23.003      864.372
08/17/2013  09:46:00       75.022       26.860       12.995       49.884       33.191       22.785     2488.394     1101.662      519.160        0.531        0.205       79.685       22.637        0.081      345.551       23.163      864.364
08/17/2013  09:47:00      -10.124        0.996       16.349       15.661       25.658       18.568      245.254      658.345      344.783        0.081        0.062       10.173       12.279        1.457      345.875       23.719      864.355
08/17/2013  09:48:00        1.419        0.515       18.771       15.161       23.965       18.948      229.865      574.320      359.043        0.076        0.058        1.509       14.159       88.021      346.207       24.290      864.350
08/17/2013  09:49:00       -7.032       36.818       71.086       19.435       33.775       19.824      377.705     1140.776      393.008        0.418        0.096       37.483       18.046        0.232      346.464       24.730      864.328
08/17/2013  09:50:00        1.557       42.123       75.589       35.363       33.313       26.972     1250.558     1109.772      727.510        0.529        0.154       42.151       23.536        0.312      346.217       24.306      864.313
08/17/2013  09:51:00       20.215       51.224       70.035       43.952       41.602       29.669     1931.781     1730.765      880.229        0.624        0.227       55.069       24.160        0.192      346.169       24.225      864.311
08/17/2013  09:52:00       43.441      -24.151        8.047       38.457       58.584       42.754     1478.932     3432.049     1827.872        0.464        0.337       49.703       40.424        0.661      345.980       23.900      864.306
08/17/2013  09:53:00        1.691       56.835       60.741       35.442       39.941       20.007     1256.139     1595.318      400.271        0.509        0.163       56.860       18.552        0.106      346.229       24.326      864.305
08/17/2013  09:54:00       23.837       33.683       32.568       24.040       17.226       15.986      577.935      296.733      255.563        0.195        0.057       41.265       11.238        0.074      345.950       23.847      864.312
08/17/2013  09:55:00       37.283       23.900        2.397       27.026       27.575       19.733      730.412      760.363      389.386        0.192        0.094       44.286       10.700        0.058      345.920       23.795      864.326
08/17/2013  09:56:00        9.866       25.958       19.239       28.589       28.011       26.228      817.358      784.612      687.907        0.172        0.114       27.770       20.302        0.534      346.438       24.685      864.325
08/17/2013  09:57:00       77.525       57.491        4.191       30.958       29.593       23.351      958.395      875.746      545.277        0.586        0.119       96.517       11.743        0.015      345.932       23.817      864.318
08/17/2013  09:58:00       51.603       76.390       10.985       45.833       28.478       25.686     2100.695      811.005      659.753        0.609        0.179       92.186       20.932        0.052      345.935       23.822      864.324
08/17/2013  09:59:00       50.484       55.920       20.560       47.645       37.966       31.020     2270.078     1441.401      962.238        0.539        0.234       75.337       21.027        0.078      346.039       23.999      864.322
08/17/2013  10:00:00      -34.499       59.925       29.570       36.949       46.506       36.079     1365.193     2162.844     1301.720        0.524        0.241       69.146       25.514        0.136      346.456       24.718      864.317
08/17/2013  10:01:00       -6.362       76.133       26.150       33.013       39.981       35.116     1089.867     1598.503     1233.154        0.522        0.196       76.398       14.991        0.039      346.312       24.469      864.312
08/17/2013  10:02:00        0.743       56.761        5.731       71.173       37.146       38.501     5065.612     1379.807     1482.299        0.559        0.396       56.765       26.093        0.211      346.246       24.357      864.301
08/17/2013  10:03:00       -8.101       10.313       20.589       28.162       33.310       22.857      793.080     1109.532      522.429        0.151        0.121       13.114       13.677        1.088      346.491       24.777      864.304
08/17/2013  10:04:00        7.146       -7.525       34.757       24.194       69.856       23.862      585.368     4879.865      569.378        0.367        0.302       10.377       27.786        7.169      346.136       24.166      864.299
08/17/2013  10:05:00      -15.313      -58.619        4.818       23.325       30.049       19.170      544.038      902.961      367.488        0.275        0.091       60.586       11.577        0.037      345.712       23.438      864.285
08/17/2013  10:06:00        5.519       11.602       16.545       32.568       28.567       24.218     1060.667      816.046      586.512        0.145        0.123       12.847       11.840        0.849      346.549       24.878      864.283
08/17/2013  10:07:00       51.860       43.104        4.087       46.039       38.982       34.618     2119.575     1519.562     1198.415        0.470        0.242       67.435       20.349        0.091      346.358       24.549      864.288
08/17/2013  10:08:00       60.740       27.049        5.160       32.073       36.011       29.815     1028.681     1296.814      888.915        0.383        0.161       66.490       12.351        0.035      346.354       24.542      864.286
08/17/2013  10:09:00       19.941       47.757       54.976       31.173       33.608       31.623      971.762     1129.470     1000.002        0.440        0.155       51.753       21.625        0.175      346.552       24.882      864.286
08/17/2013  10:10:00       24.118       29.692       17.625       31.403       24.812       30.206      986.173      615.650      912.432        0.214        0.126       38.253       16.284        0.181      346.131       24.157      864.285
08/17/2013  10:11:00      -17.238       14.058       18.760       18.716       25.873       21.752      350.298      669.421      473.144        0.117        0.075       22.243       14.041        0.398      346.603       24.969      864.279
08/17/2013  10:12:00       11.283       -0.580       27.652       21.731       24.512       17.880      472.250      600.854      319.696        0.114        0.070       11.298       15.712        1.934      346.912       25.501      864.272
08/17/2013  10:13:00       64.311       20.174       25.259       64.103       45.275       42.158     4109.159     2049.842     1777.333        0.656        0.397       67.401       36.914        0.300      346.178       24.239      864.263
08/17/2013  10:14:00       51.379       18.416       15.908       42.711       33.996       26.331     1824.249     1155.708      693.340        0.345        0.184       54.579       15.475        0.080      346.436       24.684      864.250
08/17/2013  10:15:00       21.994       19.908       25.110       35.761       27.673       26.246     1278.849      765.781      688.841        0.212        0.137       29.666       21.554        0.528      346.877       25.440      864.245
08/17/2013  10:16:00       -8.061        2.517       63.565       20.689       42.822       23.833      428.022     1833.735      568.006        0.347        0.141        8.445       22.322        6.986      347.116       25.852      864.237
08/17/2013  10:17:00       14.543       70.095      102.981       40.299       60.841       31.895     1623.992     3701.606     1017.271        1.104        0.317       71.588       32.236        0.203      346.772       25.261      864.226
08/17/2013  10:18:00       31.080       66.666       86.972       46.066       61.669       56.372     2122.031     3803.010     3177.831        1.104        0.455       73.555       56.296        0.586      346.444       24.696      864.235
08/17/2013  10:19:00       83.316       73.858       12.773       26.985       36.827       35.362      728.192     1356.222     1250.466        0.795        0.167      111.339       17.526        0.025      346.057       24.030      864.229
08/17/2013  10:20:00       62.202       52.926       43.278       30.102       35.186       38.962      906.113     1238.065     1518.041        0.610        0.183       81.672       17.871        0.048      346.219       24.310      864.224
08/17/2013  10:21:00       56.539      -35.747       41.659       65.817      116.968       60.333     4331.853    13681.568     3640.057        1.393        1.083       66.892       70.904        1.124      346.393       24.608      864.206
08/17/2013  10:22:00       52.002       22.910       49.439       49.187       56.796       33.843     2419.349     3225.737     1145.348        0.623        0.340       56.825       43.889        0.597      346.382       24.590      864.214
08/17/2013  10:23:00       24.281       36.631       41.756       17.784       22.442       17.964      316.282      503.666      322.704        0.241        0.057       43.948       13.756        0.098      346.388       24.599      864.197
08/17/2013  10:24:00       16.762       46.088       55.724       28.437       34.220       26.360      808.655     1171.033      694.829        0.409        0.134       49.042       21.762        0.197      346.567       24.908      864.180
08/17/2013  10:25:00       52.592       22.652       22.477       45.843       28.201       21.142     2101.574      795.312      446.972        0.356        0.167       57.263       14.391        0.063      346.554       24.885      864.165
08/17/2013  10:26:00       32.995       30.169       12.681       29.522       20.999       19.255      871.524      440.952      370.741        0.192        0.084       44.708       11.288        0.064      346.341       24.518      864.157
08/17/2013  10:27:00        4.596       -1.442       22.374       12.455       13.528       14.060      155.125      183.015      197.684        0.053        0.027        4.817        3.825        0.631      347.175       25.953      864.152
08/17/2013  10:28:00        7.270      -16.925        3.099       19.676       13.039       12.986      387.135      170.023      168.640        0.054        0.036       18.420        6.858        0.139      346.617       24.994      864.146
08/17/2013  10:29:00       36.410       33.355       32.256       45.866       39.243       27.017     2103.729     1540.027      729.931        0.393        0.219       49.379       23.736        0.231      347.049       25.740      864.150
08/17/2013  10:30:00       78.711       35.944       25.217       40.654       33.238       31.259     1652.770     1104.757      977.094        0.593        0.187       86.530       26.872        0.096      346.828       25.357      864.151
08/17/2013  10:31:00       51.252       -2.913       22.766       33.339       31.874       31.632     1111.520     1015.924     1000.555        0.314        0.156       51.335       27.238        0.282      346.890       25.463      864.152
08/17/2013  10:32:00       17.254        8.024       13.274       53.824       35.979       32.603     2896.992     1294.509     1062.962        0.290        0.263       19.029       31.677        2.771      346.798       25.306      864.151
08/17/2013  10:33:00       11.627       -5.859       13.082       29.397       20.705       23.702      864.172      428.706      561.766        0.110        0.093       13.020       17.654        1.838      347.090       25.808      864.146
08/17/2013  10:34:00       13.952       27.477       43.524       29.698       24.785       22.899      881.992      614.276      524.346        0.243        0.101       30.816       18.680        0.367      347.096       25.818      864.133
08/17/2013  10:35:00       44.424       40.459       39.036       35.511       26.808       29.761     1261.032      718.679      885.738        0.400        0.143       60.087       17.103        0.081      347.008       25.667      864.131
08/17/2013  10:36:00       67.005       60.758       45.995       64.316       41.654       37.281     4136.593     1735.043     1389.909        0.878        0.363       90.450       33.937        0.141      347.005       25.660      864.123
08/17/2013  10:37:00       28.423       48.512       65.590       55.828       44.522       39.074     3116.792     1982.184     1526.748        0.704        0.331       56.225       27.866        0.246      347.335       26.229      864.101
08/17/2013  10:38:00       42.031       27.314       57.984       47.904       51.024       32.225     2294.779     2603.404     1038.447        0.590        0.297       50.127       38.339        0.585      346.986       25.630      864.094
08/17/2013  10:39:00       25.982        3.781       41.308       41.945       49.219       35.027     1759.387     2422.499     1226.916        0.390        0.270       26.255       30.253        1.328      347.025       25.696      864.085
08/17/2013  10:40:00       99.620       43.095       29.893       56.147       47.820       53.369     3152.542     2286.722     2848.203        1.048        0.414      108.542       43.446        0.160      346.604       24.972      864.090
08/17/2013  10:41:00       80.838       71.447       80.492       54.763       58.471       44.430     2998.994     3418.869     1974.032        1.325        0.420      107.887       38.617        0.128      346.528       24.841      864.082
08/17/2013  10:42:00       36.186       24.327       34.462       40.092       35.423       44.415     1607.392     1254.758     1972.694        0.396        0.242       43.603       31.308        0.516      346.838       25.374      864.080
08/17/2013  10:43:00       91.757       27.608       74.088       46.287       63.173       36.759     2142.504     3990.837     1351.206        1.108        0.374       95.820       37.321        0.152      346.801       25.310      864.068
08/17/2013  10:44:00       25.811       13.800       30.617       36.214       41.603       19.063     1311.480     1730.849      363.399        0.260        0.170       29.269       22.079        0.569      346.780       25.274      864.069
08/17/2013  10:45:00       46.983       21.648       29.328       45.019       43.652       31.417     2026.694     1905.510      987.055        0.423        0.246       51.731       15.676        0.092      346.931       25.534      864.061
08/17/2013  10:46:00       44.544        4.305       37.242       36.121       46.262       30.672     1304.708     2140.160      940.774        0.389        0.219       44.751       29.524        0.435      346.821       25.345      864.053
08/17/2013  10:47:00       19.518     -109.959        7.918       50.196       49.184       34.152     2519.677     2419.034     1166.384        0.932        0.305      111.678       27.168        0.059      347.071       25.776      864.025
08/17/2013  10:48:00       21.383       -7.388       37.050       28.457       48.616       41.215      809.777     2363.528     1698.678        0.338        0.244       22.623       19.991        0.781      347.620       26.722      864.019
08/17/2013  10:49:00        3.155       17.820       51.634       34.907       30.918       31.546     1218.518      955.931      995.159        0.308        0.158       18.097       24.522        1.836      347.609       26.703      864.006
08/17/2013  10:50:00       33.704      -69.289       22.614       45.831       70.110       55.643     2100.451     4915.360     3096.163        0.828        0.506       77.051       52.453        0.463      347.440       26.410      863.992
08/17/2013  10:51:00       46.445      -37.498       24.241       44.149       71.814       53.268     1949.149     5157.229     2837.491        0.705        0.497       59.693       50.461        0.715      347.436       26.405      863.990
08/17/2013  10:52:00       40.892       50.472       60.420       53.190       50.671       42.746     2829.150     2567.545     1827.181        0.755        0.361       64.958       39.509        0.370      347.320       26.205      863.975
08/17/2013  10:53:00       38.224       -5.154       18.751       43.799       55.461       31.883     1918.364     3075.949     1016.518        0.392        0.301       38.570       30.691        0.633      347.192       25.983      863.968
08/17/2013  10:54:00        5.572       24.601       47.991       16.259       28.418       17.679      264.357      807.603      312.537        0.216        0.069       25.224       11.600        0.211      347.562       26.623      863.954
08/17/2013  10:55:00       78.533       48.105       24.488       50.856       33.545       32.869     2586.381     1125.263     1080.346        0.694        0.240       92.095       23.710        0.066      347.338       26.236      863.954
08/17/2013  10:56:00      130.489       26.490       19.254       70.030       48.522       38.811     4904.212     2354.364     1506.293        1.343        0.438      133.151       23.378        0.031      347.235       26.057      863.948
08/17/2013  10:57:00      109.706       64.099       22.616       49.158       47.930       38.454     2416.464     2297.300     1478.676        1.142        0.310      127.059       25.517        0.040      347.334       26.229      863.949
08/17/2013  10:58:00       71.162       50.231       15.519       60.934       36.620       31.526     3712.937     1341.028      993.919        0.694        0.302       87.104       33.016        0.144      347.258       26.097      863.956
08/17/2013  10:59:00       35.855       31.550       18.243       35.848       48.271       21.009     1285.103     2330.075      441.362        0.333        0.203       47.760        8.487        0.032      347.633       26.744      863.938
08/17/2013  11:00:00       -4.394       -4.310       26.210       13.955       17.119       16.634      194.732      293.077      276.678        0.074        0.038        6.155       13.005        4.464      348.232       27.778      863.936
08/17/2013  11:01:00      -10.849        6.984       28.462       33.376       22.863       19.478     1113.987      522.702      379.380        0.150        0.101       12.903       19.055        2.181      347.802       27.035      863.926
08/17/2013  11:02:00      -15.825      -24.210       -3.736       25.999       32.591       16.101      675.955     1062.167      259.237        0.142        0.100       28.924       13.301        0.211      347.341       26.240      863.921
08/17/2013  11:03:00      -16.921       -4.696       19.319       35.557       29.092       23.556     1264.282      846.352      554.865        0.167        0.133       17.561       17.210        0.960      347.908       27.220      863.908
08/17/2013  11:04:00      -26.179      -31.965        5.944       36.684       41.103       26.920     1345.717     1689.483      724.690        0.275        0.188       41.317       23.450        0.322      347.634       26.745      863.896
08/17/2013  11:05:00      -38.894      -14.213       21.413       35.863       48.681       29.675     1286.139     2369.879      880.604        0.335        0.227       41.410       21.235        0.263      347.681       26.827      863.884
08/17/2013  11:06:00        6.459      -93.855       -9.859       73.036       54.347       29.480     5334.297     2953.561      869.071        0.905        0.458       94.077       12.095        0.017      347.400       26.341      863.873
08/17/2013  11:07:00       -2.928      -11.548       17.020       44.028       44.080       26.460     1938.478     1943.067      700.110        0.251        0.229       11.913       12.748        1.145      347.754       26.951      863.859
08/17/2013  11:08:00       -7.747       35.620       57.317       18.159       33.795       19.706      329.738     1142.134      388.343        0.324        0.093       36.452       12.536        0.118      347.987       27.355      863.842
08/17/2013  11:09:00        4.212       23.104       45.367       31.702       24.068       26.041     1004.988      579.279      678.109        0.244        0.113       23.485       23.029        0.962      347.877       27.166      863.825
08/17/2013  11:10:00        9.780       13.938       26.817       20.390       32.469       22.483      415.754     1054.241      505.476        0.149        0.099       17.026       19.527        1.315      347.993       27.365      863.812
08/17/2013  11:11:00       32.618       16.630       30.043       46.252       38.925       19.862     2139.246     1515.181      394.512        0.315        0.202       36.612       23.397        0.408      348.106       27.561      863.793
08/17/2013  11:12:00       52.987       50.830       24.151       50.518       38.838       37.879     2552.115     1508.361     1434.809        0.573        0.275       73.425       27.644        0.142      347.693       26.848      863.782
08/17/2013  11:13:00       54.993       34.189       24.432       61.700       25.213       27.497     3806.853      635.706      756.084        0.499        0.260       64.754       17.925        0.077      347.941       27.275      863.772
08/17/2013  11:14:00       85.686       63.990        3.369       41.564       35.276       28.060     1727.585     1244.380      787.347        0.760        0.188      106.943       18.622        0.030      347.618       26.717      863.757
08/17/2013  11:15:00       25.435       -8.557       22.787       30.030       31.277       24.942      901.812      978.231      622.099        0.187        0.125       26.836       20.858        0.604      348.253       27.816      863.757
08/17/2013  11:16:00       77.180        0.771       24.789       43.994       29.678       31.486     1935.467      880.803      991.393        0.519        0.190       77.184       26.406        0.117      347.515       26.540      863.753
08/17/2013  11:17:00       29.683       29.389       51.224       41.462       29.553       21.364     1719.124      873.366      456.403        0.371        0.152       41.770       12.733        0.093      347.787       27.010      863.732
08/17/2013  11:18:00      -10.723      -30.327       39.822       23.783       28.511       21.473      565.629      812.882      461.088        0.223        0.092       32.167       12.789        0.158      348.156       27.646      863.724
08/17/2013  11:19:00        4.245        2.536       37.681       25.841       30.641       18.232      667.745      938.864      332.402        0.169        0.097        4.945       18.075       13.359      348.860       28.866      863.721
08/17/2013  11:20:00      -25.241       -0.837       16.091       20.789       27.327       23.785      432.190      746.784      565.703        0.132        0.087       25.255       20.966        0.689      348.111       27.570      863.725
08/17/2013  11:21:00       -9.396       12.336        3.084       30.709       18.440       18.960      943.052      340.027      359.480        0.095        0.082       15.506       20.319        1.717      347.757       26.959      863.723
08/17/2013  11:22:00        8.368       25.987       49.282       31.688       41.356       38.692     1004.132     1710.320     1497.067        0.369        0.211       27.301       33.946        1.546      348.273       27.851      863.724
08/17/2013  11:23:00       63.458       68.962       49.539       39.925       31.561       38.999     1593.979      996.076     1520.953        0.767        0.206       93.716       24.386        0.068      347.494       26.503      863.722
08/17/2013  11:24:00       23.164       25.190       40.671       34.812       27.585       26.303     1211.842      760.956      691.871        0.274        0.133       34.221       17.642        0.266      347.718       26.889      863.726
08/17/2013  11:25:00       15.086       18.606       14.756       20.254       19.749       19.166      410.226      390.030      367.330        0.098        0.058       23.954       12.438        0.270      347.823       27.072      863.726
08/17/2013  11:26:00       -0.292       -1.870       -4.482       13.939       18.787       13.097      194.309      352.948      171.541        0.037        0.036        1.893       11.303       35.667      347.897       27.199      863.707
08/17/2013  11:27:00       -7.785      -25.147        2.039       10.185       14.317       14.755      103.744      204.980      217.715        0.061        0.026       26.324       10.277        0.152      347.818       27.064      863.700
08/17/2013  11:28:00      -35.873        2.588        7.722       11.622       17.669       19.279      135.064      312.200      371.668        0.109        0.041       35.967       12.918        0.129      348.090       27.533      863.682
08/17/2013  11:29:00      -40.036       17.215        5.010       18.485       13.233       13.691      341.697      175.112      187.456        0.131        0.035       43.580        6.222        0.020      347.776       26.989      863.663
08/17/2013  11:30:00       -9.891        8.525       27.350       21.339       13.036       22.847      455.370      169.950      521.972        0.103        0.057       13.058       16.500        1.597      348.602       28.420      863.656
08/17/2013  11:31:00       45.577       -5.389       11.144       29.613       36.136       22.941      876.922     1305.793      526.312        0.247        0.135       45.894       20.855        0.206      347.542       26.586      863.643
08/17/2013  11:32:00        5.365       17.412       30.055       41.326       31.657       25.968     1707.879     1002.177      674.348        0.231        0.169       18.220       18.858        1.071      348.088       27.529      863.623
08/17/2013  11:33:00      -20.518      -13.424        8.584       19.684       21.906       19.685      387.462      479.871      387.514        0.096        0.063       24.519       10.019        0.167      348.296       27.888      863.601
08/17/2013  11:34:00        6.031       28.188       22.838       26.687       30.170       28.771      712.203      910.248      827.754        0.190        0.123       28.826       17.818        0.382      348.434       28.128      863.583
08/17/2013  11:35:00       10.012        3.224       38.599       34.584       37.742       31.895     1196.040     1424.490     1017.295        0.262        0.182       10.519       25.619        5.932      348.408       28.083      863.577
08/17/2013  11:36:00       31.774       14.754       22.890       33.932       27.155       29.494     1151.347      737.380      869.903        0.225        0.138       35.032       25.456        0.528      348.435       28.130      863.560
08/17/2013  11:37:00      -22.368       39.622       59.689       21.040       43.791       35.000      442.692     1917.658     1225.033        0.461        0.179       45.500       33.211        0.533      348.446       28.149      863.543
08/17/2013  11:38:00      -25.278       22.335       38.182       34.868       32.932       20.107     1215.761     1084.549      404.286        0.265        0.135       33.731        6.332        0.035      348.801       28.762      863.535
08/17/2013  11:39:00      -30.576       -6.702       22.902       33.452       42.150       33.370     1119.023     1776.660     1113.585        0.276        0.200       31.302       32.039        1.048      348.627       28.462      863.516
08/17/2013  11:40:00      -15.058      -20.534       13.102       27.708       38.264       25.740      767.744     1464.120      662.531        0.186        0.145       25.464       17.523        0.474      348.737       28.652      863.504
08/17/2013  11:41:00       27.747      -20.701       18.270       24.224       31.789       22.950      586.826     1010.526      526.695        0.183        0.106       34.619       20.918        0.365      348.512       28.262      863.495
08/17/2013  11:42:00        8.198        4.341       13.688       25.339       16.247       23.431      642.081      263.956      549.033        0.086        0.073        9.276       14.090        2.307      348.539       28.310      863.489
08/17/2013  11:43:00        5.169       -3.998       17.596       21.724       29.920       20.986      471.939      895.177      440.414        0.108        0.090        6.535       17.139        6.878      348.639       28.484      863.478
08/17/2013  11:44:00      -17.688       23.732       10.295       31.383       21.699       27.983      984.924      470.837      783.026        0.161        0.112       29.599       17.600        0.354      348.717       28.620      863.465
08/17/2013  11:45:00       36.173       -3.350       16.396       48.565       72.575       44.619     2358.527     5267.142     1990.812        0.560        0.481       36.328       44.890        1.527      348.482       28.210      863.457
08/17/2013  11:46:00       -7.702       -1.773       47.681       29.533       45.198       27.488      872.171     2042.833      755.573        0.300        0.184        7.903       21.381        7.319      349.022       29.145      863.447
08/17/2013  11:47:00       46.489      -49.169        8.720       49.434       76.251       38.717     2443.726     5814.246     1499.019        0.720        0.488       67.667       39.637        0.343      348.531       28.295      863.435
08/17/2013  11:48:00       34.422        5.382       45.419       35.721       41.601       40.372     1275.995     1730.644     1629.917        0.396        0.232       34.840       29.089        0.697      349.085       29.255      863.419
08/17/2013  11:49:00       12.788       -0.928       12.164       23.235       22.444       28.373      539.875      503.726      805.002        0.108        0.092       12.822       18.661        2.118      348.668       28.531      863.400
08/17/2013  11:50:00       22.192       13.899       27.577       22.098       18.911       15.834      488.326      357.627      250.724        0.127        0.055       26.185        8.766        0.112      348.724       28.630      863.376
08/17/2013  11:51:00       11.760       60.173        3.919       26.653       36.559       26.021      710.370     1336.536      677.086        0.325        0.136       61.312       16.213        0.070      348.757       28.688      863.362
08/17/2013  11:52:00       33.864       34.959       29.791       41.961       25.625       32.368     1760.767      656.642     1047.678        0.336        0.173       48.671       22.478        0.213      348.934       28.993      863.342
08/17/2013  11:53:00        2.043       -4.398       14.946       25.550       27.238       21.887      652.827      741.895      479.037        0.106        0.094        4.849        8.927        3.390      349.220       29.490      863.329
08/17/2013  11:54:00        8.651       -6.438       31.244       36.904       27.913       28.079     1361.879      779.109      788.426        0.201        0.146       10.784       23.364        4.694      349.298       29.624      863.313
08/17/2013  11:55:00       16.287        4.951       35.828       53.787       40.311       33.028     2893.067     1625.009     1090.831        0.359        0.280       17.023       27.005        2.517      348.557       28.342      863.294
08/17/2013  11:56:00        2.193       12.296       12.542       18.768       22.492       14.782      352.232      505.869      218.498        0.069        0.054       12.490        5.970        0.228      349.221       29.492      863.278
08/17/2013  11:57:00       13.681        7.952       18.630       18.283       17.740       15.060      334.266      314.713      226.810        0.074        0.044       15.824       11.029        0.486      349.607       30.159      863.268
08/17/2013  11:58:00      -32.838       -8.935       27.429       34.902       45.186       36.016     1218.175     2041.745     1297.179        0.323        0.228       34.032       35.874        1.111      349.380       29.765      863.245
08/17/2013  11:59:00      -18.198      -19.290       14.881       32.158       52.993       35.352     1034.111     2808.206     1249.742        0.301        0.255       26.519       25.943        0.957      349.175       29.410      863.229
08/17/2013  12:00:00      -20.266       -5.741       22.789       35.675       30.380       26.010     1272.718      922.926      676.538        0.192        0.144       21.064       23.585        1.254      349.335       29.688      863.225
08/17/2013  12:01:00       -7.239      -96.129       -8.204       29.978       43.049       25.549      898.678     1853.241      652.738        0.638        0.170       96.401       21.000        0.047      348.472       28.193      863.210
08/17/2013  12:02:00      -47.541      -59.901        7.400       43.567       41.143       36.255     1898.054     1692.739     1314.461        0.540        0.245       76.474       28.661        0.140      348.804       28.768      863.196
08/17/2013  12:03:00      -51.747      -96.219      -12.490       34.834       42.954       25.191     1213.422     1845.062      634.577        0.789        0.185      109.251       22.890        0.044      348.438       28.135      863.194
08/17/2013  12:04:00      -69.240     -117.966       -8.515       39.217       29.620       23.297     1537.946      877.362      542.728        1.087        0.148      136.785       22.114        0.026      348.314       27.920      863.180
08/17/2013  12:05:00      -86.350      -39.024      -13.881       26.638       32.575       20.119      709.571     1061.113      404.768        0.567        0.109       94.759       18.432        0.038      348.420       28.103      863.158
08/17/2013  12:06:00      -84.646      -49.251        1.488       52.511       44.837       29.261     2757.435     2010.365      856.227        0.761        0.281       97.931       22.678        0.054      348.575       28.370      863.142
08/17/2013  12:07:00      -50.650      -95.671        0.218       43.509       80.553       28.242     1893.001     6488.794      797.615        1.045        0.459      108.252       21.533        0.040      348.619       28.447      863.130
08/17/2013  12:08:00      -41.125     -169.568        4.967       54.245       64.848       27.839     2942.527     4205.305      775.020        1.919        0.396      174.484       26.039        0.022      348.458       28.167      863.113
08/17/2013  12:09:00     -119.369      -60.967        5.240       60.429       52.607       32.459     3651.704     2767.529     1053.591        1.273        0.374      134.037       30.412        0.051      348.707       28.599      863.102
08/17/2013  12:10:00      -29.349      -21.700       -0.334       29.299       24.355       19.353      858.406      593.180      374.523        0.158        0.091       36.500       14.961        0.168      348.848       28.845      863.095
08/17/2013  12:11:00      -11.632        4.999       15.674       25.456       22.544       28.156      647.986      508.249      792.780        0.118        0.097       12.661       15.868        1.571      349.294       29.617      863.080
08/17/2013  12:12:00       21.896     -115.727       -8.357       57.837       49.375       33.023     3345.110     2437.905     1090.548        1.041        0.344      117.780       16.373        0.019      348.898       28.930      863.067
08/17/2013  12:13:00      -42.834      -56.893       12.599       59.392       78.724       42.753     3527.361     6197.420     1827.853        0.839        0.578       71.215       45.140        0.402      348.969       29.053      863.037
08/17/2013  12:14:00       20.966      -76.965       12.494       53.998       70.966       47.836     2915.798     5036.141     2288.306        0.838        0.512       79.769       35.739        0.201      349.053       29.199      863.012
08/17/2013  12:15:00       68.539     -126.524       -4.503       60.811       80.085       54.841     3698.005     6413.563     3007.486        1.692        0.656      143.895       55.789        0.150      348.872       28.886      862.994
08/17/2013  12:16:00       81.763      -87.596        3.805       67.396       67.210       51.609     4542.194     4517.240     2663.501        1.305        0.586      119.826       53.180        0.197      348.914       28.958      862.973
08/17/2013  12:17:00       46.442      -37.444       -2.166       47.442       73.765       34.455     2250.703     5441.331     1187.150        0.622        0.444       59.656       30.988        0.270      349.080       29.247      862.954
08/17/2013  12:18:00       87.377       46.469       12.191       35.345       26.231       36.345     1249.235      688.088     1320.929        0.660        0.163       98.965       13.195        0.018      348.830       28.813      862.955
08/17/2013  12:19:00       45.854        0.582       21.568       28.669       37.032       27.059      821.905     1371.380      732.212        0.275        0.146       45.858       10.161        0.049      348.829       28.811      862.934
08/17/2013  12:20:00       48.541        4.857       28.202       32.363       29.217       31.493     1047.350      853.652      991.830        0.303        0.145       48.784       12.151        0.062      349.142       29.354      862.929
08/17/2013  12:21:00       85.422       74.334       15.935       61.055       50.057       49.130     3727.681     2505.675     2413.761        1.086        0.432      113.237       33.468        0.087      349.143       29.355      862.911
08/17/2013  12:22:00      108.399       75.836        9.606       36.807       41.453       44.351     1354.754     1718.381     1966.969        1.132        0.252      132.293       23.891        0.033      348.841       28.833      862.907
08/17/2013  12:23:00       48.723       77.731       20.230       53.120       50.115       33.338     2821.742     2511.502     1111.436        0.763        0.322       91.739       27.191        0.088      349.237       29.518      862.896
08/17/2013  12:24:00       90.062       61.587       43.371       42.965       38.023       37.696     1845.951     1445.751     1421.005        0.925        0.236      109.106       20.652        0.036      348.916       28.961      862.899
08/17/2013  12:25:00      160.267       90.255       36.191       49.345       38.162       47.166     2434.951     1456.347     2224.652        2.063        0.306      183.933       23.208        0.016      348.951       29.020      862.887
08/17/2013  12:26:00      103.726       52.399       24.642       65.796       49.413       43.310     4329.166     2441.641     1875.757        1.138        0.432      116.210       33.729        0.084      349.221       29.490      862.874
08/17/2013  12:27:00      128.836       99.619       29.643       53.599       43.622       43.847     2872.882     1902.902     1922.596        1.705        0.335      162.858       30.776        0.036      348.874       28.888      862.868
08/17/2013  12:28:00       62.497       85.572       74.273       56.802       55.583       31.805     3226.458     3089.439     1011.570        1.203        0.366      105.964       26.083        0.061      349.074       29.236      862.855
08/17/2013  12:29:00       42.942       60.376       21.396       40.335       31.426       41.078     1626.907      987.589     1687.394        0.512        0.215       74.089       15.961        0.046      348.853       28.853      862.845
08/17/2013  12:30:00       15.176       43.589       29.289       37.414       43.180       26.860     1399.791     1864.511      721.454        0.349        0.199       46.155       20.382        0.195      349.414       29.826      862.827
08/17/2013  12:31:00       -9.873       19.224       40.806       15.630       22.740       18.483      244.310      517.098      341.634        0.162        0.055       21.611       11.250        0.271      349.524       30.015      862.816
08/17/2013  12:32:00       20.370       31.123       25.593       22.978       17.879       25.130      527.977      319.655      631.514        0.176        0.074       37.197        5.816        0.024      348.957       29.032      862.798
08/17/2013  12:33:00       26.450       18.516       19.056       29.400       26.367       22.201      864.388      695.233      492.876        0.173        0.103       32.288        9.248        0.082      348.968       29.051      862.778
08/17/2013  12:34:00       56.053       47.056       13.004       38.069       26.704       32.147     1449.277      713.130     1033.459        0.436        0.160       73.186       15.449        0.045      349.036       29.170      862.754
08/17/2013  12:35:00       37.393      -19.639        6.487       40.584       60.992       41.280     1647.042     3720.040     1704.074        0.445        0.354       42.237       32.898        0.607      348.994       29.097      862.742
08/17/2013  12:36:00       58.948       57.467       41.544       40.655       51.232       46.231     1652.790     2624.735     2137.308        0.746        0.321       82.324       22.991        0.078      348.989       29.088      862.715
08/17/2013  12:37:00       86.396       53.527       46.936       68.861       54.948       51.576     4741.783     3019.270     2660.061        1.148        0.521      101.634       25.904        0.065      349.286       29.603      862.708
08/17/2013  12:38:00       76.982       84.048       88.822       84.736       65.452       45.564     7180.263     4283.908     2076.075        1.721        0.677      113.975       31.119        0.075      349.245       29.531      862.688
08/17/2013  12:39:00      106.957       77.265       21.332       54.913       44.309       38.589     3015.449     1963.321     1489.127        1.217        0.323      131.945       19.269        0.021      348.948       29.017      862.686
08/17/2013  12:40:00        7.938        3.663       -6.177       53.687       22.930       19.288     2882.338      525.787      372.020        0.195        0.189        8.742       16.822        3.703      349.096       29.273      862.678
08/17/2013  12:41:00      -21.799        2.740       24.443       36.840       22.111       25.118     1357.155      488.880      630.904        0.178        0.124       21.970       25.140        1.309      349.450       29.885      862.682
08/17/2013  12:42:00      -89.656      -20.242       -5.799       25.110       28.364       23.971      630.510      804.513      574.609        0.525        0.100       91.913        7.826        0.007      348.857       28.860      862.677
08/17/2013  12:43:00      -42.588      -37.925        7.774       45.629       37.399       31.341     2082.009     1398.685      982.263        0.389        0.223       57.027       29.648        0.270      348.968       29.053      862.660
08/17/2013  12:44:00      -58.429     -100.947       -1.291       41.575       31.143       24.322     1728.471      969.869      591.572        0.845        0.164      116.637       16.641        0.020      348.755       28.681      862.673
08/17/2013  12:45:00      -46.770     -163.114       -9.726       39.815       95.832       24.654     1585.198     9183.796      607.821        2.013        0.569      169.687       19.233        0.013      348.719       28.619      862.674
08/17/2013  12:46:00      -25.850     -116.204        4.273       49.132       57.411       31.555     2413.935     3295.976      995.723        1.045        0.335      119.044       32.884        0.076      348.896       28.926      862.666
08/17/2013  12:47:00      -28.925      -13.302        4.613       52.046       35.438       35.269     2708.797     1255.861     1243.869        0.312        0.260       31.837       26.784        0.708      349.213       29.476      862.646
08/17/2013  12:48:00       43.808       21.992       16.058       31.161       24.645       29.679      970.988      607.391      880.838        0.256        0.123       49.018       12.363        0.064      348.783       28.731      862.624
08/17/2013  12:49:00       12.490      -28.091        4.947       26.044       31.670       24.213      678.307     1002.967      586.246        0.162        0.113       30.742        9.545        0.096      348.733       28.644      862.601
08/17/2013  12:50:00      -58.936      -61.821       -2.929       39.200       34.601       23.118     1536.603     1197.242      534.443        0.529        0.163       85.413       21.677        0.064      348.935       28.994      862.583
08/17/2013  12:51:00      -34.102      -30.582       -9.327       33.606       17.343       19.035     1129.383      300.767      362.345        0.199        0.090       45.806       11.548        0.064      349.016       29.135      862.573
08/17/2013  12:52:00      -24.542      -77.266       -7.513       16.808       29.359       16.023      282.522      861.970      256.746        0.401        0.070       81.069        8.821        0.012      348.860       28.865      862.556
08/17/2013  12:53:00      -41.358      -67.698       -6.093       10.540       20.470       10.532      111.087      419.001      110.914        0.349        0.032       79.332        6.966        0.008      348.773       28.716      862.536
08/17/2013  12:54:00      -13.951        1.226        4.561       16.227       18.000       17.758      263.321      323.992      315.340        0.056        0.045       14.005        3.166        0.051      349.430       29.855      862.518
08/17/2013  12:55:00       37.168       41.156        3.014       32.305       44.513       39.026     1043.640     1981.436     1523.051        0.382        0.227       55.455       23.961        0.187      348.868       28.879      862.501
08/17/2013  12:56:00       50.869       39.808        7.833       24.263       26.603       30.196      588.697      707.730      911.779        0.322        0.110       64.593       20.498        0.101      348.950       29.021      862.494
08/17/2013  12:57:00      -14.500       52.670       11.403       25.948       30.898       25.019      673.322      954.665      625.930        0.268        0.113       54.629       19.040        0.121      349.512       29.994      862.483
08/17/2013  12:58:00       47.940       55.851        2.330       34.873       31.056       27.334     1216.157      964.501      747.122        0.417        0.146       73.604       19.924        0.073      349.301       29.627      862.479
08/17/2013  12:59:00       43.843       25.822        5.460       28.589       45.564       28.366      817.357     2076.048      804.615        0.316        0.185       50.882       16.898        0.110      349.092       29.267      862.452
08/17/2013  13:00:00       39.865       59.182       19.498       37.314       58.996       36.255     1392.367     3480.570     1314.410        0.583        0.309       71.356       23.378        0.107      349.230       29.506      862.440
08/17/2013  13:01:00       -8.051      124.254       15.682       32.234       74.793       37.951     1039.050     5593.939     1440.258        1.191        0.404      124.514       40.469        0.106      349.547       30.054      862.425
08/17/2013  13:02:00      -23.548      125.184       -8.650       37.501       59.119       44.040     1406.345     3495.098     1939.533        1.157        0.342      127.380       33.241        0.068      349.269       29.573      862.403
08/17/2013  13:03:00      -15.002       21.831       19.900       36.357       24.949       26.678     1321.864      622.450      711.737        0.188        0.133       26.488       15.257        0.332      350.030       30.894      862.396
08/17/2013  13:04:00      -59.269       51.764       12.027       40.671       44.037       34.079     1654.099     1939.262     1161.411        0.555        0.238       78.691       27.367        0.121      349.721       30.357      862.389
08/17/2013  13:05:00      -46.607       65.806       -4.606       29.297       38.190       27.109      858.333     1458.468      734.887        0.479        0.153       80.639       19.351        0.058      349.529       30.025      862.373
08/17/2013  13:06:00      -39.228       73.959        9.712       31.419       43.185       28.863      987.137     1864.931      833.079        0.539        0.184       83.719       25.638        0.094      349.667       30.264      862.352
08/17/2013  13:07:00       -6.869      130.860       -8.650       42.792       55.282       35.179     1831.134     3056.100     1237.577        1.168        0.306      131.040       30.893        0.056      349.365       29.738      862.340
08/17/2013  13:08:00        9.477       97.561       -9.215       36.867       46.677       40.115     1359.196     2178.753     1609.211        0.742        0.257       98.021       36.495        0.139      349.530       30.026      862.327
08/17/2013  13:09:00       18.518       37.529        1.854       28.966       42.646       32.425      839.026     1818.686     1051.374        0.273        0.185       41.849       29.205        0.487      349.683       30.292      862.326
08/17/2013  13:10:00        0.600        5.851       39.159       12.969       12.204       10.795      168.200      148.936      116.537        0.100        0.022        5.882        8.084        1.889      350.237       31.252      862.309
08/17/2013  13:11:00      -23.254       22.990       22.463       19.868       19.160       22.110      394.722      367.120      488.849        0.141        0.063       32.700       13.025        0.159      349.816       30.522      862.293
08/17/2013  13:12:00       -0.997       34.868       14.231       15.887       26.526       18.726      252.395      703.645      350.681        0.136        0.065       34.882       15.144        0.188      349.833       30.553      862.286
08/17/2013  13:13:00       20.501       19.340       21.541       25.429       18.771       20.029      646.631      352.367      401.150        0.133        0.070       28.184       16.197        0.330      349.687       30.299      862.275
08/17/2013  13:14:00       71.311       42.815        3.492       24.519       26.385       18.795      601.182      696.161      353.247        0.429        0.083       83.177       13.188        0.025      349.245       29.531      862.256
08/17/2013  13:15:00       65.297       66.765       -2.512       26.202       24.763       30.503      686.553      613.227      930.429        0.548        0.112       93.388       18.196        0.038      349.339       29.694      862.254
08/17/2013  13:16:00       39.373       39.096        2.668       29.139       31.478       32.858      849.058      990.875     1079.678        0.300        0.146       55.487       24.267        0.191      349.452       29.892      862.241
08/17/2013  13:17:00       13.435        7.439       23.872       19.176       14.229       13.991      367.706      202.453      195.750        0.079        0.038       15.357        6.126        0.159      349.898       30.664      862.230
08/17/2013  13:18:00       20.893       32.444        2.616       20.286       23.978       27.855      411.540      574.939      775.907        0.163        0.088       38.589       13.384        0.120      349.228       29.501      862.229
08/17/2013  13:19:00       -0.318       27.533       15.696       21.518       28.654       17.978      463.032      821.069      323.195        0.131        0.080       27.535       13.231        0.231      349.847       30.576      862.212
08/17/2013  13:20:00      -15.825       27.246       14.829       25.069       26.026       21.826      628.466      677.330      476.367        0.150        0.089       31.508       14.660        0.216      350.103       31.020      862.208
08/17/2013  13:21:00      -21.022        6.318        7.280       19.738       33.147       16.691      389.586     1098.742      278.594        0.115        0.088       21.951       13.369        0.371      349.864       30.604      862.205
08/17/2013  13:22:00       -3.934       28.609       15.388       32.831       32.877       31.401     1077.905     1080.908      986.007        0.211        0.157       28.879       15.734        0.297      350.236       31.252      862.187
08/17/2013  13:23:00       29.859       31.082       23.621       33.976       40.509       34.169     1154.392     1640.977     1167.525        0.319        0.198       43.100       33.110        0.590      349.748       30.404      862.183
08/17/2013  13:24:00      -23.041       75.337      -19.425       26.762       76.307       23.568      716.215     5822.696      555.437        0.684        0.355       78.782        6.538        0.007      349.266       29.566      862.176
08/17/2013  13:25:00       11.252      -22.571        6.786       18.358       32.504       24.526      337.017     1056.536      601.514        0.134        0.100       25.220       24.898        0.975      349.641       30.219      862.179
08/17/2013  13:26:00       26.040       23.773       48.699       24.413       26.311       15.982      596.013      692.254      255.431        0.258        0.077       35.260       12.671        0.129      349.677       30.282      862.155
08/17/2013  13:27:00       44.188        5.452       23.169       33.695       26.037       30.259     1135.367      677.937      915.622        0.262        0.136       44.523       19.652        0.195      349.430       29.854      862.148
08/17/2013  13:28:00       37.567       -8.443       31.410       41.581       26.347       30.927     1728.951      694.180      956.487        0.292        0.169       38.504       13.280        0.119      349.225       29.499      862.132
08/17/2013  13:29:00       85.105      -24.641       20.688       28.901       31.449       32.394      835.259      989.021     1049.371        0.558        0.144       88.601       19.162        0.047      348.441       28.139      862.129
08/17/2013  13:30:00       57.397       -6.361       22.316       52.587       40.465       37.085     2765.349     1637.415     1375.298        0.480        0.289       57.748       37.473        0.421      348.892       28.919      862.109
08/17/2013  13:31:00       64.345      -13.183       -9.096       35.470       25.511       15.860     1258.122      650.829      251.525        0.328        0.108       65.681        6.353        0.009      348.966       29.048      862.115
08/17/2013  13:32:00       59.064      -11.193       11.524       31.691       21.454       27.973     1004.345      460.292      782.485        0.300        0.112       60.115       11.734        0.038      348.885       28.908      862.093
08/17/2013  13:33:00       37.704        9.487       42.007       30.587       30.754       21.320      935.582      945.782      454.546        0.281        0.117       38.880       17.207        0.196      349.051       29.196      862.077
08/17/2013  13:34:00        7.794        6.679       26.020       17.473       22.401       24.769      305.294      501.821      613.520        0.110        0.071       10.264       16.522        2.591      349.631       30.199      862.059
08/17/2013  13:35:00        2.473      -24.835       19.935       22.260       39.670       24.216      495.501     1573.711      586.396        0.184        0.133       24.958       24.636        0.974      349.783       30.465      862.048
08/17/2013  13:36:00        9.648      -63.344       -8.428       15.542       21.394       25.596      241.558      457.694      655.145        0.277        0.068       64.075       12.734        0.039      349.605       30.155      862.035
08/17/2013  13:37:00      -25.908       18.615       -3.226       34.856       49.012       22.169     1214.909     2402.215      491.482        0.257        0.205       31.902       19.360        0.368      349.772       30.447      862.018
08/17/2013  13:38:00      -76.308       17.479       -8.993       36.434       26.898       24.314     1327.460      723.521      591.183        0.443        0.132       78.284       22.288        0.081      349.773       30.450      862.009
08/17/2013  13:39:00      -81.684       35.005      -14.408       22.311       33.019       20.006      497.767     1090.232      400.246        0.505        0.099       88.869       14.806        0.028      349.523       30.014      861.986
08/17/2013  13:40:00      -31.535      -27.617        2.588       29.398       24.348       21.549      864.224      592.821      464.339        0.184        0.096       41.918       19.997        0.228      349.686       30.297      861.976
08/17/2013  13:41:00       26.037       26.399       27.337       36.716       34.027       24.353     1348.061     1157.824      593.061        0.261        0.155       37.079       19.149        0.267      349.547       30.054      861.938
08/17/2013  13:42:00       34.808       41.743       24.524       44.604       31.461       23.358     1989.538      989.825      545.578        0.354        0.176       54.351       15.970        0.086      349.502       29.979      861.922
08/17/2013  13:43:00       -3.498       53.185       17.065       37.663       36.864       34.384     1418.525     1358.989     1182.241        0.355        0.198       53.300       32.000        0.360      350.195       31.180      861.900
08/17/2013  13:44:00       46.106       12.162        0.693       31.718       30.563       28.860     1006.025      934.100      832.902        0.252        0.139       47.684       24.071        0.255      349.676       30.278      861.900
08/17/2013  13:45:00      -34.784        8.955      -12.204       48.979       22.023       19.030     2398.933      484.996      362.137        0.234        0.162       35.918       18.169        0.256      350.055       30.937      861.874
08/17/2013  13:46:00      -39.705       -9.572       12.779       33.584       42.251       25.639     1127.855     1785.126      657.373        0.270        0.179       40.842       23.154        0.321      350.315       31.390      861.886
08/17/2013  13:47:00     -112.670      -27.756       11.274       67.955       51.204       32.762     4617.927     2621.830     1073.351        1.095        0.416      116.039       34.399        0.088      349.887       30.645      861.869
08/17/2013  13:48:00      -37.044      -28.945      -10.784       58.002       55.642       27.846     3364.225     3096.019      775.404        0.478        0.362       47.011        8.504        0.033      350.053       30.934      861.857
08/17/2013  13:49:00      -43.415      -61.493        8.786       63.679       47.164       33.156     4055.057     2224.479     1099.295        0.656        0.369       75.275       21.498        0.082      350.047       30.923      861.836
08/17/2013  13:50:00      -62.462      -89.949        8.910       73.395       48.125       38.677     5386.753     2315.984     1495.911        1.063        0.460      109.509       38.974        0.127      349.900       30.668      861.823
08/17/2013  13:51:00       -2.401     -151.338        2.240       70.110       68.142       39.622     4915.375     4643.310     1569.912        1.702        0.556      151.357       24.852        0.027      349.698       30.317      861.814
08/17/2013  13:52:00       69.471      -40.717       27.833       50.961       93.627       59.270     2596.989     8765.925     3512.981        1.106        0.744       80.523       59.746        0.551      349.858       30.595      861.808
08/17/2013  13:53:00       28.788     -104.134       -6.196       55.960       67.187       37.757     3131.546     4514.032     1425.563        1.039        0.454      108.040       33.300        0.095      349.925       30.710      861.787
08/17/2013  13:54:00       30.955     -139.481      -35.369       69.093       60.405       43.024     4773.882     3648.755     1851.060        1.597        0.514      142.875       34.280        0.058      349.902       30.671      861.783
08/17/2013  13:55:00        9.428     -110.730      -17.486       70.961       56.186       25.022     5035.402     3156.895      626.081        1.074        0.441      111.131       19.246        0.030      349.666       30.261      861.779
08/17/2013  13:56:00       66.444      -97.569       22.324       58.691       55.270       38.785     3444.644     3054.823     1504.265        1.122        0.400      118.044       37.651        0.102      349.940       30.738      861.768
08/17/2013  13:57:00       43.626      -49.446       31.798       43.884       69.015       37.654     1925.773     4763.060     1417.802        0.673        0.405       65.941       45.141        0.469      349.831       30.548      861.766
08/17/2013  13:58:00       -8.371      -10.522       12.398       37.155       31.893       23.969     1380.500     1017.177      574.502        0.165        0.149       13.446       18.671        1.928      350.096       31.009      861.758
08/17/2013  13:59:00      -32.159        2.443        7.015       40.436       19.884       15.415     1635.088      395.368      237.623        0.168        0.113       32.252        8.233        0.065      349.842       30.567      861.732
08/17/2013  14:00:00       34.679      -66.398        6.855       33.828       49.321       33.765     1144.364     2432.604     1140.107        0.519        0.236       74.909       26.867        0.129      349.623       30.189      861.716
08/17/2013  14:01:00       24.888      -13.939       15.625       36.676       36.117       31.979     1345.147     1304.440     1022.685        0.236        0.184       28.525       21.749        0.581      349.766       30.437      861.693
08/17/2013  14:02:00       84.455      -47.278       43.063       41.827       78.145       51.520     1749.458     6106.579     2654.325        1.086        0.526       96.788       49.856        0.265      349.632       30.202      861.678
08/17/2013  14:03:00       67.076       41.927       27.829       48.849       46.904       33.633     2386.237     2200.030     1131.191        0.637        0.286       79.102       14.852        0.035      349.470       29.922      861.650
08/17/2013  14:04:00       91.968       81.719       -4.268       31.496       27.391       28.833      992.002      750.294      831.316        0.886        0.129      123.029       23.488        0.036      349.782       30.463      861.623
08/17/2013  14:05:00       79.136       87.217       36.293       43.891       35.230       44.382     1926.376     1241.152     1969.789        1.016        0.257      117.768       16.530        0.020      349.876       30.626      861.590
08/17/2013  14:06:00      130.390       83.470       26.289       49.014       33.462       40.941     2402.354     1119.717     1676.144        1.493        0.260      154.818       26.220        0.029      349.750       30.407      861.572
08/17/2013  14:07:00      140.797       81.334       39.570       64.037       41.407       46.619     4100.735     1714.529     2173.373        1.800        0.399      162.601       18.957        0.014      350.024       30.883      861.555
08/17/2013  14:08:00      129.370      133.642       82.876       84.389       52.160       57.426     7121.451     2720.646     3297.796        2.730        0.657      186.002       44.531        0.057      349.934       30.724      861.541
08/17/2013  14:09:00      215.112      123.770       37.158       82.604       62.377       65.259     6823.500     3890.909     4258.683        3.897        0.749      248.177       46.224        0.035      350.068       30.956      861.529
08/17/2013  14:10:00      164.424       75.913       30.491       82.837       53.979       57.461     6861.924     2913.682     3301.791        2.340        0.654      181.102       37.715        0.043      350.086       30.987      861.513
08/17/2013  14:11:00      124.830       94.577        2.891       66.664       43.094       34.901     4444.080     1857.082     1218.048        1.603        0.376      156.612       19.148        0.015      349.956       30.764      861.510
08/17/2013  14:12:00      118.749       75.831       11.666       44.769       40.615       28.572     2004.234     1649.615      816.334        1.223        0.224      140.896       17.321        0.015      349.759       30.422      861.487
08/17/2013  14:13:00        6.251       48.179       19.638       44.387       46.631       29.972     1970.239     2174.493      898.346        0.389        0.252       48.583       22.721        0.219      350.392       31.524      861.466
08/17/2013  14:14:00        5.990      -16.496       -0.176       66.019       34.814       24.356     4358.568     1212.042      593.199        0.323        0.308       17.550        9.660        0.303      350.013       30.865      861.474
08/17/2013  14:15:00     -115.886      -16.737       -6.177       66.483       37.942       24.010     4419.927     1439.625      576.459        1.009        0.322      117.089       16.875        0.021      350.302       31.366      861.452
08/17/2013  14:16:00     -106.562       80.042       -5.787       61.274       47.073       35.302     3754.472     2215.873     1246.217        1.250        0.361      133.275       38.379        0.083      350.571       31.834      861.438
08/17/2013  14:17:00      -88.198       60.402       13.694       83.996       52.374       51.306     7055.301     2742.993     2632.274        1.202        0.622      106.898       56.782        0.282      350.563       31.820      861.405
08/17/2013  14:18:00     -178.740       18.635      -17.648      117.861       91.163       49.844    13891.272     8310.773     2484.379        2.864        1.234      179.709       62.160        0.120      350.175       31.142      861.369
08/17/2013  14:19:00     -116.208      -14.932        5.157       93.493       62.229       33.627     8741.020     3872.456     1130.786        1.375        0.687      117.163       32.185        0.075      350.286       31.338      861.335
08/17/2013  14:20:00       74.054       52.510       47.539       65.962       53.772       41.119     4350.977     2891.463     1690.783        0.972        0.447       90.781       35.011        0.149      350.126       31.059      861.330
08/17/2013  14:21:00       -7.992       20.152       32.041       64.709       49.821       43.895     4187.220     2482.104     1926.735        0.504        0.430       21.679       34.239        2.494      350.527       31.756      861.312
08/17/2013  14:22:00        0.133      -37.526       -2.323       48.139       51.632       46.213     2317.329     2665.840     2135.609        0.426        0.356       37.526       32.994        0.773      350.171       31.140      861.302
08/17/2013  14:23:00       55.475      -84.790        3.922       67.407       67.814       56.809     4543.643     4598.762     3227.284        1.132        0.618      101.325       43.124        0.181      350.206       31.199      861.278
08/17/2013  14:24:00       76.454     -132.273      -18.253       53.382       71.299       49.669     2849.602     5083.613     2467.032        1.704        0.520      152.779       49.212        0.104      350.138       31.081      861.250
08/17/2013  14:25:00        9.616      -56.236        1.675       37.723       34.326       26.782     1422.991     1178.305      717.285        0.329        0.166       57.052       14.397        0.064      349.785       30.468      861.229
08/17/2013  14:26:00       -6.022      -66.286       -2.210       58.430       55.039       40.286     3414.037     3029.276     1622.960        0.625        0.403       66.559       11.699        0.031      350.294       31.352      861.215
08/17/2013  14:27:00      -99.444      -64.382        9.152      109.736       85.415       36.362    12041.896     7295.735     1322.229        1.739        1.033      118.466       44.435        0.141      350.302       31.365      861.201
08/17/2013  14:28:00     -159.751     -103.684       11.535      116.931       71.474       41.587    13672.820     5108.507     1729.456        2.845        1.026      190.449       47.376        0.062      350.051       30.928      861.196
08/17/2013  14:29:00      -70.053      -64.475       10.192       74.605       70.897       41.451     5565.966     5026.349     1718.207        1.074        0.616       95.207       29.030        0.093      350.218       31.220      861.185
08/17/2013  14:30:00      -34.314      -77.495       -8.199       44.995       45.181       26.294     2024.559     2041.361      691.364        0.600        0.238       84.752       16.343        0.037      350.105       31.023      861.183
08/17/2013  14:31:00       20.672       -9.998        4.818       15.383       31.964       27.406      236.641     1021.704      751.116        0.128        0.100       22.963       21.939        0.913      350.204       31.196      861.154
08/17/2013  14:32:00       55.644      -40.868       25.592       40.741       35.780       26.786     1659.798     1280.210      717.488        0.454        0.183       69.039       22.652        0.108      349.820       30.527      861.123
08/17/2013  14:33:00       54.588      -38.443        6.402       42.021       35.782       26.444     1765.727     1280.330      699.303        0.412        0.187       66.766       21.393        0.103      349.615       30.174      861.097
08/17/2013  14:34:00       29.078        4.943       30.302       21.086       16.215       14.987      444.606      262.915      224.617        0.136        0.047       29.495       12.159        0.170      349.789       30.476      861.084
08/17/2013  14:35:00        4.207       13.727       27.320       21.278       28.615       19.430      452.735      818.793      377.542        0.130        0.082       14.357       14.381        1.003      349.731       30.376      861.066
08/17/2013  14:36:00       14.651        5.789       14.535       22.495       31.098       18.295      506.026      967.094      334.693        0.113        0.090       15.753       17.783        1.274      349.958       30.770      861.056
08/17/2013  14:37:00       61.310       16.167       16.527       25.235       28.217       30.727      636.815      796.180      944.177        0.333        0.119       63.406       13.334        0.044      349.284       29.599      861.044
08/17/2013  14:38:00       45.340       39.724       20.942       30.205       25.167       22.438      912.323      633.357      503.459        0.306        0.102       60.280       15.507        0.066      349.614       30.173      861.022
08/17/2013  14:39:00        0.350      -20.924       -3.722       21.318       34.301       15.596      454.477     1176.573      243.227        0.116        0.094       20.927       12.973        0.384      349.487       29.950      861.014
08/17/2013  14:40:00        3.921      -23.141       26.268       22.844       53.903       34.590      521.849     2905.539     1196.462        0.293        0.231       23.471       36.029        2.356      349.760       30.426      861.001
08/17/2013  14:41:00     -106.018     -113.653       -4.072       78.146       40.165       29.347     6106.809     1613.254      861.261        1.638        0.429      155.425       32.457        0.044      350.080       30.981      860.994
08/17/2013  14:42:00     -111.932      -12.983        0.436       60.465       64.587       35.561     3656.072     4171.516     1264.594        1.089        0.455      112.682       35.577        0.100      350.160       31.120      860.987
08/17/2013  14:43:00      -59.654       51.569       -3.235       45.759       37.274       33.872     2093.882     1389.377     1147.340        0.543        0.232       78.854       21.575        0.075      350.417       31.567      860.967
08/17/2013  14:44:00        0.587        7.238       30.286       32.216       35.484       25.417     1037.893     1259.135      646.025        0.196        0.147        7.262       26.058       12.877      350.746       32.138      860.947
08/17/2013  14:45:00       -0.567       15.148       20.473       18.973       23.461       15.531      359.960      550.430      241.209        0.090        0.058       15.158       12.584        0.689      351.023       32.621      860.929
08/17/2013  14:46:00       -0.108      -63.598       27.383       46.733       68.086       33.969     2183.962     4635.731     1153.909        0.638        0.399       63.598       35.471        0.311      350.585       31.859      860.909
08/17/2013  14:47:00      -83.750      -84.989       15.155       57.780       58.891       34.151     3338.521     3468.161     1166.314        1.122        0.399      119.320       33.850        0.080      350.390       31.520      860.876
08/17/2013  14:48:00      -89.504      -60.718        7.052       58.582       69.443       29.753     3431.859     4822.324      885.263        1.044        0.457      108.156       37.796        0.122      350.342       31.438      860.856
08/17/2013  14:49:00        3.801      -11.970       20.430       33.874       38.082       31.002     1147.459     1450.269      961.152        0.207        0.178       12.559        8.731        0.483      350.738       32.124      860.838
08/17/2013  14:50:00       -1.133      -59.854       12.168       39.759       70.791       40.179     1580.816     5011.319     1614.313        0.597        0.410       59.864       34.292        0.328      350.759       32.162      860.824
08/17/2013  14:51:00      106.510      -94.625        2.475       99.886      109.305       76.667     9977.292    11947.686     5877.903        2.405        1.390      142.472       82.032        0.332      350.424       31.576      860.798
08/17/2013  14:52:00       -1.161      -61.919       36.240       68.158       99.798       55.143     4645.503     9959.595     3040.782        1.139        0.882       61.930       52.414        0.716      350.737       32.123      860.780
08/17/2013  14:53:00       21.291      -41.125       48.516       64.333       68.510       54.744     4138.789     4693.589     2996.883        0.816        0.591       46.310       47.562        1.055      350.773       32.185      860.747
08/17/2013  14:54:00       79.531      -32.340       55.061       85.462       78.175       56.631     7303.834     6111.392     3207.085        1.351        0.831       85.855       48.472        0.319      350.459       31.638      860.726
08/17/2013  14:55:00       52.088     -157.880       21.921       70.446      127.155       73.228     4962.637    16168.462     5362.281        2.730        1.325      166.251       71.295        0.184      350.264       31.298      860.710
08/17/2013  14:56:00        2.675       50.266      105.170       37.593       58.192       38.654     1413.267     3386.359     1494.107        0.994        0.315       50.337       35.241        0.490      350.496       31.704      860.717
08/17/2013  14:57:00        1.435      -90.905        3.640       65.549      108.503       65.007     4296.684    11772.794     4225.850        1.428        1.015       90.916       57.023        0.393      350.500       31.709      860.703
08/17/2013  14:58:00       41.581     -199.686       -7.140      101.870       60.947       53.545    10377.481     3714.531     2867.102        2.930        0.848      203.969       48.261        0.056      350.330       31.413      860.687
08/17/2013  14:59:00       12.860      -65.244       31.647       85.314       75.206       74.878     7278.561     5655.931     5606.768        1.198        0.927       66.499       55.133        0.687      350.686       32.034      860.653
08/17/2013  15:00:00       -8.018     -151.690       12.070       82.789       63.949       52.991     6854.060     4089.432     2808.070        1.848        0.688      151.902       42.095        0.077      350.566       31.825      860.685
08/17/2013  15:01:00      -22.651      -76.114       -7.146       64.905       37.464       33.018     4212.605     1403.560     1090.187        0.653        0.335       79.413       16.395        0.043      350.438       31.603      860.690
08/17/2013  15:02:00        3.165      -88.692        6.865       66.962       67.449       37.477     4483.953     4549.361     1404.490        0.918        0.522       88.748       23.429        0.070      350.217       31.218      860.680
08/17/2013  15:03:00      -53.036      -77.231      -10.520       25.890       60.611       21.099      670.278     3673.693      445.184        0.684        0.239       93.688       21.454        0.052      350.081       30.982      860.659
08/17/2013  15:04:00       31.122      -39.649        5.316       35.896       52.985       34.422     1288.521     2807.372     1184.881        0.392        0.264       50.404       31.501        0.391      350.550       31.799      860.640
08/17/2013  15:05:00        6.656      -55.577       19.328       46.588       68.363       47.655     2170.466     4673.556     2271.035        0.631        0.456       55.974       30.640        0.300      350.461       31.644      860.621
08/17/2013  15:06:00       58.021      -58.596        7.540       55.012       60.198       49.945     3026.357     3623.782     2494.469        0.800        0.457       82.462       45.220        0.301      350.433       31.595      860.608
08/17/2013  15:07:00      -23.780     -103.385       27.672       49.573       56.919       34.686     2457.436     3239.729     1203.113        0.946        0.345      106.085       19.374        0.033      350.526       31.756      860.590
08/17/2013  15:08:00       -2.427        5.685       57.849       39.737       50.615       35.863     1578.995     2561.855     1286.154        0.440        0.271        6.182       12.627        4.172      350.429       31.586      860.547
08/17/2013  15:09:00      -19.606      -33.477       34.621       39.957       56.077       32.567     1596.537     3144.676     1060.635        0.425        0.290       38.795       13.881        0.128      350.710       32.075      860.532
08/17/2013  15:10:00       -0.544      -16.710        1.070       53.698       40.081       32.323     2883.436     1606.506     1044.796        0.291        0.277       16.718       19.012        1.293      350.562       31.818      860.529
08/17/2013  15:11:00       -7.941       -2.090       27.236       37.777       29.923       26.260     1427.068      895.387      689.577        0.191        0.151        8.212       22.133        7.265      350.664       31.996      860.516
08/17/2013  15:12:00      -22.381       14.041       21.236       37.560       27.791       26.546     1410.729      772.316      704.716        0.202        0.144       26.421       24.812        0.882      350.713       32.082      860.510
08/17/2013  15:13:00       -2.441      -71.830       -6.505       62.396       44.726       35.410     3893.279     2000.444     1253.866        0.618        0.357       71.871       26.429        0.135      350.828       32.282      860.502
08/17/2013  15:14:00        1.329      -29.777      -12.630       49.676       40.815       32.924     2467.727     1665.853     1083.960        0.313        0.261       29.807       13.366        0.201      350.777       32.192      860.490
08/17/2013  15:15:00       -6.015      -13.635       13.859       20.698       18.081       19.432      428.417      326.938      377.613        0.077        0.057       14.902       10.506        0.497      350.767       32.176      860.472
08/17/2013  15:16:00      -12.019       25.748       13.986       40.746       22.067       22.691     1660.239      486.942      514.863        0.183        0.133       28.415       12.400        0.190      350.014       30.866      860.456
08/17/2013  15:17:00      -62.849       11.660       -6.618       14.141       17.405       19.235      199.976      302.932      369.981        0.250        0.044       63.922       11.964        0.035      350.432       31.591      860.435
08/17/2013  15:18:00       10.211        3.082       25.871       43.066       16.643       18.985     1854.661      277.004      360.416        0.164        0.125       10.666       17.338        2.642      350.233       31.247      860.424
08/17/2013  15:19:00       43.045       14.555       23.528       29.495       25.529       31.428      869.932      651.748      987.697        0.256        0.125       45.439       15.883        0.122      349.636       30.209      860.394
08/17/2013  15:20:00       49.399       46.186       18.320       29.882       38.826       35.071      892.925     1507.496     1229.978        0.427        0.182       67.627       13.770        0.041      349.571       30.098      860.369
08/17/2013  15:21:00       25.139      -45.737       24.480       58.897       75.427       63.211     3468.889     5689.206     3995.624        0.824        0.658       52.190       51.117        0.959      350.535       31.772      860.334
08/17/2013  15:22:00       12.952      -61.178        3.231       55.967       39.265       30.838     3132.339     1541.779      951.004        0.477        0.281       62.534       17.637        0.080      350.632       31.940      860.344
08/17/2013  15:23:00       35.654      -52.622       24.159       64.576       70.746       32.794     4170.004     5005.041     1075.442        0.744        0.513       63.564       26.082        0.168      350.792       32.219      860.329
08/17/2013  15:24:00       33.989      -69.675       22.162       99.967      121.834       68.722     9993.309    14843.507     4722.664        1.803        1.478       77.523       75.000        0.936      350.681       32.023      860.302
08/17/2013  15:25:00       43.480      -93.619       37.593       76.766       98.090       59.172     5892.963     9621.643     3501.309        1.554        0.951      103.223       55.716        0.291      350.807       32.246      860.288
08/17/2013  15:26:00       43.708     -128.306       14.831       67.915       61.318       53.609     4612.401     3759.936     2873.889        1.492        0.562      135.546       37.344        0.076      350.516       31.737      860.277
08/17/2013  15:27:00       23.925      -84.163       23.416       51.787       81.902       40.514     2681.943     6707.999     1641.382        0.962        0.552       87.498       19.937        0.052      350.770       32.179      860.256
08/17/2013  15:28:00      -20.749     -172.474      -17.792       89.416       78.871       54.018     7995.300     6220.631     2917.964        2.381        0.857      173.718       39.035        0.050      350.701       32.058      860.230
08/17/2013  15:29:00       46.164     -206.244      -10.024       89.210      101.160       48.941     7958.494    10233.370     2395.192        3.267        1.029      211.347       51.136        0.059      350.452       31.626      860.228
08/17/2013  15:30:00      -44.438     -128.850       10.391       69.529      115.942       47.700     4834.245    13442.652     2275.275        1.962        1.028      136.298       59.706        0.192      350.451       31.624      860.198
08/17/2013  15:31:00      117.565     -173.024      -18.637       95.749       86.852       52.628     9167.788     7543.337     2769.661        3.179        0.974      209.186       49.960        0.057      350.387       31.511      860.170
08/17/2013  15:32:00       74.551     -164.372      -37.308       68.384       74.156       52.356     4676.360     5499.166     2741.158        2.344        0.646      180.488       42.855        0.056      350.464       31.647      860.166
08/17/2013  15:33:00       33.964     -153.707      -24.544       75.570       53.813       41.417     5710.829     2895.796     1715.408        1.785        0.516      157.415       25.053        0.025      350.734       32.116      860.156
08/17/2013  15:34:00      -32.001     -110.778      -24.583       67.076       65.308       43.778     4499.175     4265.146     1916.491        1.229        0.534      115.308       27.005        0.055      350.740       32.130      860.134
08/17/2013  15:35:00      -11.087      -72.367       -0.431       63.293       50.686       36.006     4006.054     2569.094     1296.405        0.661        0.394       73.211       18.747        0.066      350.831       32.288      860.132
08/17/2013  15:36:00       10.357      -33.372       25.819       55.888       51.839       36.157     3123.442     2687.236     1307.301        0.450        0.356       34.942       17.234        0.243      351.119       32.790      860.126
08/17/2013  15:37:00       61.454     -118.275        1.660       72.144       95.144       39.467     5204.792     9052.293     1557.625        1.679        0.791      133.287       42.374        0.101      350.552       31.800      860.123
08/17/2013  15:38:00       83.542     -152.768      -21.765       57.071       70.961       38.339     3257.104     5035.455     1469.886        2.028        0.488      174.119       26.473        0.023      350.354       31.454      860.115
08/17/2013  15:39:00       76.559     -138.050        1.920       54.350       73.758       50.737     2953.938     5440.243     2574.196        1.794        0.548      157.858       48.065        0.093      350.786       32.205      860.105
08/17/2013  15:40:00        0.941      -46.360        1.264       39.291       48.654       34.617     1543.779     2367.218     1198.306        0.363        0.255       46.370       23.832        0.264      351.242       33.003      860.095
08/17/2013  15:41:00       -0.410     -111.283        3.129       64.745       54.682       41.603     4191.882     2990.091     1730.822        1.065        0.446      111.284       20.424        0.034      350.940       32.476      860.101
08/17/2013  15:42:00       37.093      -95.931        3.977       45.062       45.590       47.806     2030.620     2078.416     2285.384        0.849        0.320      102.852       26.879        0.068      350.950       32.493      860.091
08/17/2013  15:43:00       -7.216      -81.565        4.082       32.093       46.328       32.276     1029.956     2146.255     1041.755        0.547        0.211       81.884       26.779        0.107      350.747       32.139      860.082
08/17/2013  15:44:00      -57.241      -18.588       17.140       68.489       46.171       35.222     4690.771     2131.745     1240.595        0.599        0.403       60.184       25.217        0.176      351.034       32.641      860.061
08/17/2013  15:45:00     -123.397      -47.110        6.127       81.541       61.015       37.177     6648.973     3722.788     1382.142        1.462        0.588      132.084       34.309        0.067      351.075       32.711      860.053
08/17/2013  15:46:00     -135.001      -41.990       -2.150       75.780       68.822       40.096     5742.633     4736.465     1607.678        1.604        0.604      141.381       44.682        0.100      350.871       32.356      860.037
08/17/2013  15:47:00     -103.740      -87.968       -6.729       58.278       51.312       28.870     3396.305     2632.943      833.504        1.270        0.343      136.016       33.220        0.060      350.702       32.062      860.025
08/17/2013  15:48:00     -101.203      -42.271       -4.911       44.277       49.228       29.821     1960.432     2423.358      889.264        0.866        0.264      109.676       28.521        0.068      350.736       32.121      859.998
08/17/2013  15:49:00       -0.968       24.226       20.827       31.827       29.320       18.907     1012.974      859.643      357.459        0.163        0.112       24.245       17.187        0.502      351.179       32.894      859.980
08/17/2013  15:50:00       15.603       29.993       20.902       24.553       20.033       15.505      602.833      401.311      240.414        0.141        0.062       33.809        6.419        0.036      350.934       32.466      859.958
08/17/2013  15:51:00      -40.115        4.198        2.734       21.534       18.832       17.327      463.716      354.659      300.235        0.138        0.056       40.334       11.739        0.085      351.193       32.916      859.945
08/17/2013  15:52:00      -16.185        5.368       10.495       23.347       22.466       17.454      545.093      504.717      304.640        0.088        0.068       17.052        8.590        0.254      351.325       33.148      859.926
08/17/2013  15:53:00       47.803      -25.914       23.586       38.864       39.780       28.953     1510.430     1582.453      838.267        0.372        0.197       54.375       25.778        0.225      350.491       31.695      859.911
08/17/2013  15:54:00       58.015     -174.780        0.927       80.463       66.587       44.038     6474.271     4433.868     1939.309        2.338        0.642      184.157       43.013        0.055      350.498       31.706      859.894
08/17/2013  15:55:00       51.510      -61.911       23.539       51.692       60.006       38.230     2672.078     3600.694     1461.530        0.739        0.387       80.537       33.190        0.170      350.818       32.264      859.897
08/17/2013  15:56:00       41.688      -14.165       35.287       47.221       52.366       40.273     2229.852     2742.178     1621.887        0.489        0.330       44.029       36.906        0.703      350.332       31.419      859.862
08/17/2013  15:57:00      164.408       73.604       56.703       94.127       84.617       78.687     8859.813     7159.961     6191.710        2.893        1.111      180.132       69.727        0.150      350.327       31.407      859.828
08/17/2013  15:58:00      137.870       73.114       26.647       68.440       52.201       38.400     4683.971     2724.953     1474.578        1.697        0.444      156.057       20.271        0.017      350.538       31.775      859.811
08/17/2013  15:59:00       35.705       18.985       22.702       48.716       31.842       24.604     2373.261     1013.905      605.378        0.307        0.200       40.438       16.536        0.167      350.584       31.855      859.806
08/17/2013  16:00:00        5.807      -83.427        6.999       32.176       48.403       40.098     1035.327     2342.862     1607.839        0.601        0.249       83.629       25.805        0.095      350.573       31.837      859.784
08/17/2013  16:01:00       18.889      -53.525       29.626       41.184       78.283       49.033     1696.139     6128.151     2404.208        0.716        0.511       56.760       44.358        0.611      350.892       32.392      859.773
08/17/2013  16:02:00       64.272     -157.091      -33.616       81.732       78.049       51.683     6680.121     6091.608     2671.107        2.269        0.772      169.731       38.740        0.052      350.658       31.983      859.764
08/17/2013  16:03:00      -12.766     -129.291       -3.948       40.140       42.482       28.028     1611.202     1804.693      785.565        1.055        0.210      129.920       15.926        0.015      350.787       32.210      859.786
08/17/2013  16:04:00      -37.187      -20.342       22.450       47.078       62.558       32.675     2216.369     3913.545     1067.685        0.475        0.360       42.387       32.296        0.581      351.053       32.673      859.772
08/17/2013  16:05:00      -33.733       11.165       21.675       51.205       42.888       37.100     2621.999     1839.355     1376.423        0.378        0.292       35.533       32.150        0.819      351.026       32.626      859.757
08/17/2013  16:06:00        5.822      -69.629        0.740       54.834       62.209       34.507     3006.806     3869.919     1190.762        0.647        0.403       69.872       21.565        0.095      350.980       32.545      859.759
08/17/2013  16:07:00        8.294      -96.793       12.173       49.930       81.984       40.278     2493.001     6721.401     1622.345        1.021        0.542       97.148       38.715        0.159      350.791       32.218      859.758
08/17/2013  16:08:00       53.724      -47.076       25.874       49.864       59.265       35.661     2486.434     3512.293     1271.671        0.652        0.364       71.432       40.053        0.314      350.978       32.542      859.748
08/17/2013  16:09:00       40.002      -60.663       18.044       52.274       45.673       33.293     2732.540     2085.984     1108.406        0.577        0.296       72.665       19.983        0.076      351.093       32.742      859.755
08/17/2013  16:10:00      -92.295       -1.786      -10.158       45.076       57.011       35.038     2031.852     3250.287     1227.687        0.757        0.325       92.312       30.199        0.107      351.120       32.790      859.772
08/17/2013  16:11:00     -184.952       10.101      -13.403       69.398       64.683       39.915     4816.143     4183.893     1593.222        2.254        0.530      185.227       34.308        0.034      351.045       32.656      859.773
08/17/2013  16:12:00      -82.915       19.359       -2.487       51.279       42.054       27.562     2629.556     1768.549      759.686        0.621        0.258       85.145       26.415        0.096      351.436       33.340      859.762
08/17/2013  16:13:00      -93.492        3.413        5.532       97.889       67.406       36.352     9582.257     4543.630     1321.483        1.211        0.772       93.554       45.743        0.239      351.314       33.128      859.747
08/17/2013  16:14:00      -71.080       27.044        3.151       91.014       66.843       42.004     8283.561     4467.920     1764.307        1.015        0.726       76.051       47.938        0.397      351.124       32.798      859.736
08/17/2013  16:15:00      -46.593       78.742       -7.128       38.744       40.770       27.137     1501.116     1662.154      736.413        0.616        0.195       91.494       23.504        0.066      351.202       32.934      859.740
08/17/2013  16:16:00      -17.949       67.384       12.607       32.366       43.223       28.901     1047.576     1868.249      835.286        0.439        0.188       69.733       26.850        0.148      351.116       32.784      859.725
08/17/2013  16:17:00      -79.932      -65.830        0.205       64.005       40.783       27.026     4096.692     1663.213      730.385        0.861        0.325      103.551       31.592        0.093      351.013       32.601      859.690
08/17/2013  16:18:00      -35.935      -61.066       11.703       67.621       58.900       37.584     4572.576     3469.231     1412.550        0.730        0.473       70.855       36.174        0.261      351.004       32.588      859.668
08/17/2013  16:19:00     -187.055     -106.045       23.474      185.775      133.552       77.067    34512.232    17836.182     5939.285        5.253        2.914      215.024       97.547        0.206      350.986       32.554      859.645
08/17/2013  16:20:00       21.483      225.541      -17.813       68.439      116.702       62.755     4683.941    13619.339     3938.169        3.694        1.112      226.561       66.666        0.087      350.975       32.536      859.676
08/17/2013  16:21:00      -78.903      161.848        7.183       77.289      109.688       64.934     5973.560    12031.464     4216.382        2.734        1.111      180.057       61.894        0.118      351.156       32.850      859.667
08/17/2013  16:22:00      -53.872      306.452      -31.965       80.170      106.610       46.426     6427.155    11365.596     2155.359        5.889        0.997      311.151       46.380        0.022      350.819       32.264      859.670
08/17/2013  16:23:00     -198.264      171.712      -30.802       64.243      112.573       49.408     4127.124    12672.715     2441.153        4.449        0.962      262.285       28.445        0.012      351.009       32.593      859.640
08/17/2013  16:24:00     -222.977      288.174      -44.936      124.372      121.966       77.093    15468.503    14875.779     5943.297        8.553        1.814      364.366       83.812        0.053      351.078       32.713      859.667
08/17/2013  16:25:00     -193.746      339.263      -45.127       89.520      103.517       64.624     8013.856    10715.748     4176.307        8.879        1.145      390.688       57.379        0.022      350.826       32.274      859.698
08/17/2013  16:26:00     -148.456      223.029      -42.630       94.899       87.779       54.680     9005.894     7705.134     2989.948        4.665        0.985      267.920       59.910        0.050      350.948       32.487      859.700
08/17/2013  16:27:00      -16.184      236.569      -21.079       42.940      111.726       34.429     1843.826    12482.647     1185.333        3.609        0.776      237.122       46.773        0.039      350.720       32.090      859.692
08/17/2013  16:28:00      -28.736      210.717      -19.335       51.793       70.462       40.057     2682.549     4964.825     1604.568        2.743        0.463      212.667       39.081        0.034      350.761       32.161      859.672
08/17/2013  16:29:00      -59.175      147.286      -14.981       33.432       50.508       29.585     1117.698     2551.016      875.257        1.498        0.227      158.729       24.024        0.023      350.922       32.445      859.669
08/17/2013  16:30:00       14.715       75.867        7.621       59.375       82.058       42.229     3525.383     6733.502     1783.253        0.903        0.602       77.281       35.513        0.211      350.971       32.530      859.648
08/17/2013  16:31:00       11.151       47.916      -11.759       31.524       54.439       31.338      993.746     2963.614      982.048        0.375        0.247       49.197       19.386        0.155      351.032       32.636      859.653
08/17/2013  16:32:00      -43.983        3.267       17.714       64.423       64.856       30.031     4150.366     4206.278      901.885        0.576        0.463       44.104       26.940        0.373      351.428       33.327      859.643
08/17/2013  16:33:00      -32.419       61.735       10.754       36.659       44.580       30.468     1343.911     1987.376      928.280        0.462        0.213       69.730       21.051        0.091      351.227       32.978      859.641
08/17/2013  16:34:00      -72.401      168.072      -18.475       40.367       64.645       34.231     1629.527     4179.009     1171.764        2.040        0.349      183.003       36.700        0.040      350.859       32.333      859.639
08/17/2013  16:35:00       24.824      159.085       -5.620       66.966      102.514       55.889     4484.446    10509.160     3123.622        2.203        0.906      161.011       62.547        0.151      350.873       32.358      859.622
08/17/2013  16:36:00       -7.114      279.094      -32.002       47.398       69.086       36.881     2246.554     4772.807     1360.243        4.367        0.419      279.184       36.234        0.017      350.678       32.017      859.630
08/17/2013  16:37:00       29.703       99.557      -14.565       59.513       75.676       40.993     3541.791     5726.913     1680.461        1.098        0.547      103.894       42.591        0.168      350.687       32.035      859.630
08/17/2013  16:38:00       99.400       44.787       44.391       43.543       28.962       36.675     1896.012      838.793     1345.046        0.897        0.204      109.024       18.908        0.030      349.808       30.511      859.600
08/17/2013  16:39:00       23.226       70.848      -23.939       37.374       24.715       15.862     1396.842      610.840      251.616        0.420        0.113       74.558       11.024        0.022      350.702       32.063      859.599
08/17/2013  16:40:00       23.160       48.701      -13.734       24.617       19.939       18.266      606.004      397.561      333.662        0.222        0.067       53.927       17.412        0.104      350.826       32.278      859.590
08/17/2013  16:41:00      -76.126      100.276       -7.943       67.576       90.068       36.490     4566.507     8112.168     1331.511        1.496        0.701      125.898       35.018        0.077      351.167       32.870      859.594
08/17/2013  16:42:00     -163.998       15.246        4.853      128.083      199.215       62.175    16405.336    39686.757     3865.750        4.354        2.998      164.705       51.402        0.097      351.289       33.080      859.570
08/17/2013  16:43:00     -224.420       17.216      -26.302      111.110       91.541       60.046    12345.430     8379.760     3605.524        3.784        1.217      225.079       47.959        0.045      351.111       32.771      859.567
08/17/2013  16:44:00     -180.839        8.085      -14.382       99.131      127.554       54.502     9827.028    16270.028     2970.482        3.102        1.453      181.020       43.052        0.057      351.356       33.198      859.579
08/17/2013  16:45:00     -197.881       87.642      -18.497      109.150       77.565       48.664    11913.644     6016.274     2368.202        3.374        1.015      216.421       53.170        0.060      351.139       32.822      859.583
08/17/2013  16:46:00     -140.972      197.283      -31.636       88.766      137.966       62.412     7879.333    19034.603     3895.271        4.530        1.540      242.474       68.325        0.079      351.096       32.746      859.579
08/17/2013  16:47:00      -81.994       90.799      -14.018       49.159       98.541       43.124     2416.578     9710.281     1859.688        1.457        0.699      122.342       36.647        0.090      351.186       32.905      859.573
08/17/2013  16:48:00     -105.713       28.542        6.407       83.540      129.015       47.479     6978.896    16644.902     2254.286        1.895        1.294      109.498       33.216        0.092      351.286       33.078      859.548
08/17/2013  16:49:00     -217.205      -30.438      -16.261      128.442      120.652       66.429    16497.361    14557.001     4412.874        4.191        1.773      219.328       60.912        0.077      351.222       32.965      859.559
08/17/2013  16:50:00     -113.135      125.038      -12.821      110.091       71.937       48.412    12119.987     5174.898     2343.743        2.412        0.982      168.624       51.329        0.093      351.078       32.716      859.575
08/17/2013  16:51:00     -206.302       81.111      -22.109      100.155       77.847       41.655    10031.070     6060.152     1735.160        3.372        0.891      221.675       31.335        0.020      351.076       32.712      859.563
08/17/2013  16:52:00      -91.331       19.836        1.108       73.553       47.544       38.160     5410.030     2260.398     1456.169        0.893        0.456       93.461       38.786        0.172      351.282       33.073      859.572
08/17/2013  16:53:00      -53.210       33.752       19.837       77.095       89.266       42.755     5943.620     7968.417     1827.981        1.005        0.787       63.012       34.538        0.300      351.261       33.036      859.568
08/17/2013  16:54:00     -105.587      113.220      -12.380       71.349      106.205       50.248     5090.651    11279.412     2524.839        2.150        0.945      154.814       36.338        0.055      351.463       33.388      859.574
08/17/2013  16:55:00     -192.191      318.343      -44.097      112.773      173.328       66.950    12717.655    30042.645     4482.352        9.373        2.362      371.860       68.741        0.034      350.939       32.472      859.593
08/17/2013  16:56:00     -162.985      181.280      -19.262       86.297      116.564       59.206     7447.107    13587.158     3505.313        4.216        1.227      243.775       61.887        0.064      351.050       32.667      859.587
08/17/2013  16:57:00     -141.544      176.756      -31.619       95.786       81.003       55.865     9174.911     6561.555     3120.919        3.556        0.943      226.445       60.624        0.072      350.892       32.389      859.583
08/17/2013  16:58:00     -147.247       32.461      -21.253       69.428       96.784       50.279     4820.254     9367.191     2527.992        1.995        0.836      150.782       39.880        0.070      351.251       33.018      859.571
08/17/2013  16:59:00     -174.080       48.217       -9.362       81.122      121.276       56.351     6580.787    14707.902     3175.470        2.859        1.223      180.634       32.720        0.033      351.116       32.781      859.560
08/17/2013  17:00:00     -126.715      148.082      -33.186       98.995       95.296       59.247     9799.922     9081.401     3510.161        3.074        1.120      194.897       53.909        0.077      350.992       32.564      859.573
08/17/2013  17:01:00     -150.190      228.058      -32.874      116.691      111.757       64.379    13616.753    12489.592     4144.694        5.294        1.513      273.070       67.129        0.060      350.846       32.311      859.573
08/17/2013  17:02:00     -212.457       54.966      -44.506       99.051      184.677       62.291     9811.160    34105.466     3880.213        4.896        2.390      219.452       52.206        0.057      350.923       32.444      859.566
08/17/2013  17:03:00     -276.475       90.574      -32.210      123.878      118.676       67.709    15345.849    14083.921     4584.561        5.984        1.701      290.933       58.053        0.040      350.873       32.356      859.587
08/17/2013  17:04:00     -129.628      122.438       10.080      125.522      109.587       73.671    15755.697    12009.368     5427.358        3.254        1.660      178.311       73.790        0.171      350.871       32.354      859.588
08/17/2013  17:05:00     -230.684      212.728      -45.234      115.311      202.710       64.544    13296.711    41091.223     4165.867        7.952        2.928      313.797       59.274        0.036      350.792       32.215      859.593
08/17/2013  17:06:00     -189.638       25.611       -7.216      121.145      152.760       69.421    14676.000    23335.469     4819.235        3.974        2.142      191.359       59.052        0.095      350.894       32.393      859.594
08/17/2013  17:07:00     -281.733      166.517      -54.141      138.181      100.996       75.367    19094.056    10200.189     5680.238        7.250        1.749      327.263       61.011        0.035      350.780       32.193      859.613
08/17/2013  17:08:00     -303.337       10.294      -42.622      105.808      140.753       73.285    11195.354    19811.413     5370.657        6.515        1.819      303.511       69.123        0.052      350.823       32.269      859.616
08/17/2013  17:09:00     -341.301      120.735      -44.538      151.876      208.122       96.888    23066.457    43314.788     9387.321       10.439        3.788      362.026       94.046        0.067      350.698       32.051      859.619
08/17/2013  17:10:00     -246.518       71.121      -29.211      175.992      113.269       67.419    30973.097    12829.811     4545.265        5.751        2.417      256.572       60.442        0.055      350.852       32.322      859.611
08/17/2013  17:11:00     -240.789      -31.916      -14.685      156.029      115.886       70.473    24345.029    13429.625     4966.491        5.097        2.137      242.895       49.273        0.041      350.862       32.337      859.620
08/17/2013  17:12:00     -260.071       25.349      -37.535      153.240      204.427       70.923    23482.546    41790.432     5030.086        6.998        3.515      261.303       43.892        0.028      350.760       32.161      859.602
08/17/2013  17:13:00     -265.497      103.806      -28.411      145.704       93.865       67.220    21229.524     8810.584     4518.548        5.831        1.728      285.069       76.839        0.073      350.811       32.248      859.616
08/17/2013  17:14:00     -141.000       65.533      -15.905       98.294      139.962       57.304     9661.722    19589.397     3283.692        2.848        1.627      155.485       50.289        0.105      350.929       32.456      859.613
08/17/2013  17:15:00     -188.016      116.214      -33.940      140.575      131.509       61.791    19761.262    17294.667     3818.186        4.543        2.044      221.034       68.827        0.097      350.925       32.448      859.604
08/17/2013  17:16:00     -190.895      140.633      -16.248      122.293      113.424       70.044    14955.526    12864.916     4906.132        4.460        1.636      237.104       55.045        0.054      350.954       32.498      859.609
08/17/2013  17:17:00     -117.424       67.655       10.673      145.875       98.653       62.242    21279.464     9732.316     3874.122        2.668        1.744      135.520       63.469        0.219      350.958       32.507      859.599
08/17/2013  17:18:00     -217.861      266.890      -37.081      114.473      133.233       88.352    13104.013    17751.123     7806.066        7.936        1.933      344.520       71.199        0.043      350.713       32.077      859.632
08/17/2013  17:19:00     -150.403      339.947      -38.402      115.628      130.795       68.321    13369.852    17107.351     4667.786        8.740        1.757      371.732       64.386        0.030      350.717       32.084      859.625
08/17/2013  17:20:00     -101.232      191.084       -4.110       65.686      164.412       51.548     4314.662    27031.406     2657.188        4.038        1.700      216.243       59.383        0.075      350.823       32.270      859.610
08/17/2013  17:21:00     -145.383      140.536      -37.756       71.986      140.053       55.254     5181.973    19614.801     3053.014        3.508        1.392      202.204       43.888        0.047      350.876       32.363      859.617
08/17/2013  17:22:00     -101.372      297.601      -36.479       96.488      133.047       59.520     9309.936    17701.632     3542.670        6.536        1.528      314.393       53.225        0.029      350.677       32.016      859.640
08/17/2013  17:23:00      -83.531      288.654      -31.154       77.406      142.282       55.478     5991.679    20244.028     3077.760        6.029        1.466      300.497       59.804        0.040      350.636       31.943      859.619
08/17/2013  17:24:00     -172.943      166.652      -29.988      153.646      130.129       60.594    23607.224    16933.592     3671.639        5.139        2.211      240.171       49.319        0.042      350.774       32.184      859.623
08/17/2013  17:25:00     -307.002      320.720      -67.857      141.122      134.747       77.699    19915.384    18156.626     6037.076       12.291        2.205      443.972       85.676        0.037      350.655       31.977      859.639
08/17/2013  17:26:00     -184.421      153.497      -30.917      115.529      136.656       66.123    13346.845    18674.967     4372.309        4.746        1.820      239.942       53.454        0.050      350.775       32.186      859.609
08/17/2013  17:27:00     -167.805       97.715      -11.772      110.943      177.564       69.466    12308.426    31528.994     4825.512        4.325        2.433      194.182       57.040        0.086      350.737       32.119      859.607
08/17/2013  17:28:00     -180.819      263.431      -25.870      120.343      188.548       65.065    14482.414    35550.216     4233.446        7.850        2.713      319.517       70.431        0.049      350.621       31.918      859.650
08/17/2013  17:29:00     -257.365      358.856      -46.711      167.793      164.003       86.115    28154.626    26896.857     7415.748       12.982        3.123      441.605       94.534        0.046      350.488       31.686      859.643
08/17/2013  17:30:00     -185.232      239.188      -34.852      104.038      162.726       68.572    10823.820    26479.668     4702.064        6.736        2.100      302.526       67.739        0.050      350.605       31.888      859.635
08/17/2013  17:31:00     -213.305      315.243      -52.075      107.465      144.761       65.634    11548.811    20955.682     4307.774        9.219        1.841      380.627       53.518        0.020      350.562       31.812      859.637
08/17/2013  17:32:00     -275.808      297.719      -64.259      117.156      133.291       73.814    13725.595    17766.391     5448.566       10.288        1.847      405.840       73.056        0.032      350.586       31.855      859.638
08/17/2013  17:33:00     -139.949      297.009      -32.806      106.907      151.881       70.777    11429.009    23067.846     5009.369        7.418        1.975      328.330       78.850        0.058      350.644       31.956      859.648
08/17/2013  17:34:00     -134.273      246.782      -27.359      133.910      143.175       70.209    17931.899    20499.221     4929.356        6.151        2.168      280.946       62.571        0.050      350.628       31.929      859.644
08/17/2013  17:35:00     -182.250      330.360      -52.028      116.593      127.855       60.421    13593.892    16346.779     3650.680        8.932        1.680      377.297       73.363        0.038      350.604       31.887      859.659
08/17/2013  17:36:00     -105.072      317.682      -43.086       94.095      117.325       64.610     8853.792    13765.194     4174.495        7.030        1.340      334.607       55.896        0.028      350.544       31.782      859.647
08/17/2013  17:37:00     -119.137      330.869      -43.970       96.090      121.142       49.313     9233.325    14675.298     2431.760        7.597        1.317      351.664       46.556        0.018      350.447       31.614      859.618
08/17/2013  17:38:00     -196.028      341.949      -35.373      134.335      165.210       83.304    18045.936    27294.285     6939.530       10.443        2.614      394.152       98.540        0.063      350.539       31.775      859.580
08/17/2013  17:39:00     -259.905      249.002      -52.910      161.045      135.256       74.915    25935.339    18294.307     5612.214        9.109        2.492      359.935       90.310        0.063      350.587       31.857      859.595
08/17/2013  17:40:00     -208.424      224.136      -38.688      124.514      143.077       69.206    15503.707    20471.160     4789.406        6.796        2.038      306.068       49.743        0.026      350.579       31.843      859.573
08/17/2013  17:41:00     -197.576      224.376      -13.398      125.360      154.442       79.439    15715.190    23852.402     6310.529        6.771        2.294      298.966       77.367        0.067      350.642       31.953      859.558
08/17/2013  17:42:00     -300.497      354.906      -66.108      138.010      144.084       78.297    19046.699    20760.181     6130.434       13.327        2.297      465.034       80.787        0.030      350.527       31.752      859.588
08/17/2013  17:43:00     -270.226      236.727      -52.180      142.846      108.503       74.006    20405.102    11772.892     5476.890        8.471        1.883      359.252       71.239        0.039      350.507       31.717      859.576
08/17/2013  17:44:00     -233.397      244.894      -59.894      100.051      116.088       65.332    10010.175    13476.382     4268.226        7.289        1.388      338.301       54.115        0.026      350.496       31.699      859.587
08/17/2013  17:45:00     -293.132      252.084      -56.892      124.898      118.692       77.455    15599.592    14087.723     5999.281        9.419        1.784      386.617       75.023        0.038      350.453       31.626      859.581
08/17/2013  17:46:00     -217.658      339.216      -44.463      129.245      173.638       87.986    16704.396    30150.298     7741.590       10.950        2.730      403.042       91.813        0.052      350.410       31.551      859.563
08/17/2013  17:47:00     -180.110      346.281      -39.621      116.739      151.323       76.747    13627.920    22898.709     5890.040        9.816        2.121      390.320       66.919        0.029      350.440       31.604      859.487
08/17/2013  17:48:00     -215.024      114.137      -17.552      125.095      167.755       73.767    15648.835    28141.684     5441.531        5.439        2.462      243.439       64.571        0.070      350.639       31.949      859.472
08/17/2013  17:49:00     -291.593      -79.786      -17.357      153.125      144.711       69.080    23447.394    20941.412     4772.051        7.042        2.458      302.311       55.069        0.033      350.582       31.848      859.461
08/17/2013  17:50:00     -250.262      167.690      -51.616      167.075      154.532       87.882    27914.103    23880.042     7723.166        7.646        2.976      301.249       86.699        0.083      350.574       31.837      859.503
08/17/2013  17:51:00     -226.869      -27.702      -24.410      125.093      117.305       57.348    15648.136    13760.361     3288.742        4.276        1.635      228.554       47.153        0.043      350.595       31.873      859.531
08/17/2013  17:52:00     -250.817       93.355      -31.765      134.518      123.190       64.862    18095.121    15175.688     4207.063        5.505        1.874      267.627       58.945        0.049      350.542       31.779      859.529
08/17/2013  17:53:00      -94.615       68.819      -16.122      125.740      138.176       80.472    15810.454    19092.552     6475.736        2.766        2.069      116.995       55.631        0.226      350.538       31.774      859.532
08/17/2013  17:54:00     -144.554      315.548      -12.660      115.726      136.117       71.517    13392.570    18527.788     5114.680        7.882        1.852      347.083       73.760        0.045      350.393       31.522      859.540
08/17/2013  17:55:00     -203.853      152.447      -17.559      119.583       89.657       64.638    14300.111     8038.307     4178.083        4.581        1.326      254.550       65.250        0.066      350.493       31.694      859.553
08/17/2013  17:56:00     -121.167      199.344      -20.489       87.549      131.877       60.289     7664.804    17391.452     3634.809        4.176        1.435      233.280       61.850        0.070      350.487       31.685      859.580
08/17/2013  17:57:00     -161.375      160.269      -25.802       63.159       89.726       51.153     3989.102     8050.783     2616.602        3.352        0.733      227.438       46.992        0.043      350.476       31.668      859.572
08/17/2013  17:58:00     -167.301      207.554      -38.870      104.416      132.393       62.309    10902.666    17527.910     3882.409        5.244        1.616      266.586       62.333        0.055      350.486       31.683      859.562
08/17/2013  17:59:00      -88.676      130.732       -4.948       67.447      109.860       47.399     4549.042    12069.154     2246.695        2.192        0.943      157.969       48.215        0.093      350.563       31.819      859.586
08/17/2013  18:00:00     -141.089       31.447       -2.071      183.392      118.962       72.364    33632.519    14151.893     5236.570        3.695        2.651      144.551       93.539        0.419      350.578       31.845      859.588
08/17/2013  18:01:00     -269.548       61.996      -32.543      123.038      114.849       68.747    15138.313    13190.263     4726.199        5.530        1.653      276.586       64.626        0.055      350.448       31.616      859.625
08/17/2013  18:02:00     -209.830       10.317      -18.707      133.639      146.069       85.546    17859.424    21336.159     7318.069        4.549        2.326      210.084       67.009        0.102      350.446       31.615      859.638
08/17/2013  18:03:00     -294.715       70.963      -52.529      207.973      108.200       60.141    43252.946    11707.251     3616.937        7.660        2.929      303.138       53.214        0.031      350.393       31.523      859.653
08/17/2013  18:04:00     -485.082      -12.918      -61.986      197.550      200.282       75.635    39025.909    40113.066     5720.708       16.207        4.243      485.254       94.979        0.038      350.336       31.424      859.664
08/17/2013  18:05:00     -212.285       34.459       -7.859      141.886      145.018       75.014    20131.562    21030.256     5627.081        4.654        2.339      215.063       79.110        0.135      350.421       31.572      859.697
08/17/2013  18:06:00     -179.484       35.538      -33.385      123.309      133.362       57.260    15205.142    17785.428     3278.685        3.542        1.813      182.969       53.383        0.085      350.500       31.707      859.719
08/17/2013  18:07:00     -256.982       52.849      -40.347      170.068      113.315       72.835    28923.071    12840.212     5304.916        5.876        2.353      262.360       65.019        0.061      350.398       31.530      859.757
08/17/2013  18:08:00     -290.214      119.683      -54.980      126.285      110.964       71.957    15948.021    12313.035     5177.837        6.750        1.672      313.923       63.569        0.041      350.299       31.358      859.771
08/17/2013  18:09:00     -232.766       37.862      -48.662      102.019      116.269       45.468    10407.876    13518.465     2067.351        4.198        1.300      235.825       31.220        0.018      350.338       31.425      859.778
08/17/2013  18:10:00     -108.358       56.737       -2.165       78.212       68.262       55.959     6117.179     4659.682     3131.428        1.443        0.695      122.313       38.113        0.097      350.426       31.582      859.779
08/17/2013  18:11:00      -89.202       76.113       -9.993       74.954      109.734       42.665     5618.139    12041.629     1820.308        1.666        0.974      117.261       35.814        0.093      350.409       31.551      859.801
08/17/2013  18:12:00      -99.787      117.775      -20.142       61.415       54.312       39.817     3771.783     2949.771     1585.429        1.627        0.415      154.364       33.508        0.047      350.355       31.457      859.803
08/17/2013  18:13:00     -145.159      119.953      -31.004      102.635       98.217       56.742    10533.953     9646.629     3219.700        2.991        1.170      188.307       55.151        0.086      350.349       31.446      859.793
08/17/2013  18:14:00      -70.519       56.200       10.162      140.767       95.440       62.474    19815.293     9108.826     3902.975        2.053        1.641       90.174       59.815        0.440      350.384       31.508      859.781
08/17/2013  18:15:00     -176.947      -13.309      -37.748      144.098      133.905       69.037    20764.204    17930.584     4766.168        3.818        2.173      177.447       56.576        0.102      350.350       31.449      859.802
08/17/2013  18:16:00     -216.308      -71.372       10.461      137.988       98.595       70.342    19040.696     9720.938     4948.022        4.285        1.685      227.779       67.917        0.089      350.320       31.394      859.781
08/17/2013  18:17:00     -273.227       10.461      -11.603      115.878      111.378       63.088    13427.669    12404.952     3980.049        5.235        1.491      273.427       58.306        0.045      350.296       31.353      859.788
08/17/2013  18:18:00     -287.058      136.826      -36.900      148.416      104.101       69.874    22027.207    10837.029     4882.306        7.011        1.887      318.000       68.402        0.046      350.273       31.311      859.808
08/17/2013  18:19:00     -152.114       92.320      -16.672       95.661      103.868       63.098     9150.951    10788.657     3981.356        2.793        1.196      177.938       54.434        0.094      350.340       31.430      859.804
08/17/2013  18:20:00     -169.847       54.637      -27.245       78.548      118.788       59.257     6169.795    14110.512     3511.365        2.818        1.190      178.419       39.793        0.050      350.389       31.515      859.837
08/17/2013  18:21:00     -145.664      173.714      -39.530      105.468      114.138       57.687    11123.476    13027.524     3327.761        4.021        1.374      226.704       39.681        0.031      350.319       31.394      859.861
08/17/2013  18:22:00     -193.578      274.428      -28.924      104.265      128.635       63.590    10871.223    16546.917     4043.644        7.254        1.573      335.832       57.778        0.030      350.299       31.357      859.865
08/17/2013  18:23:00     -239.142      262.404      -47.727      118.798      145.528       82.190    14112.935    21178.427     6755.126        8.518        2.102      355.027       84.657        0.057      350.297       31.354      859.876
08/17/2013  18:24:00     -220.243      297.835      -46.430       99.955      184.017       66.365     9990.996    33862.374     4404.325        9.380        2.413      370.422       71.949        0.038      350.287       31.337      859.883
08/17/2013  18:25:00     -209.667      249.756      -45.167      106.218      126.533       67.565    11282.221    16010.512     4564.964        7.011        1.593      326.096       71.798        0.048      350.317       31.391      859.899
08/17/2013  18:26:00     -193.383      202.541      -42.772       96.972      111.095       65.124     9403.566    12341.999     4241.084        5.311        1.299      280.035       62.876        0.050      350.294       31.351      859.903
08/17/2013  18:27:00     -173.676      177.366      -32.045      112.401      110.505       67.945    12633.988    12211.255     4616.560        4.605        1.473      248.238       56.253        0.051      350.281       31.326      859.912
08/17/2013  18:28:00     -130.868      160.221      -22.591       80.226       72.323       51.135     6436.228     5230.620     2614.772        2.879        0.714      206.875       41.166        0.040      350.314       31.387      859.906
08/17/2013  18:29:00     -148.282      234.000      -13.644       96.669      128.495       67.640     9344.852    16510.856     4575.234        5.368        1.522      277.026       77.534        0.078      350.255       31.282      859.905
08/17/2013  18:30:00     -159.911      204.757      -31.106       83.327      119.473       46.017     6943.427    14273.914     2117.522        4.590        1.167      259.802       49.757        0.037      350.307       31.372      859.922
08/17/2013  18:31:00     -132.239      210.367      -34.473      115.284       98.530       53.175    13290.457     9708.201     2827.578        4.437        1.291      248.478       49.709        0.040      350.301       31.364      859.915
08/17/2013  18:32:00     -161.234      254.345      -53.739      139.409      104.052       52.919    19434.885    10826.760     2800.390        6.331        1.653      301.144       47.415        0.025      350.319       31.393      859.919
08/17/2013  18:33:00     -125.627       33.446      -13.992       88.438      146.907       49.696     7821.214    21581.701     2469.698        2.448        1.594      130.003       37.026        0.081      350.371       31.485      859.922
08/17/2013  18:34:00     -132.522       76.036       -3.577      101.606      102.806       58.051    10323.880    10569.095     3369.874        2.381        1.213      152.786       32.628        0.046      350.350       31.448      859.939
08/17/2013  18:35:00     -201.616      145.882      -26.372      114.131      139.203       61.430    13025.871    19377.464     3773.636        4.940        1.809      248.859       51.491        0.043      350.259       31.288      859.953
08/17/2013  18:36:00     -206.703      -19.819      -14.678      106.932       84.726       51.957    11434.376     7178.497     2699.546        3.232        1.066      207.650       39.676        0.037      350.275       31.316      859.952
08/17/2013  18:37:00     -193.010      -39.374      -27.136      114.467       95.957       52.534    13102.630     9207.779     2759.849        3.230        1.254      196.986       58.101        0.087      350.294       31.348      859.965
08/17/2013  18:38:00     -117.408       93.475      -23.910       65.697       58.162       43.135     4316.124     3382.833     1860.640        1.633        0.478      150.074       30.987        0.043      350.335       31.424      859.987
08/17/2013  18:39:00     -207.128       37.961      -27.814      156.417      149.245       71.724    24466.221    22273.949     5144.371        4.849        2.594      210.578       71.766        0.116      350.257       31.286      859.989
08/17/2013  18:40:00     -329.181       96.222      -41.086      149.800       84.581       60.531    22440.178     7153.960     3664.011        7.628        1.663      342.956       69.592        0.041      350.184       31.158      860.006
08/17/2013  18:41:00     -230.730       66.470      -28.621      109.715       97.790       55.179    12037.393     9562.837     3044.733        4.156        1.232      240.114       45.236        0.035      350.207       31.196      860.017
08/17/2013  18:42:00     -210.711       61.012      -15.534      112.192      137.101       67.239    12587.010    18796.768     4521.069        4.213        1.795      219.366       55.702        0.064      350.203       31.191      860.022
08/17/2013  18:43:00     -171.620       40.291      -21.985      105.020      112.508       63.628    11029.185    12658.008     4048.575        2.964        1.387      176.286       56.926        0.104      350.186       31.162      860.017
08/17/2013  18:44:00     -154.222       61.908      -21.055       77.934       71.317       40.663     6073.724     5086.136     1653.453        2.043        0.641      166.184       26.436        0.025      350.236       31.250      860.017
08/17/2013  18:45:00     -208.356      102.483      -35.660       87.782      113.254       54.204     7705.691    12826.565     2938.029        3.932        1.174      232.196       42.148        0.033      350.181       31.152      860.031
08/17/2013  18:46:00     -145.140       18.101      -23.791       77.917       91.412       47.341     6071.071     8356.146     2241.183        1.931        0.833      146.265       44.091        0.091      350.210       31.204      860.014
08/17/2013  18:47:00      -73.648      158.871      -11.818       65.173       87.427       37.723     4247.483     7643.469     1423.043        2.206        0.666      175.111       33.112        0.036      350.162       31.119      860.002
08/17/2013  18:48:00     -200.119       82.283      -28.060      101.458      130.131       66.924    10293.755    16933.953     4478.882        3.965        1.585      216.375       66.307        0.094      350.184       31.157      859.996
08/17/2013  18:49:00     -162.079       22.298       -7.788       83.964      112.091       52.826     7049.987    12564.467     2790.627        2.461        1.120      163.606       40.211        0.060      350.157       31.113      859.989
08/17/2013  18:50:00     -100.281      -11.371        5.963       87.678       60.662       45.127     7687.480     3679.910     2036.445        1.181        0.670      100.924       49.488        0.240      350.186       31.165      859.976
08/17/2013  18:51:00     -229.781       76.021      -35.110       80.348       76.310       49.164     6455.823     5823.262     2417.099        3.725        0.735      242.030       38.887        0.026      350.127       31.059      859.985
08/17/2013  18:52:00     -135.708       78.106       -1.112      107.168       56.829       48.765    11485.050     3229.495     2377.993        2.080        0.855      156.579       48.397        0.096      350.090       30.996      859.991
08/17/2013  18:53:00     -199.729      129.711      -30.128      128.352       83.369       48.704    16474.333     6950.457     2372.049        4.171        1.290      238.153       55.733        0.055      350.114       31.036      860.031
08/17/2013  18:54:00     -135.284       38.770      -28.552       76.067       83.426       36.640     5786.125     6959.933     1342.458        1.735        0.704      140.730       30.216        0.046      350.113       31.037      860.052
08/17/2013  18:55:00     -135.142       19.085      -12.182       76.333       61.515       44.990     5826.666     3784.055     2024.058        1.520        0.582      136.483       42.523        0.097      350.113       31.036      860.075
08/17/2013  18:56:00      -82.221       51.787       -6.311       44.960       73.163       35.391     2021.434     5352.770     1252.539        0.905        0.431       97.171       18.624        0.037      350.063       30.950      860.102
08/17/2013  18:57:00     -154.747       50.056      -16.743       78.254       71.223       48.620     6123.707     5072.648     2363.951        2.014        0.678      162.641       35.798        0.048      350.087       30.989      860.126
08/17/2013  18:58:00     -172.622       56.955      -13.186      131.826       95.080       50.923    17378.021     9040.116     2593.117        3.111        1.451      181.776       57.832        0.101      350.044       30.914      860.144
08/17/2013  18:59:00      -76.319       -4.371      -22.049       41.544       49.668       30.834     1725.893     2466.949      950.714        0.574        0.257       76.444       28.402        0.138      350.127       31.062      860.183
08/17/2013  19:00:00        7.282      -26.982       27.817       36.702       31.687       30.236     1347.038     1004.063      914.225        0.241        0.163       27.948       27.342        0.957      349.907       30.681      860.216
08/17/2013  19:01:00      -14.878       20.418        6.062      103.909       81.125       59.786    10797.064     6581.248     3574.401        1.081        1.048       25.264       44.884        3.156      349.590       30.130      860.261
08/17/2013  19:02:00       15.494      -57.792       39.872       57.159       59.606       43.983     3267.110     3552.860     1934.469        0.696        0.438       59.833       45.792        0.586      349.725       30.365      860.270
08/17/2013  19:03:00       47.505       48.645       66.709       69.263       45.856       45.438     4797.348     2102.768     2064.585        0.902        0.448       67.993       38.022        0.313      349.204       29.461      860.288
08/17/2013  19:04:00       71.080       10.585       59.620      100.832       89.992       78.563    10167.140     8098.617     6172.072        1.657        1.222       71.864       68.906        0.919      349.536       30.036      860.296
08/17/2013  19:05:00       83.271       34.765       62.156       73.774       70.754       65.660     5442.583     5006.099     4311.203        1.338        0.738       90.237       67.929        0.567      349.273       29.580      860.328
08/17/2013  19:06:00       20.238      -28.129       55.388       77.798       60.996       43.510     6052.542     3720.482     1893.154        0.797        0.583       34.653       44.481        1.648      349.360       29.731      860.358
08/17/2013  19:07:00      114.469     -173.814      -10.605      109.315      110.589       69.550    11949.714    12229.890     4837.212        3.622        1.451      208.121       77.662        0.139      349.532       30.027      860.337
08/17/2013  19:08:00      -39.862        4.939       17.131      100.957       56.727       42.151    10192.252     3217.912     1776.676        0.854        0.759       40.167       45.626        1.290      349.496       29.967      860.304
08/17/2013  19:09:00       31.939       75.547        8.485       79.616       81.228       53.209     6338.725     6597.916     2831.245        1.128        0.788       82.021       51.316        0.391      349.251       29.541      860.293
08/17/2013  19:10:00      179.868      150.699      104.238      109.960      108.317       89.477    12091.308    11732.530     8006.102        4.887        1.591      234.655       65.683        0.078      349.156       29.373      860.320
08/17/2013  19:11:00      154.530       94.576       82.547      132.963       84.932       77.566    17679.102     7213.394     6016.494        3.527        1.545      181.174       41.197        0.052      349.147       29.360      860.347
08/17/2013  19:12:00      173.107       98.595        8.240       83.657       66.437       53.016     6998.430     4413.930     2810.669        2.699        0.711      199.216       26.961        0.018      349.256       29.548      860.360
08/17/2013  19:13:00      223.092       96.710       61.278      104.532      106.133       74.725    10926.864    11264.305     5583.772        4.532        1.389      243.152       50.297        0.043      349.262       29.559      860.361
08/17/2013  19:14:00      130.135       49.099       54.343      101.981       80.159       72.681    10400.054     6425.512     5282.494        2.220        1.105      139.089       58.958        0.180      348.930       28.985      860.360
08/17/2013  19:15:00       83.535       84.112       79.961      113.308       87.167       82.231    12838.689     7598.094     6761.876        2.382        1.360      118.545       71.491        0.364      348.887       28.909      860.343
08/17/2013  19:16:00       76.787      -12.997       45.613      102.550       91.796       59.375    10516.494     8426.534     3525.376        1.530        1.123       77.879       44.404        0.325      348.939       29.001      860.364
08/17/2013  19:17:00       54.588        8.226       15.819       49.554       50.178       28.487     2455.594     2517.805      811.507        0.454        0.289       55.205       25.920        0.220      348.646       28.495      860.374
08/17/2013  19:18:00      140.749      110.734       68.778       74.278       62.904       42.715     5517.235     3956.910     1824.535        2.405        0.565      179.087       24.515        0.019      348.836       28.820      860.368
08/17/2013  19:19:00      120.951       82.467       69.723       67.012       59.989       50.932     4490.544     3598.667     2594.116        1.849        0.534      146.390       34.537        0.056      348.621       28.450      860.363
08/17/2013  19:20:00      194.071      143.968       18.787      115.356      112.645       72.071    13307.110    12688.817     5194.159        4.496        1.560      241.641       42.565        0.031      349.112       29.298      860.357
08/17/2013  19:21:00      265.981      158.895       52.739      130.913       96.186       84.393    17138.140     9251.742     7122.178        6.614        1.676      309.828       61.841        0.040      349.139       29.344      860.361
08/17/2013  19:22:00      224.705      145.831       42.768      104.257       96.557       62.371    10869.617     9323.304     3890.141        4.883        1.204      267.879       51.927        0.038      349.124       29.319      860.384
08/17/2013  19:23:00      190.677      122.049       42.506       86.477       73.876       50.208     7478.259     5457.737     2520.884        3.426        0.773      226.393       36.220        0.026      349.099       29.276      860.402
08/17/2013  19:24:00      175.667       84.308       31.197       64.761       62.210       41.663     4194.051     3870.112     1735.810        2.437        0.490      194.851       23.670        0.015      348.954       29.024      860.441
08/17/2013  19:25:00      115.650       70.754       20.349      104.226       72.123       50.541    10862.986     5201.781     2554.398        1.870        0.931      135.577       21.868        0.026      349.126       29.324      860.448
08/17/2013  19:26:00       48.199       18.972       17.030       56.477       55.913       38.343     3189.619     3126.221     1470.173        0.538        0.389       51.798       28.268        0.298      348.775       28.717      860.465
08/17/2013  19:27:00       61.171       17.529       18.704       38.621       56.273       30.081     1491.599     3166.700      904.863        0.498        0.278       63.633       28.824        0.205      348.707       28.598      860.472
08/17/2013  19:28:00       56.726       11.076       14.856       39.524       34.385       29.978     1562.157     1182.306      898.657        0.360        0.182       57.797       17.234        0.089      348.688       28.566      860.484
08/17/2013  19:29:00       51.084       25.131       20.898       29.255       37.514       34.831      855.880     1407.320     1213.232        0.358        0.174       56.931       14.429        0.064      348.576       28.372      860.487
08/17/2013  19:30:00       12.238       69.764        2.686       41.704       39.690       28.840     1739.234     1575.331      831.729        0.458        0.207       70.829       21.611        0.093      348.793       28.749      860.498
08/17/2013  19:31:00       55.256       97.020        5.483       64.855       56.943       39.847     4206.121     3242.456     1587.796        1.076        0.452      111.652       36.616        0.108      349.098       29.276      860.490
08/17/2013  19:32:00       26.424       58.282       -1.897       50.914       41.512       23.569     2592.283     1723.276      555.504        0.448        0.244       63.992       23.517        0.135      349.060       29.212      860.499
08/17/2013  19:33:00      -47.855      104.213      -13.596       29.195       40.342       22.387      852.358     1627.494      501.193        0.816        0.149      114.675       23.100        0.041      348.900       28.935      860.505
08/17/2013  19:34:00      -82.942      136.453      -27.801       40.754       65.096       21.305     1660.855     4237.434      453.920        1.631        0.318      159.683       20.218        0.016      349.143       29.353      860.497
08/17/2013  19:35:00      -98.979       76.566       -9.314       55.809       50.027       36.042     3114.615     2502.745     1299.019        1.133        0.346      125.137       36.980        0.087      349.051       29.195      860.493
08/17/2013  19:36:00     -132.656       95.365      -29.102       34.748       39.173       25.175     1207.438     1534.542      633.762        1.546        0.169      163.377       23.097        0.020      349.104       29.287      860.491
08/17/2013  19:37:00     -138.849       91.595      -24.019       54.082       46.521       36.658     2924.914     2164.209     1343.807        1.734        0.322      166.339       36.618        0.048      349.101       29.280      860.499
08/17/2013  19:38:00      -58.750       77.726       -6.250       39.254       44.462       25.757     1540.873     1976.839      663.435        0.686        0.209       97.431       22.850        0.055      349.018       29.137      860.510
08/17/2013  19:39:00      -95.890      126.915      -14.772       51.872       57.096       31.639     2690.681     3259.968     1001.034        1.624        0.348      159.067       25.112        0.025      349.013       29.128      860.518
08/17/2013  19:40:00     -191.387      171.749      -40.245       84.769      133.836       53.163     7185.747    17912.058     2826.331        4.783        1.396      257.151       67.123        0.068      349.074       29.232      860.529
08/17/2013  19:41:00     -140.091      167.076      -30.685       49.602       96.095       39.828     2460.362     9234.250     1586.289        3.088        0.664      218.036       42.480        0.038      349.130       29.330      860.546
08/17/2013  19:42:00     -125.596       63.352      -17.451       71.373       54.866       32.879     5094.130     3010.296     1081.006        1.464        0.459      140.669       26.698        0.036      349.145       29.358      860.541
08/17/2013  19:43:00      -72.971      170.865      -21.399       37.350       79.814       25.375     1394.996     6370.285      643.869        2.169        0.420      185.794       20.617        0.012      349.050       29.191      860.553
08/17/2013  19:44:00      -14.119      150.324      -17.094       28.799       24.056       20.781      829.362      578.708      431.862        1.246        0.092      150.986       16.851        0.012      349.076       29.240      860.554
08/17/2013  19:45:00      -10.926      127.765      -10.001       34.804       35.999       17.698     1211.320     1295.898      313.228        0.968        0.141      128.232       14.726        0.013      348.962       29.039      860.556
08/17/2013  19:46:00       52.426       32.058       16.159       37.507       20.398       22.538     1406.790      416.060      507.966        0.318        0.117       61.451       14.878        0.059      348.529       28.291      860.559
08/17/2013  19:47:00       66.993       56.034       -2.988       28.289       31.292       23.312      800.256      979.211      543.469        0.498        0.116       87.338       16.882        0.037      348.806       28.771      860.544
08/17/2013  19:48:00       51.117       44.056       20.152       36.816       19.483       17.463     1355.425      379.578      304.957        0.350        0.102       67.482       14.034        0.043      348.720       28.623      860.542
08/17/2013  19:49:00       46.485       31.861       21.012       26.862       18.674       24.539      721.570      348.715      602.151        0.264        0.084       56.356        8.153        0.021      348.040       27.447      860.551
08/17/2013  19:50:00       27.160       20.634      -10.662       22.469       20.364       26.734      504.869      414.676      714.727        0.146        0.082       34.109       14.701        0.186      348.070       27.499      860.544
08/17/2013  19:51:00      -10.226       11.505       -1.996       13.992       12.765        9.995      195.764      162.955       99.908        0.035        0.023       15.393        9.099        0.349      348.517       28.270      860.548
08/17/2013  19:52:00      -30.205       32.314        0.998       10.608       11.975        8.929      112.522      143.402       79.731        0.115        0.017       44.233        4.455        0.010      348.614       28.439      860.552
08/17/2013  19:53:00      -53.600       -2.831       -5.680       16.245       15.620        8.916      263.897      243.985       79.495        0.175        0.029       53.675        7.278        0.018      348.704       28.594      860.552
08/17/2013  19:54:00      -57.210       -4.458       -3.238       17.203       12.804        9.969      295.931      163.948       99.372        0.193        0.028       57.383        7.988        0.019      348.804       28.767      860.553
08/17/2013  19:55:00      -56.413       -3.976       -1.174       20.891       14.729        9.524      436.416      216.936       90.700        0.197        0.037       56.553        7.096        0.016      348.839       28.829      860.558
08/17/2013  19:56:00      -54.290      -10.151       -1.240       18.164       16.184        8.946      329.922      261.923       80.030        0.186        0.034       55.230        7.485        0.018      348.918       28.965      860.564
08/17/2013  19:57:00      -84.510       12.059       -3.043       21.853       23.823       12.742      477.557      567.514      162.364        0.425        0.060       85.366       11.464        0.018      348.799       28.759      860.570
08/17/2013  19:58:00      -84.889       37.497       -8.853       49.244       30.283       23.752     2425.016      917.063      564.136        0.630        0.195       92.802       25.025        0.073      348.784       28.733      860.583
08/17/2013  19:59:00      -86.538       56.075      -11.128       34.835       20.543       19.198     1213.491      421.995      368.570        0.638        0.100      103.117       18.426        0.032      348.995       29.099      860.587
08/17/2013  20:00:00      -94.202       38.427      -15.923       30.193       37.432       15.208      911.605     1401.173      231.275        0.657        0.127      101.738       13.668        0.018      349.081       29.249      860.593
08/17/2013  20:01:00      -63.341       -9.874       -4.974       27.186       22.146       20.547      739.061      490.428      422.190        0.289        0.083       64.106       14.779        0.053      349.052       29.198      860.593
08/17/2013  20:02:00       -4.262      -14.532        2.839       45.488       34.836       24.429     2069.169     1213.520      596.779        0.206        0.194       15.144       29.708        3.848      348.908       28.945      860.579
08/17/2013  20:03:00       60.426       -2.992       16.441       41.196       25.096       19.006     1697.141      629.801      361.243        0.331        0.134       60.500       11.012        0.033      348.005       27.386      860.583
08/17/2013  20:04:00       58.121      -29.678       24.230       31.306       34.647       23.588      980.054     1200.427      556.406        0.379        0.137       65.260       23.925        0.134      348.427       28.116      860.570
08/17/2013  20:05:00       15.126      -22.665        3.277       17.040       15.908       18.133      290.372      253.050      328.793        0.081        0.044       27.249       12.608        0.214      348.493       28.230      860.555
08/17/2013  20:06:00       11.445      -15.313        1.501       26.788       23.826       17.740      717.620      567.692      314.723        0.098        0.080       19.117       14.190        0.551      348.051       27.465      860.550
08/17/2013  20:07:00       17.590       -9.100        8.523       26.391       25.732       15.856      696.490      662.136      251.425        0.104        0.081       19.805       20.289        1.050      348.302       27.898      860.542
08/17/2013  20:08:00       16.699       -6.572        9.531       29.220       13.929       19.388      853.829      194.022      375.879        0.092        0.071       17.945        8.748        0.238      347.940       27.274      860.539
08/17/2013  20:09:00      -14.039       14.827        7.192       44.798       21.504       18.721     2006.817      462.419      350.468        0.164        0.141       20.419       16.671        0.667      347.945       27.282      860.554
08/17/2013  20:10:00      -72.589       35.776      -11.095       28.911       25.098       10.447      835.851      629.898      109.146        0.412        0.079       80.926        8.674        0.011      348.880       28.898      860.574
08/17/2013  20:11:00     -100.017       74.001      -20.614       28.256       26.094       15.575      798.412      680.908      242.595        0.881        0.086      124.417       13.521        0.012      348.655       28.510      860.588
08/17/2013  20:12:00     -112.521       73.382      -17.753       33.633       27.226       24.801     1131.148      741.260      615.102        1.042        0.124      134.335       18.824        0.020      348.734       28.647      860.603
08/17/2013  20:13:00      -90.886       61.759      -15.009       26.806       33.086       16.171      718.541     1094.688      261.508        0.719        0.104      109.884       13.295        0.015      348.778       28.723      860.607
08/17/2013  20:14:00      -55.613       -0.197       -5.885       13.285       14.063        9.682      176.499      197.775       93.743        0.180        0.023       55.614        7.170        0.017      348.646       28.495      860.608
08/17/2013  20:15:00      -73.030      -19.009       -1.775       27.512       26.109       13.666      756.934      681.668      186.753        0.366        0.081       75.463       10.771        0.020      348.547       28.323      860.614
08/17/2013  20:16:00      -88.341      -49.831        0.062       49.780       38.359       20.647     2478.020     1471.437      426.297        0.733        0.219      101.426       13.138        0.017      348.524       28.282      860.622
08/17/2013  20:17:00     -138.061      -49.669       -2.117       83.014       62.347       31.402     6891.259     3887.126      986.074        1.665        0.588      146.724       36.853        0.063      348.507       28.253      860.633
08/17/2013  20:18:00     -182.803      -94.616       -4.051       60.369       50.629       33.676     3644.388     2563.327     1134.041        2.486        0.367      205.837       31.258        0.023      348.468       28.185      860.658
08/17/2013  20:19:00     -179.330      -29.625       -4.980       68.030       51.701       32.425     4628.107     2672.978     1051.372        2.071        0.418      181.760       29.276        0.026      348.325       27.936      860.665
08/17/2013  20:20:00     -238.701      -43.890      -13.320       99.055       91.358       44.238     9811.857     8346.333     1957.027        3.960        1.006      242.703       49.462        0.042      348.332       27.946      860.681
08/17/2013  20:21:00     -201.878      -77.967        1.427       82.955       70.958       41.893     6881.469     5034.991     1755.045        3.025        0.684      216.411       42.754        0.039      348.344       27.969      860.690
08/17/2013  20:22:00     -132.517      -39.199        4.997       71.599       52.689       30.432     5126.456     2776.102      926.099        1.397        0.441      138.193       32.284        0.055      348.222       27.760      860.694
08/17/2013  20:23:00     -191.174      -36.609       -5.743       60.795       56.484       32.760     3695.974     3190.479     1073.248        2.294        0.398      194.647       28.014        0.021      348.240       27.789      860.696
08/17/2013  20:24:00     -199.915      -65.044      -11.411       62.652       48.175       35.370     3925.228     2320.858     1251.009        2.591        0.375      210.230       38.869        0.034      348.270       27.840      860.700
08/17/2013  20:25:00     -143.536      -50.350        0.542       45.036       45.803       30.689     2028.235     2097.883      941.826        1.410        0.253      152.111       22.650        0.022      348.204       27.729      860.695
08/17/2013  20:26:00     -145.760      -33.618       -7.393       55.047       44.481       27.759     3030.121     1978.557      770.563        1.410        0.289      149.587       24.776        0.027      348.203       27.728      860.699
08/17/2013  20:27:00      -93.274       -7.829        0.292       52.913       32.849       25.626     2799.829     1079.039      656.675        0.665        0.227       93.602       24.630        0.069      348.093       27.539      860.699
08/17/2013  20:28:00      -95.165        3.602       -5.525       55.848       36.243       19.313     3118.971     1313.525      373.005        0.695        0.240       95.233       23.032        0.058      348.111       27.569      860.698
08/17/2013  20:29:00     -100.757       45.816       -2.761       33.590       21.023       18.125     1128.318      441.946      328.506        0.708        0.095      110.685       18.995        0.029      348.147       27.633      860.698
08/17/2013  20:30:00      -89.598        5.628       -8.075       34.713       39.685       16.789     1205.020     1574.880      281.861        0.559        0.153       89.774       18.092        0.041      348.212       27.743      860.700
08/17/2013  20:31:00      -95.867      -49.925       -7.980       33.293       25.022       17.398     1108.438      626.094      302.691        0.689        0.102      108.088       12.888        0.014      348.063       27.487      860.712
08/17/2013  20:32:00     -140.314      -37.062       -5.430       34.063       30.823       22.965     1160.255      950.037      527.403        1.186        0.132      145.126       19.235        0.018      348.030       27.429      860.717
08/17/2013  20:33:00     -151.866      -45.711        4.816       56.016       52.719       32.199     3137.839     2779.257     1036.768        1.606        0.348      158.596       32.411        0.042      348.135       27.608      860.707
08/17/2013  20:34:00     -173.851      -61.063       -0.833       62.784       53.999       25.751     3941.792     2915.899      663.095        2.074        0.376      184.263       20.257        0.012      348.249       27.804      860.704
08/17/2013  20:35:00     -160.107      -60.646       -6.589       57.282       59.799       28.341     3281.222     3575.918      803.235        1.851        0.383      171.209       31.972        0.035      348.205       27.730      860.700
08/17/2013  20:36:00      -97.291      -31.148        5.042       79.654       60.665       39.900     6344.763     3680.229     1592.021        1.104        0.581      102.155       38.088        0.139      348.056       27.475      860.698
08/17/2013  20:37:00     -147.662      -17.896       -3.323       45.511       41.753       25.558     2071.245     1743.345      653.198        1.330        0.223      148.742       24.340        0.027      348.130       27.601      860.701
08/17/2013  20:38:00     -201.051       21.586      -22.781       39.699       34.746       17.806     1576.031     1207.267      317.050        2.225        0.155      202.207       13.900        0.005      348.086       27.524      860.695
08/17/2013  20:39:00     -158.123       -5.913      -15.737       51.980       41.761       26.690     2701.930     1743.947      712.365        1.522        0.258      158.234       31.565        0.040      347.957       27.303      860.691
08/17/2013  20:40:00     -116.023      -13.599       -0.064       47.962       41.206       26.837     2300.334     1697.951      720.209        0.918        0.236      116.818       26.800        0.053      348.017       27.406      860.686
08/17/2013  20:41:00     -140.220       -4.968      -10.755       57.162       31.185       23.421     3267.464      972.523      548.556        1.229        0.239      140.308       27.922        0.040      348.061       27.483      860.679
08/17/2013  20:42:00     -126.326        5.610      -19.473       40.268       35.950       17.854     1621.485     1292.376      318.748        0.980        0.162      126.451       16.920        0.018      347.970       27.326      860.680
08/17/2013  20:43:00     -148.426       15.637      -12.059       44.494       26.261       21.439     1979.749      689.649      459.619        1.277        0.156      149.248       19.919        0.018      347.953       27.295      860.678
08/17/2013  20:44:00     -124.189       -5.252       -7.193       39.062       34.403       18.969     1525.874     1183.568      359.811        0.929        0.153      124.300       16.924        0.019      347.913       27.227      860.689
08/17/2013  20:45:00      -98.235      -13.813       -4.564       38.264       39.196       21.615     1464.135     1536.344      467.218        0.666        0.173       99.202       21.602        0.047      347.837       27.094      860.691
08/17/2013  20:46:00     -108.908      -42.502       -7.652       28.333       30.969       20.463      802.758      959.094      418.740        0.795        0.109      116.908       13.601        0.014      347.761       26.962      860.701
08/17/2013  20:47:00     -138.663      -43.579       -2.914       58.770       35.193       25.695     3453.867     1238.531      660.211        1.324        0.268      145.350       31.174        0.046      347.665       26.800      860.721
08/17/2013  20:48:00     -139.763       -5.166      -12.000       46.913       33.066       22.817     2200.792     1093.334      520.630        1.176        0.191      139.859       25.233        0.033      347.689       26.840      860.730
08/17/2013  20:49:00     -176.603      -18.280      -14.090       45.034       40.081       28.349     2028.031     1606.520      803.660        1.808        0.222      177.547       30.122        0.029      347.680       26.825      860.749
08/17/2013  20:50:00     -114.800      -19.510       -4.938       45.741       39.282       26.981     2092.279     1543.112      727.962        0.897        0.218      116.446       27.035        0.054      347.616       26.715      860.765
08/17/2013  20:51:00     -177.843      -14.687      -18.361       57.678       52.312       25.244     3326.742     2736.586      637.277        1.944        0.335      178.449       20.964        0.014      347.651       26.773      860.782
08/17/2013  20:52:00     -220.458      -36.382      -10.256       56.823       49.585       32.286     3228.910     2458.673     1042.397        2.838        0.336      223.439       25.567        0.013      347.549       26.596      860.802
08/17/2013  20:53:00     -190.998      -44.237      -18.089       48.316       34.111       28.212     2334.473     1163.548      795.893        2.153        0.215      196.054       20.909        0.011      347.597       26.679      860.819
08/17/2013  20:54:00     -161.894      -20.495      -12.295       56.540       39.158       28.618     3196.824     1533.353      818.962        1.616        0.277      163.186       26.365        0.026      347.531       26.569      860.840
08/17/2013  20:55:00     -145.946      -35.391      -21.172       33.573       49.431       27.867     1127.129     2443.410      776.592        1.367        0.217      150.175       16.727        0.012      347.452       26.431      860.870
08/17/2013  20:56:00     -150.796      -54.157      -18.435       63.920       62.908       38.928     4085.723     3957.440     1515.376        1.778        0.478      160.226       35.339        0.049      347.402       26.343      860.882
08/17/2013  20:57:00     -155.156      -24.825       -1.277       60.461       78.736       32.544     3655.493     6199.307     1059.099        1.780        0.546      157.130       25.456        0.026      347.398       26.336      860.895
08/17/2013  20:58:00     -125.550       -2.857      -15.693       60.924       55.934       31.570     3711.686     3128.596      996.643        1.193        0.392      125.583       28.945        0.053      347.451       26.430      860.901
08/17/2013  20:59:00     -134.234      -10.108      -14.228       61.687       53.375       34.425     3805.302     2848.853     1185.057        1.308        0.392      134.614       32.847        0.060      347.447       26.423      860.903
08/17/2013  21:00:00     -237.043      -36.826      -30.425       74.250       97.684       33.269     5513.130     9542.144     1106.840        3.731        0.808      239.887       19.229        0.006      347.638       26.749      860.908
08/17/2013  21:01:00     -250.804      -36.448      -17.742      105.532       78.613       43.173    11137.042     6179.983     1863.889        4.186        0.959      253.439       44.177        0.030      347.620       26.718      860.920
08/17/2013  21:02:00     -254.624       -4.174      -27.179       81.126       53.798       44.438     6581.407     2894.198     1974.766        3.852        0.573      254.658       47.749        0.035      347.698       26.853      860.927
08/17/2013  21:03:00     -274.124      -17.380      -29.870       76.633       79.040       40.067     5872.666     6247.349     1605.335        4.503        0.686      274.674       33.522        0.015      347.843       27.102      860.926
08/17/2013  21:04:00     -263.892       -1.528      -19.425       77.107       79.134       41.173     5945.435     6262.195     1695.226        4.196        0.695      263.896       36.875        0.020      347.790       27.010      860.933
08/17/2013  21:05:00     -223.134      -72.522       -2.885       91.052       88.351       54.872     8290.556     7805.976     3010.896        3.708        0.955      234.623       53.966        0.053      347.863       27.137      860.943
08/17/2013  21:06:00     -239.684      -49.197      -14.177      101.584       75.698       44.708    10319.315     5730.244     1998.770        3.906        0.902      244.681       47.578        0.038      347.901       27.204      860.945
08/17/2013  21:07:00     -247.167      -39.698       -8.986       96.830       82.037       46.172     9376.021     6730.096     2131.874        4.049        0.912      250.335       39.945        0.025      347.936       27.263      860.957
08/17/2013  21:08:00     -269.689      -83.960       -7.418      116.452       92.388       48.164    13561.156     8535.572     2319.723        5.212        1.221      282.456       54.132        0.037      347.974       27.328      860.955
08/17/2013  21:09:00     -272.340      -85.285      -11.126      126.950      111.484       58.863    16116.317    12428.738     3464.807        5.678        1.600      285.382       58.471        0.042      348.040       27.442      860.950
08/17/2013  21:10:00     -258.986      -31.224        9.209      109.071       85.921       59.748    11896.578     7382.375     3569.881        4.549        1.142      260.861       61.260        0.055      347.997       27.370      860.954
08/17/2013  21:11:00     -319.768      -71.477      -15.591      116.509      114.487       64.284    13574.240    13107.366     4132.432        6.920        1.541      327.659       66.392        0.041      348.057       27.471      860.958
08/17/2013  21:12:00     -296.560      -68.689       -8.978      100.787       83.959       49.170    10158.079     7049.124     2417.672        5.618        0.981      304.411       44.145        0.021      348.002       27.378      860.970
08/17/2013  21:13:00     -166.962      -15.870       -0.109       99.092       51.444       52.083     9819.139     2646.453     2712.677        2.165        0.759      167.714       55.360        0.109      347.926       27.248      860.988
08/17/2013  21:14:00     -285.656      -45.492      -17.402      109.231       87.697       53.068    11931.491     7690.767     2816.250        5.320        1.122      289.256       49.219        0.029      348.021       27.409      861.002
08/17/2013  21:15:00     -288.742      -39.604       -7.369      144.738       96.659       61.766    20948.949     9343.038     3815.045        5.955        1.705      291.445       51.980        0.032      348.010       27.391      861.020
08/17/2013  21:16:00     -304.449      -41.903      -17.012      117.660       94.084       53.398    13843.931     8851.839     2851.307        6.014        1.277      307.320       52.439        0.029      348.030       27.424      861.046
08/17/2013  21:17:00     -229.772      -69.164        3.514      129.135      106.034       54.876    16675.908    11243.194     3011.392        4.426        1.547      239.956       58.178        0.059      347.970       27.323      861.062
08/17/2013  21:18:00     -188.899      -44.593       -3.753      125.773      111.971       57.587    15818.758    12537.452     3316.294        3.467        1.584      194.091       58.310        0.090      347.944       27.279      861.086
08/17/2013  21:19:00     -286.075      -49.562        0.571      114.567       95.175       54.543    13125.531     9058.356     2974.967        5.472        1.258      290.336       51.727        0.032      347.980       27.339      861.106
08/17/2013  21:20:00     -218.721      -21.154       -4.888      102.628       79.308       56.521    10532.463     6289.741     3194.672        3.416        1.001      219.742       56.624        0.066      347.922       27.237      861.115
08/17/2013  21:21:00     -207.531      -67.532       -6.505      109.888       94.906       43.923    12075.461     9007.192     1929.266        3.534        1.151      218.242       39.158        0.032      347.855       27.124      861.138
08/17/2013  21:22:00     -304.967     -108.383      -17.287      131.356      113.122       54.418    17254.386    12796.637     2961.291        6.903        1.651      323.653       53.627        0.027      348.003       27.379      861.131
08/17/2013  21:23:00     -226.973      -74.888        7.470       98.896       76.541       47.570     9780.433     5858.553     2262.874        3.754        0.895      239.008       44.414        0.035      347.878       27.162      861.140
08/17/2013  21:24:00     -247.653      -60.051        7.066      185.500      101.008       59.901    34410.299    10202.552     3588.166        5.659        2.410      254.830       74.856        0.086      347.877       27.161      861.138
08/17/2013  21:25:00     -417.309      -71.358      -13.059      104.296       72.199       55.893    10877.706     5212.708     3124.047        9.931        0.961      423.366       58.503        0.019      348.000       27.374      861.151
08/17/2013  21:26:00     -381.776     -109.265       -9.434      135.317      109.980       58.771    18310.570    12095.674     3453.990        9.582        1.693      397.105       63.406        0.025      347.964       27.311      861.156
08/17/2013  21:27:00     -200.843      -31.562       -5.048      109.051       89.779       55.184    11892.169     8060.229     3045.275        3.217        1.150      203.308       54.522        0.072      347.942       27.275      861.145
08/17/2013  21:28:00     -235.546      -76.184       -5.743       95.940       79.574       43.194     9204.543     6332.100     1865.750        3.936        0.870      247.560       44.659        0.033      347.887       27.176      861.151
08/17/2013  21:29:00     -245.329      -54.345      -18.841       72.639       69.531       38.046     5276.375     4834.622     1447.489        3.752        0.578      251.276       30.436        0.015      347.898       27.197      861.164
08/17/2013  21:30:00     -198.700      -51.323       -9.715      111.873      109.376       51.273    12515.463    11963.151     2628.924        3.465        1.355      205.221       46.190        0.051      347.818       27.060      861.181
08/17/2013  21:31:00     -301.673       23.059      -14.259      102.351       93.649       57.348    10475.649     8770.079     3288.809        5.713        1.127      302.553       54.379        0.032      347.895       27.191      861.195
08/17/2013  21:32:00     -256.857      -32.464        8.355      139.490       95.061       61.921    19457.509     9036.605     3834.198        4.971        1.616      258.901       68.931        0.071      347.765       26.967      861.201
08/17/2013  21:33:00     -258.157     -108.017       -4.790      104.855       75.405       49.091    10994.583     5685.967     2409.940        4.871        0.955      279.844       49.497        0.031      347.778       26.988      861.236
08/17/2013  21:34:00     -228.346      -63.177       -6.744      110.604       72.634       49.515    12233.213     5275.704     2451.744        3.807        0.998      236.925       58.203        0.060      347.798       27.026      861.259
08/17/2013  21:35:00     -265.251      -71.566       -7.272      129.777       97.148       63.976    16842.157     9437.679     4092.918        5.295        1.519      274.736       68.337        0.062      347.824       27.069      861.264
08/17/2013  21:36:00     -370.909      -76.455      -11.299      143.142       93.164       51.211    20489.648     8679.556     2622.533        8.766        1.590      378.707       52.010        0.019      347.900       27.201      861.280
08/17/2013  21:37:00     -286.231      -39.962       -1.576      107.215       90.473       59.440    11495.153     8185.332     3533.086        5.337        1.161      289.007       48.833        0.029      347.870       27.148      861.301
08/17/2013  21:38:00     -330.318     -112.362      -15.877      113.578       79.264       53.874    12899.875     6282.841     2902.458        7.203        1.104      348.905       47.096        0.018      347.862       27.133      861.305
08/17/2013  21:39:00     -329.908      -77.438      -14.635       90.612       81.483       49.194     8210.618     6639.504     2420.081        6.616        0.864      338.874       45.947        0.018      347.853       27.119      861.326
08/17/2013  21:40:00     -297.534      -91.297      -21.453       70.388       91.893       46.608     4954.496     8444.303     2172.273        5.644        0.779      311.225       38.228        0.015      347.813       27.048      861.341
08/17/2013  21:41:00     -222.196      -83.197        1.272      127.342       83.067       55.262    16216.012     6900.153     3053.892        4.123        1.309      237.260       55.811        0.055      347.721       26.892      861.354
08/17/2013  21:42:00     -318.393      -77.769       -4.921      152.581      113.729       64.294    23280.958    12934.351     4133.750        7.389        2.017      327.753       67.518        0.042      347.792       27.015      861.374
08/17/2013  21:43:00     -326.854      -75.321      -13.438      140.341      125.559       72.281    19695.479    15764.938     5224.539        7.668        2.034      335.420       80.895        0.058      347.771       26.979      861.382
08/17/2013  21:44:00     -357.572      -69.537      -23.516       82.090       80.789       49.859     6738.748     6526.928     2485.925        7.450        0.788      364.271       42.193        0.013      347.872       27.153      861.364
08/17/2013  21:45:00     -349.114      -71.182      -17.252      133.306      112.651       68.120    17770.487    12690.148     4640.346        8.117        1.755      356.297       71.506        0.040      347.803       27.032      861.359
08/17/2013  21:46:00     -304.373      -52.811      -15.391      105.132       87.147       54.848    11052.650     7594.612     3008.278        5.866        1.083      308.920       50.499        0.027      347.801       27.030      861.367
08/17/2013  21:47:00     -356.237      -79.294       -3.360      152.136       99.480       63.663    23145.469     9896.367     4053.022        8.514        1.855      364.955       71.797        0.039      347.853       27.119      861.348
08/17/2013  21:48:00     -281.500      -88.994      -11.378      131.113       89.770       60.908    17190.656     8058.652     3709.839        5.812        1.448      295.232       65.859        0.050      347.775       26.983      861.336
08/17/2013  21:49:00     -252.172      -72.463       -9.534      153.497      101.195       64.244    23561.417    10240.522     4127.338        5.342        1.896      262.377       82.111        0.098      347.678       26.817      861.333
08/17/2013  21:50:00     -244.050      -70.771       -1.064      122.211       93.066       54.516    14935.511     8661.216     2971.959        4.556        1.328      254.104       58.569        0.053      347.707       26.867      861.350
08/17/2013  21:51:00     -295.579      -22.142      -21.690      102.020       74.564       49.417    10408.004     5559.716     2442.021        5.337        0.920      296.407       54.637        0.034      347.707       26.868      861.365
08/17/2013  21:52:00     -285.546      -87.255      -11.125       85.282       68.813       41.179     7272.977     4735.257     1695.683        5.149        0.685      298.580       46.220        0.024      347.688       26.834      861.369
08/17/2013  21:53:00     -298.428     -116.497       -7.683      102.389       89.656       60.511    10483.541     8038.247     3661.562        6.243        1.109      320.361       59.159        0.034      347.676       26.813      861.377
08/17/2013  21:54:00     -267.279      -58.623      -19.116      153.204       98.983       59.927    23471.493     9797.635     3591.208        5.604        1.843      273.633       66.536        0.059      347.682       26.825      861.359
08/17/2013  21:55:00     -208.330      -66.757        9.221      108.998       78.957       49.761    11880.516     6234.269     2476.199        3.426        1.030      218.764       51.602        0.056      347.642       26.756      861.352
08/17/2013  21:56:00     -293.126      -49.088       -6.578      145.545       94.598       54.226    21183.280     8948.764     2940.475        6.072        1.654      297.208       63.045        0.045      347.746       26.936      861.370
08/17/2013  21:57:00     -279.068      -47.127       -6.381      106.761       91.903       57.485    11397.819     8446.234     3304.488        5.164        1.157      283.020       57.710        0.042      347.663       26.792      861.384
08/17/2013  21:58:00     -335.590      -18.750      -21.816      113.437       89.179       52.071    12867.913     7952.806     2711.374        6.849        1.177      336.114       63.950        0.036      347.732       26.912      861.392
08/17/2013  21:59:00     -370.808      -54.243      -19.703      109.453       89.181       56.433    11979.973     7953.276     3184.636        8.197        1.156      374.754       52.128        0.019      347.752       26.946      861.413
08/17/2013  22:00:00     -253.203      -36.803      -18.418       69.274      104.253       51.373     4798.912    10868.600     2639.170        4.205        0.915      255.864       44.610        0.030      347.635       26.742      861.408
08/17/2013  22:01:00     -194.243      -73.256       -4.294       60.163       68.633       43.555     3619.628     4710.540     1897.026        2.667        0.511      207.598       29.142        0.020      347.595       26.676      861.419
08/17/2013  22:02:00     -152.058      -55.983       -2.955      115.072       88.059       57.962    13241.606     7754.474     3359.647        2.531        1.218      162.036       42.664        0.069      347.608       26.698      861.426
08/17/2013  22:03:00     -236.829      -28.571       -4.123      133.072       65.001       48.015    17708.281     4225.182     2305.467        4.058        1.212      238.547       51.184        0.046      347.645       26.763      861.437
08/17/2013  22:04:00     -128.514      -48.808        4.921      135.344       82.841       48.491    18317.980     6862.569     2351.342        2.322        1.377      137.470       57.369        0.174      347.560       26.617      861.433
08/17/2013  22:05:00     -332.238     -154.201       -8.967       99.445       87.963       55.470     9889.316     7737.498     3076.934        7.747        1.035      366.279       43.158        0.014      347.679       26.818      861.435
08/17/2013  22:06:00     -379.671      -70.242      -19.199      127.135       81.821       58.122    16163.329     6694.612     3378.133        8.784        1.312      386.114       63.079        0.027      347.697       26.851      861.439
08/17/2013  22:07:00     -234.857      -40.989      -13.446      113.269       75.048       45.841    12829.891     5632.198     2101.436        3.879        1.028      238.407       55.406        0.054      347.602       26.686      861.438
08/17/2013  22:08:00     -238.575      -22.067      -13.439      142.945       83.820       51.913    20433.253     7025.726     2694.955        4.386        1.508      239.594       58.012        0.059      347.581       26.652      861.440
08/17/2013  22:09:00     -146.643      -15.651      -16.588       54.283       73.530       34.512     2946.654     5406.692     1191.088        1.578        0.477      147.476       30.304        0.042      347.535       26.573      861.463
08/17/2013  22:10:00      -89.228       44.935       -3.757       59.870       51.218       33.707     3584.440     2623.325     1136.175        0.867        0.367       99.904       28.498        0.081      347.527       26.561      861.470
08/17/2013  22:11:00     -108.610       42.744       -9.733       62.273       53.489       28.979     3877.919     2861.109      839.760        1.065        0.379      116.719       27.298        0.055      347.498       26.510      861.463
08/17/2013  22:12:00     -109.483       63.842       -7.262       56.266       37.874       33.067     3165.853     1434.436     1093.442        1.090        0.285      126.738       30.077        0.056      347.446       26.420      861.465
08/17/2013  22:13:00      -56.056      107.597       -7.760       41.538       53.918       25.249     1725.390     2907.134      637.495        1.002        0.264      121.324       21.400        0.031      347.339       26.236      861.443
08/17/2013  22:14:00      -94.897       72.935      -20.893       35.407       36.512       16.701     1253.649     1333.092      278.928        0.881        0.143      119.687       11.225        0.009      347.398       26.339      861.437
08/17/2013  22:15:00      -86.940       61.064      -11.311       45.866       29.748       25.951     2103.718      884.959      673.460        0.754        0.183      106.242       15.093        0.020      347.320       26.203      861.442
08/17/2013  22:16:00      -99.870       90.638      -24.207       34.393       27.855       20.483     1182.909      775.921      419.563        1.058        0.119      134.867       17.900        0.018      347.499       26.512      861.436
08/17/2013  22:17:00      -64.524       45.669       -4.996       30.847       32.494       14.767      951.528     1055.877      218.050        0.425        0.111       79.051       12.660        0.026      347.365       26.283      861.428
08/17/2013  22:18:00      -82.103       34.268      -10.883       47.397       31.927       17.237     2246.438     1019.340      297.116        0.580        0.178       88.968       10.321        0.013      347.429       26.393      861.427
08/17/2013  22:19:00      -80.320       89.579      -19.960       34.936       46.719       24.784     1220.555     2182.695      614.265        0.945        0.201      120.315       20.222        0.028      347.452       26.431      861.439
08/17/2013  22:20:00      -68.395       79.559      -15.108       28.199       40.708       20.422      795.192     1657.138      417.040        0.705        0.143      104.917       11.711        0.012      347.458       26.441      861.438
08/17/2013  22:21:00      -97.301       40.333      -10.995       30.082       45.123       20.870      904.921     2036.077      435.545        0.730        0.169      105.329       19.342        0.034      347.426       26.385      861.436
08/17/2013  22:22:00      -94.331       79.165      -18.902       32.497       31.519       21.258     1056.074      993.471      451.909        0.901        0.125      123.148       15.671        0.016      347.476       26.472      861.430
08/17/2013  22:23:00      -67.895       56.361       -5.639       25.391       27.045       23.128      644.700      731.412      534.884        0.486        0.096       88.240       13.201        0.022      347.248       26.079      861.430
08/17/2013  22:24:00      -63.371       81.699        3.433       44.329       45.315       32.109     1965.084     2053.449     1030.960        0.788        0.252      103.396       17.280        0.028      347.300       26.168      861.427
08/17/2013  22:25:00     -108.360       -6.489       -2.585       50.183       49.889       22.972     2518.344     2488.890      527.730        0.866        0.277      108.554       15.834        0.021      347.114       25.850      861.413
08/17/2013  22:26:00     -135.238      -35.057      -10.779       53.507       37.718       20.616     2863.036     1422.666      425.024        1.217        0.236      139.708       21.110        0.023      347.191       25.981      861.403
08/17/2013  22:27:00      -74.484      -16.380       -1.653       37.735       35.691       26.773     1423.965     1273.834      716.799        0.462        0.171       76.264       22.543        0.087      347.071       25.775      861.400
08/17/2013  22:28:00      -92.098       10.622       -6.930       30.960       27.310       15.905      958.549      745.812      252.973        0.530        0.098       92.709       15.756        0.029      347.177       25.957      861.395
08/17/2013  22:29:00      -54.128       28.961       -3.088       29.847       16.994       16.458      890.864      288.807      270.861        0.261        0.073       61.389       17.327        0.080      347.254       26.091      861.384
08/17/2013  22:30:00      -88.023       45.269       -8.802       40.356       20.965       24.043     1628.632      439.525      578.052        0.626        0.132       98.981       22.351        0.051      347.363       26.279      861.367
08/17/2013  22:31:00      -58.842       69.070      -11.771       25.324       25.130       15.182      641.322      631.496      230.486        0.494        0.075       90.736       11.259        0.015      347.299       26.168      861.349
08/17/2013  22:32:00     -111.601       47.725      -24.792       43.378       43.890       21.248     1881.670     1926.300      451.496        0.980        0.213      121.377       25.256        0.043      347.484       26.488      861.346
08/17/2013  22:33:00      -35.242       65.955       -3.861       28.370       23.414       19.255      804.851      548.230      370.743        0.367        0.086       74.781       17.315        0.054      347.131       25.878      861.336
08/17/2013  22:34:00      -90.471       76.415      -16.284       26.437       27.528       14.730      698.894      757.778      216.976        0.798        0.084      118.424       15.315        0.017      347.102       25.827      861.321
08/17/2013  22:35:00      -69.169       65.076      -12.407       24.982       40.885       17.004      624.114     1671.564      289.128        0.588        0.129       94.969       18.858        0.039      346.986       25.628      861.314
08/17/2013  22:36:00      -23.641       80.405        0.151       23.829       41.437       19.032      567.811     1717.003      362.217        0.483        0.132       83.808       22.328        0.071      346.894       25.471      861.307
08/17/2013  22:37:00       -5.718       47.626       -5.674       18.370       21.708        9.792      337.460      471.220       95.875        0.162        0.045       47.968        8.740        0.033      346.890       25.463      861.300
08/17/2013  22:38:00       16.506       12.873        9.183       15.455       14.735       12.093      238.871      217.111      146.234        0.056        0.030       20.932        6.133        0.086      346.435       24.680      861.281
08/17/2013  22:39:00      -54.975      114.022      -15.742       55.346       52.246       21.402     3063.215     2729.614      458.033        1.126        0.313      126.583       26.804        0.045      347.052       25.743      861.279
08/17/2013  22:40:00      -27.737      124.345       -9.383       38.915       31.932       21.777     1514.409     1019.639      474.221        0.966        0.150      127.401       12.150        0.009      346.949       25.565      861.294
08/17/2013  22:41:00      -59.805      138.153      -10.061       47.480       40.507       31.473     2254.324     1640.838      990.563        1.382        0.244      150.542       21.803        0.021      347.089       25.805      861.302
08/17/2013  22:42:00      -66.612       89.767      -13.563       31.557       42.856       19.753      995.874     1836.654      390.183        0.795        0.161      111.783       16.768        0.023      346.948       25.564      861.300
08/17/2013  22:43:00      -64.605      -28.474       -8.506       24.838       29.682       12.663      616.927      881.001      160.362        0.336        0.083       70.601       11.282        0.026      346.658       25.062      861.322
08/17/2013  22:44:00      -20.642      -15.696        5.009       29.770       22.140       13.581      886.263      490.160      184.448        0.113        0.078       25.932       17.926        0.478      346.761       25.241      861.339
08/17/2013  22:45:00       19.304        6.571        0.433       21.983       19.789       20.315      483.257      391.621      412.680        0.085        0.064       20.391       15.725        0.595      346.100       24.105      861.342
08/17/2013  22:46:00       27.061      -13.083        6.759       18.351       20.647       19.403      336.748      426.300      376.482        0.104        0.057       30.057       13.680        0.207      346.036       23.995      861.342
08/17/2013  22:47:00       33.532       -1.456        9.282       25.720       26.948       21.125      661.513      726.203      446.269        0.152        0.092       33.564       12.236        0.133      345.964       23.873      861.336
08/17/2013  22:48:00       57.346       41.784       12.405       41.527       22.822       30.235     1724.459      520.827      914.168        0.417        0.158       70.954       22.248        0.098      346.019       23.965      861.351
08/17/2013  22:49:00       59.000       50.682        2.686       45.998       25.892       22.687     2115.801      670.375      514.679        0.468        0.165       77.780       26.251        0.114      346.525       24.835      861.362
08/17/2013  22:50:00       -0.459       19.351       -1.854       22.128       16.837       21.459      489.668      283.471      460.471        0.081        0.062       19.356       14.224        0.540      346.418       24.655      861.364
08/17/2013  22:51:00        6.529       24.614       19.169       18.802       16.318       16.873      353.500      266.278      284.704        0.096        0.045       25.465        7.200        0.080      345.373       22.856      861.365
08/17/2013  22:52:00        8.109       22.365       14.151       14.954       15.542       18.109      223.609      241.561      327.924        0.078        0.040       23.790        9.740        0.168      345.417       22.932      861.373
08/17/2013  22:53:00      -24.668       11.070        1.907       24.143       10.118        8.229      582.881      102.377       67.714        0.074        0.038       27.038       10.600        0.154      346.011       23.952      861.383
08/17/2013  22:54:00      -17.741       11.070       -3.127       26.394        9.846        9.265      696.634       96.937       85.842        0.066        0.044       20.912        4.923        0.055      346.262       24.385      861.381
08/17/2013  22:55:00       14.860        7.872       -2.820        9.402       14.252       12.751       88.403      203.112      162.580        0.037        0.023       16.816        9.261        0.303      345.743       23.492      861.383
08/17/2013  22:56:00       43.183       10.485        3.358       21.252       17.717       21.403      451.665      313.881      458.105        0.160        0.061       44.438       11.581        0.068      345.681       23.387      861.384
08/17/2013  22:57:00        5.465       25.271        1.774       21.335       17.915        6.361      455.171      320.941       40.465        0.074        0.041       25.856        4.983        0.037      346.067       24.048      861.411
08/17/2013  22:58:00       -8.387       11.730       11.789       16.476       14.937       13.843      271.467      223.108      191.642        0.052        0.034       14.420        9.977        0.479      346.069       24.051      861.421
08/17/2013  22:59:00       -2.620       17.012        6.358       13.181       17.175       12.816      173.743      294.965      164.249        0.048        0.032       17.213        8.890        0.267      345.508       23.089      861.411
08/17/2013  23:00:00       -1.846       18.743        8.911       19.738       17.705       10.835      389.590      313.463      117.399        0.063        0.041       18.834        7.190        0.146      345.507       23.088      861.428
08/17/2013  23:01:00      -72.296       29.758       -1.580       40.949       32.050       16.222     1676.848     1027.174      263.147        0.454        0.148       78.180       15.335        0.038      346.334       24.507      861.441
08/17/2013  23:02:00     -100.174      110.816      -21.935       48.154       55.169       24.577     2318.775     3043.657      604.006        1.438        0.298      149.382       27.403        0.034      346.868       25.426      861.460
08/17/2013  23:03:00      -28.948       90.458       -0.520       26.249       47.067       19.535      688.987     2215.270      381.605        0.615        0.164       94.978       27.983        0.087      346.802       25.312      861.461
08/17/2013  23:04:00      -57.735       75.237       -5.821       27.841       30.613       19.186      775.124      937.158      368.096        0.555        0.104       94.836       18.093        0.036      346.745       25.214      861.454
08/17/2013  23:05:00      -59.148       89.791      -12.490       30.855       19.949       15.755      952.010      397.964      248.208        0.666        0.080      107.521       13.936        0.017      346.839       25.375      861.447
08/17/2013  23:06:00      -51.992      107.596       -9.348       39.179       37.761       18.359     1535.009     1425.862      337.041        0.883        0.165      119.499       17.933        0.023      346.664       25.074      861.446
08/17/2013  23:07:00      -35.908       62.850       10.374       51.563       38.726       28.177     2658.706     1499.732      793.927        0.515        0.248       72.384       27.381        0.143      346.476       24.751      861.432
08/17/2013  23:08:00      -64.662       22.492       -1.693       42.988       34.226       24.243     1847.983     1171.429      587.708        0.415        0.180       68.462       30.198        0.195      346.637       25.027      861.438
08/17/2013  23:09:00      -71.986       15.514        4.445       25.692       16.471       15.336      660.077      271.293      235.196        0.330        0.058       73.639       10.640        0.021      346.724       25.178      861.432
08/17/2013  23:10:00        8.375        5.041       14.023       37.937       17.981       19.758     1439.178      323.322      390.376        0.122        0.108        9.775        9.796        1.004      345.607       23.259      861.424
08/17/2013  23:11:00       44.441       31.698        2.183       31.191       24.138       17.712      972.856      582.632      313.700        0.243        0.093       54.587       12.807        0.055      345.426       22.948      861.434
08/17/2013  23:12:00       42.877       20.137       20.055       24.917       21.509       33.246      620.853      462.658     1105.267        0.242        0.109       47.371       12.668        0.072      345.579       23.211      861.441
08/17/2013  23:13:00       19.324       57.259       -1.038       19.966       29.508       22.232      398.634      870.731      494.247        0.271        0.088       60.432       21.858        0.131      346.113       24.128      861.446
08/17/2013  23:14:00        8.497       46.949        6.329       15.706       31.425       15.462      246.679      987.516      239.081        0.189        0.074       47.712       19.422        0.166      346.321       24.485      861.454
08/17/2013  23:15:00       -3.572       14.830        7.258       18.704       21.355       11.356      349.857      456.018      128.966        0.061        0.047       15.254        6.685        0.192      345.671       23.369      861.462
08/17/2013  23:16:00      -28.793       16.798       -1.318       18.760       13.936       10.475      351.937      194.205      109.731        0.088        0.033       33.335       10.558        0.100      346.137       24.170      861.461
08/17/2013  23:17:00      -15.516       39.825       -1.034       16.107       15.381       11.241      259.445      236.566      126.370        0.122        0.031       42.740        7.099        0.028      346.063       24.041      861.468
08/17/2013  23:18:00        5.528       20.085        9.673       31.127       20.625       15.308      968.877      425.411      234.350        0.108        0.081       20.832       10.183        0.239      345.674       23.374      861.476
08/17/2013  23:19:00       -2.672       -1.436        1.311       10.225        9.440        9.738      104.552       89.106       94.823        0.015        0.014        3.033        5.827        3.691      345.872       23.714      861.466
08/17/2013  23:20:00        8.064       -7.396       -1.410        6.116        6.804        6.944       37.411       46.295       48.220        0.013        0.007       10.942        3.463        0.100      346.345       24.527      861.444
08/17/2013  23:21:00      -13.227       -5.297       -0.406       12.260        5.178        7.119      150.296       26.807       50.678        0.022        0.011       14.248        7.526        0.279      346.424       24.660      861.428
08/17/2013  23:22:00      -41.078        7.881       -1.946       11.152        6.190        6.046      124.356       38.319       36.549        0.098        0.010       41.827        3.765        0.008      346.478       24.756      861.416
08/17/2013  23:23:00      -56.558        9.566       -2.159        4.834        7.428        3.684       23.371       55.174       13.571        0.169        0.005       57.361        1.509        0.001      346.157       24.202      861.427
08/17/2013  23:24:00      -49.523        2.588       -7.910       12.080       12.483        8.193      145.931      155.825       67.133        0.145        0.018       49.591        7.546        0.023      345.854       23.682      861.417
08/17/2013  23:25:00      -45.396      -11.784       -6.352        8.538       12.541        5.125       72.893      157.266       26.266        0.125        0.013       46.900        5.071        0.012      345.963       23.869      861.426
08/17/2013  23:26:00      -41.675      -21.317       -4.817        4.919        4.479        3.343       24.196       20.062       11.178        0.113        0.003       46.810        2.522        0.003      346.302       24.452      861.434
08/17/2013  23:27:00      -43.533      -20.824       -4.539        9.082        5.344        3.371       82.488       28.563       11.364        0.124        0.006       48.257        3.465        0.005      346.363       24.560      861.440
08/17/2013  23:28:00      -64.458      -12.612       -4.860       16.181       21.826       13.371      261.819      476.366      178.777        0.263        0.046       65.680       14.346        0.048      346.126       24.150      861.476
08/17/2013  23:29:00      -89.010       13.356       -3.004       48.678       41.477       25.545     2369.580     1720.368      652.554        0.643        0.237       90.007       25.571        0.081      345.540       23.143      861.517
08/17/2013  23:30:00      -13.414       34.487       -4.481       68.272       27.268       15.961     4661.068      743.567      254.758        0.352        0.283       37.004       15.527        0.176      345.593       23.234      861.544
08/17/2013  23:31:00       92.289       17.368        6.468       34.995       28.022       28.761     1224.682      785.212      827.168        0.585        0.142       93.909       20.620        0.048      345.736       23.479      861.538
08/17/2013  23:32:00       97.827       89.526       43.470       27.290       25.735       41.151      744.740      662.308     1693.428        1.129        0.155      132.609       12.086        0.008      345.790       23.572      861.535
08/17/2013  23:33:00       66.063       42.909       20.626       49.976       24.685       18.937     2497.643      609.325      358.623        0.505        0.173       78.775       16.757        0.045      345.707       23.430      861.554
08/17/2013  23:34:00      -44.107        1.129        5.483       35.584       24.635       16.995     1266.193      606.905      288.835        0.207        0.108       44.122       16.410        0.138      345.551       23.162      861.566
08/17/2013  23:35:00      -98.333      -17.545       -1.442       39.419       27.797       15.905     1553.894      772.683      252.959        0.628        0.129       99.886       14.381        0.021      345.411       22.922      861.597
08/17/2013  23:36:00      -23.111      -39.495        3.598       41.213       21.753       14.430     1698.475      473.173      208.219        0.224        0.119       45.760       10.002        0.048      345.461       23.008      861.585
08/17/2013  23:37:00       39.865      -73.365       -6.138       17.866       17.837       11.835      319.189      318.170      140.064        0.389        0.039       83.496        7.209        0.007      345.766       23.531      861.552
08/17/2013  23:38:00        3.149        6.456       17.366       24.121       16.790       12.378      581.808      281.915      153.213        0.068        0.051        7.183        7.896        1.208      345.534       23.133      861.588
08/17/2013  23:39:00       74.082       44.491       14.375       22.895       26.658       20.769      524.188      710.650      431.342        0.467        0.083       86.416       12.128        0.020      345.416       22.929      861.634
08/17/2013  23:40:00       95.671       54.908       16.480       24.318       19.934       22.750      591.381      397.377      517.565        0.697        0.075      110.308       10.781        0.010      345.545       23.153      861.633
08/17/2013  23:41:00       23.299       26.439       11.452       19.793       21.375       13.434      391.773      456.885      180.477        0.120        0.051       35.240       13.744        0.152      345.610       23.264      861.640
08/17/2013  23:42:00      -16.875        3.651        0.056       16.744       23.155        6.750      280.366      536.167       45.566        0.058        0.043       17.266        6.445        0.139      345.774       23.543      861.645
08/17/2013  23:43:00      -10.483      -45.067       -6.577       16.376       19.152       15.567      268.181      366.806      242.342        0.153        0.044       46.270        7.974        0.030      345.981       23.899      861.615
08/17/2013  23:44:00        1.117        7.627       14.830        9.385        9.189       11.549       88.082       84.434      133.385        0.029        0.015        7.709        5.776        0.561      345.568       23.191      861.603
08/17/2013  23:45:00        4.598       63.203       -5.340       20.726       47.515       16.346      429.549     2257.685      267.201        0.350        0.148       63.370       12.929        0.042      346.000       23.933      861.588
08/17/2013  23:46:00        4.992      104.005      -10.210       17.987       26.404       15.332      323.545      697.163      235.085        0.610        0.063      104.124       12.468        0.014      346.170       24.225      861.569
08/17/2013  23:47:00       18.464       90.886      -16.015       26.233       36.726       17.862      688.175     1348.796      319.066        0.561        0.118       92.743       21.013        0.051      346.212       24.300      861.594
08/17/2013  23:48:00       14.013       23.051       -1.648       24.998       21.258       12.028      624.914      451.920      144.667        0.098        0.061       26.976       10.640        0.156      345.937       23.825      861.585
08/17/2013  23:49:00      -51.332       54.582      -12.710       29.295       20.591       10.489      858.196      423.989      110.016        0.358        0.070       74.928        6.582        0.008      346.012       23.953      861.604
08/17/2013  23:50:00      -77.245       -5.015      -10.545       13.783       22.676        8.088      189.966      514.195       65.420        0.344        0.038       77.408        3.944        0.003      345.779       23.555      861.631
08/17/2013  23:51:00        6.699      -21.448       -5.988       42.860       40.510       14.914     1837.014     1641.085      222.441        0.212        0.185       22.470        8.943        0.158      345.976       23.893      861.587
08/17/2013  23:52:00       50.128       36.441       19.562       32.166       23.670       26.001     1034.657      560.253      676.052        0.325        0.114       61.973       13.982        0.051      346.029       23.983      861.557
08/17/2013  23:53:00      -75.044       14.361      -12.343       55.733       17.598       12.447     3106.154      309.691      154.920        0.478        0.179       76.406       18.795        0.061      345.880       23.727      861.577
08/17/2013  23:54:00     -114.685      -14.517      -15.762       36.091       17.562       11.046     1302.594      308.438      122.017        0.767        0.087      115.600        5.136        0.002      345.478       23.036      861.586
08/17/2013  23:55:00      -81.924      -14.907       -2.721       24.015       18.023       14.341      576.735      324.843      205.650        0.402        0.055       83.269       12.663        0.023      345.572       23.199      861.570
08/17/2013  23:56:00     -102.972      -31.511       -7.465       19.508       18.717       11.135      380.546      350.343      123.984        0.625        0.043      107.686        7.033        0.004      345.596       23.239      861.571
08/17/2013  23:57:00      -61.285      -41.856        4.655       32.717       19.359       17.017     1070.421      374.775      289.576        0.363        0.087       74.215       15.257        0.042      345.543       23.148      861.557
08/17/2013  23:58:00      -48.343       -8.520       -1.363        9.833       11.014        7.342       96.680      121.300       53.901        0.134        0.014       49.088        7.895        0.026      346.129       24.156      861.545
08/17/2013  23:59:00     -136.779       -3.420      -14.239       37.195       20.368       10.557     1383.461      414.862      111.449        1.042        0.095      136.822       16.592        0.015      345.631       23.300      861.568
